<?xml version="1.0" encoding="UTF-8" standalone="no" ?>
<gpx xmlns="http://www.topografix.com/GPX/1/1" xmlns:xsi="http://www.w3.org/2001/XMLSchema-instance" xsi:schemaLocation="http://www.topografix.com/GPX/1/1 http://www.topografix.com/GPX/1/1/gpx.xsd" version="1.1" creator="VisuGPX - https://www.visugpx.com">
  <metadata>
    <name>tracés</name>
    <desc><![CDATA[tracé vélo de route et vtt]]></desc>
  </metadata>
  <trk>
    <name><![CDATA[16-FEV-14 12:08:23]]></name>
    <trkseg>
      <trkpt lat="48.03916" lon="-1.26453">
        <ele>91.46</ele>
        <time>2014-02-16T08:04:07Z</time>
      </trkpt>
      <trkpt lat="48.03917" lon="-1.26453">
        <ele>92.42</ele>
        <time>2014-02-16T08:04:20Z</time>
      </trkpt>
      <trkpt lat="48.03917" lon="-1.26453">
        <ele>91.46</ele>
        <time>2014-02-16T08:04:22Z</time>
      </trkpt>
      <trkpt lat="48.03917" lon="-1.26453">
        <ele>91.46</ele>
        <time>2014-02-16T08:04:27Z</time>
      </trkpt>
      <trkpt lat="48.03917" lon="-1.26452">
        <ele>91.46</ele>
        <time>2014-02-16T08:04:50Z</time>
      </trkpt>
      <trkpt lat="48.03915" lon="-1.26452">
        <ele>91.46</ele>
        <time>2014-02-16T08:05:02Z</time>
      </trkpt>
      <trkpt lat="48.03915" lon="-1.26452">
        <ele>91.46</ele>
        <time>2014-02-16T08:05:26Z</time>
      </trkpt>
      <trkpt lat="48.03901" lon="-1.26454">
        <ele>90.98</ele>
        <time>2014-02-16T08:05:31Z</time>
      </trkpt>
      <trkpt lat="48.03897" lon="-1.26456">
        <ele>91.46</ele>
        <time>2014-02-16T08:05:32Z</time>
      </trkpt>
      <trkpt lat="48.03894" lon="-1.26459">
        <ele>91.46</ele>
        <time>2014-02-16T08:05:33Z</time>
      </trkpt>
      <trkpt lat="48.0389" lon="-1.26462">
        <ele>90.98</ele>
        <time>2014-02-16T08:05:34Z</time>
      </trkpt>
      <trkpt lat="48.03887" lon="-1.26465">
        <ele>90.98</ele>
        <time>2014-02-16T08:05:35Z</time>
      </trkpt>
      <trkpt lat="48.03884" lon="-1.26469">
        <ele>90.98</ele>
        <time>2014-02-16T08:05:36Z</time>
      </trkpt>
      <trkpt lat="48.0388" lon="-1.26472">
        <ele>90.98</ele>
        <time>2014-02-16T08:05:37Z</time>
      </trkpt>
      <trkpt lat="48.03875" lon="-1.26475">
        <ele>90.5</ele>
        <time>2014-02-16T08:05:38Z</time>
      </trkpt>
      <trkpt lat="48.0387" lon="-1.26477">
        <ele>90.5</ele>
        <time>2014-02-16T08:05:39Z</time>
      </trkpt>
      <trkpt lat="48.03864" lon="-1.26478">
        <ele>90.5</ele>
        <time>2014-02-16T08:05:40Z</time>
      </trkpt>
      <trkpt lat="48.03859" lon="-1.26478">
        <ele>90.5</ele>
        <time>2014-02-16T08:05:41Z</time>
      </trkpt>
      <trkpt lat="48.03801" lon="-1.26492">
        <ele>89.06</ele>
        <time>2014-02-16T08:05:51Z</time>
      </trkpt>
      <trkpt lat="48.03794" lon="-1.26494">
        <ele>89.54</ele>
        <time>2014-02-16T08:05:52Z</time>
      </trkpt>
      <trkpt lat="48.03788" lon="-1.26496">
        <ele>89.54</ele>
        <time>2014-02-16T08:05:53Z</time>
      </trkpt>
      <trkpt lat="48.03782" lon="-1.26498">
        <ele>89.54</ele>
        <time>2014-02-16T08:05:54Z</time>
      </trkpt>
      <trkpt lat="48.03776" lon="-1.265">
        <ele>89.54</ele>
        <time>2014-02-16T08:05:55Z</time>
      </trkpt>
      <trkpt lat="48.0377" lon="-1.26501">
        <ele>89.54</ele>
        <time>2014-02-16T08:05:56Z</time>
      </trkpt>
      <trkpt lat="48.0372" lon="-1.26517">
        <ele>89.54</ele>
        <time>2014-02-16T08:06:04Z</time>
      </trkpt>
      <trkpt lat="48.03714" lon="-1.26518">
        <ele>89.54</ele>
        <time>2014-02-16T08:06:05Z</time>
      </trkpt>
      <trkpt lat="48.03665" lon="-1.26527">
        <ele>89.54</ele>
        <time>2014-02-16T08:06:13Z</time>
      </trkpt>
      <trkpt lat="48.0366" lon="-1.26527">
        <ele>89.54</ele>
        <time>2014-02-16T08:06:14Z</time>
      </trkpt>
      <trkpt lat="48.03628" lon="-1.2653">
        <ele>90.5</ele>
        <time>2014-02-16T08:06:23Z</time>
      </trkpt>
      <trkpt lat="48.03624" lon="-1.26531">
        <ele>90.5</ele>
        <time>2014-02-16T08:06:24Z</time>
      </trkpt>
      <trkpt lat="48.03619" lon="-1.26532">
        <ele>90.5</ele>
        <time>2014-02-16T08:06:25Z</time>
      </trkpt>
      <trkpt lat="48.0361" lon="-1.26536">
        <ele>90.02</ele>
        <time>2014-02-16T08:06:27Z</time>
      </trkpt>
      <trkpt lat="48.03605" lon="-1.26539">
        <ele>90.02</ele>
        <time>2014-02-16T08:06:28Z</time>
      </trkpt>
      <trkpt lat="48.03579" lon="-1.26556">
        <ele>89.06</ele>
        <time>2014-02-16T08:06:33Z</time>
      </trkpt>
      <trkpt lat="48.03555" lon="-1.26562">
        <ele>88.1</ele>
        <time>2014-02-16T08:06:37Z</time>
      </trkpt>
      <trkpt lat="48.03549" lon="-1.26562">
        <ele>87.62</ele>
        <time>2014-02-16T08:06:38Z</time>
      </trkpt>
      <trkpt lat="48.03542" lon="-1.26561">
        <ele>87.14</ele>
        <time>2014-02-16T08:06:39Z</time>
      </trkpt>
      <trkpt lat="48.03486" lon="-1.26548">
        <ele>83.77</ele>
        <time>2014-02-16T08:06:47Z</time>
      </trkpt>
      <trkpt lat="48.03479" lon="-1.26548">
        <ele>83.77</ele>
        <time>2014-02-16T08:06:48Z</time>
      </trkpt>
      <trkpt lat="48.03471" lon="-1.26549">
        <ele>82.81</ele>
        <time>2014-02-16T08:06:49Z</time>
      </trkpt>
      <trkpt lat="48.03449" lon="-1.26559">
        <ele>81.37</ele>
        <time>2014-02-16T08:06:52Z</time>
      </trkpt>
      <trkpt lat="48.03429" lon="-1.2657">
        <ele>81.85</ele>
        <time>2014-02-16T08:06:55Z</time>
      </trkpt>
      <trkpt lat="48.03401" lon="-1.26594">
        <ele>82.81</ele>
        <time>2014-02-16T08:07:00Z</time>
      </trkpt>
      <trkpt lat="48.03396" lon="-1.26599">
        <ele>83.77</ele>
        <time>2014-02-16T08:07:01Z</time>
      </trkpt>
      <trkpt lat="48.03354" lon="-1.26629">
        <ele>85.21</ele>
        <time>2014-02-16T08:07:09Z</time>
      </trkpt>
      <trkpt lat="48.03348" lon="-1.26631">
        <ele>85.21</ele>
        <time>2014-02-16T08:07:10Z</time>
      </trkpt>
      <trkpt lat="48.03337" lon="-1.26633">
        <ele>85.21</ele>
        <time>2014-02-16T08:07:12Z</time>
      </trkpt>
      <trkpt lat="48.03331" lon="-1.26633">
        <ele>85.21</ele>
        <time>2014-02-16T08:07:13Z</time>
      </trkpt>
      <trkpt lat="48.03325" lon="-1.26631">
        <ele>84.73</ele>
        <time>2014-02-16T08:07:14Z</time>
      </trkpt>
      <trkpt lat="48.03319" lon="-1.26627">
        <ele>84.73</ele>
        <time>2014-02-16T08:07:15Z</time>
      </trkpt>
      <trkpt lat="48.03314" lon="-1.2662">
        <ele>84.73</ele>
        <time>2014-02-16T08:07:16Z</time>
      </trkpt>
      <trkpt lat="48.0331" lon="-1.26613">
        <ele>84.25</ele>
        <time>2014-02-16T08:07:17Z</time>
      </trkpt>
      <trkpt lat="48.03277" lon="-1.26558">
        <ele>81.85</ele>
        <time>2014-02-16T08:07:24Z</time>
      </trkpt>
      <trkpt lat="48.0327" lon="-1.26551">
        <ele>81.85</ele>
        <time>2014-02-16T08:07:25Z</time>
      </trkpt>
      <trkpt lat="48.03264" lon="-1.26545">
        <ele>81.37</ele>
        <time>2014-02-16T08:07:26Z</time>
      </trkpt>
      <trkpt lat="48.03256" lon="-1.26541">
        <ele>80.89</ele>
        <time>2014-02-16T08:07:27Z</time>
      </trkpt>
      <trkpt lat="48.03249" lon="-1.26537">
        <ele>80.89</ele>
        <time>2014-02-16T08:07:28Z</time>
      </trkpt>
      <trkpt lat="48.03241" lon="-1.26533">
        <ele>80.41</ele>
        <time>2014-02-16T08:07:29Z</time>
      </trkpt>
      <trkpt lat="48.03172" lon="-1.26499">
        <ele>78</ele>
        <time>2014-02-16T08:07:38Z</time>
      </trkpt>
      <trkpt lat="48.0316" lon="-1.26484">
        <ele>78</ele>
        <time>2014-02-16T08:07:40Z</time>
      </trkpt>
      <trkpt lat="48.03154" lon="-1.26476">
        <ele>78</ele>
        <time>2014-02-16T08:07:41Z</time>
      </trkpt>
      <trkpt lat="48.03149" lon="-1.26467">
        <ele>78</ele>
        <time>2014-02-16T08:07:42Z</time>
      </trkpt>
      <trkpt lat="48.03134" lon="-1.26432">
        <ele>78</ele>
        <time>2014-02-16T08:07:46Z</time>
      </trkpt>
      <trkpt lat="48.03125" lon="-1.26391">
        <ele>78.97</ele>
        <time>2014-02-16T08:07:51Z</time>
      </trkpt>
      <trkpt lat="48.03122" lon="-1.26384">
        <ele>79.45</ele>
        <time>2014-02-16T08:07:52Z</time>
      </trkpt>
      <trkpt lat="48.03119" lon="-1.26378">
        <ele>79.45</ele>
        <time>2014-02-16T08:07:53Z</time>
      </trkpt>
      <trkpt lat="48.03116" lon="-1.26372">
        <ele>79.93</ele>
        <time>2014-02-16T08:07:54Z</time>
      </trkpt>
      <trkpt lat="48.03112" lon="-1.26367">
        <ele>79.93</ele>
        <time>2014-02-16T08:07:55Z</time>
      </trkpt>
      <trkpt lat="48.03108" lon="-1.26363">
        <ele>80.41</ele>
        <time>2014-02-16T08:07:56Z</time>
      </trkpt>
      <trkpt lat="48.03104" lon="-1.2636">
        <ele>80.89</ele>
        <time>2014-02-16T08:07:57Z</time>
      </trkpt>
      <trkpt lat="48.031" lon="-1.26358">
        <ele>81.37</ele>
        <time>2014-02-16T08:07:58Z</time>
      </trkpt>
      <trkpt lat="48.03095" lon="-1.26358">
        <ele>81.37</ele>
        <time>2014-02-16T08:07:59Z</time>
      </trkpt>
      <trkpt lat="48.03091" lon="-1.26357">
        <ele>81.85</ele>
        <time>2014-02-16T08:08:00Z</time>
      </trkpt>
      <trkpt lat="48.03083" lon="-1.26356">
        <ele>82.33</ele>
        <time>2014-02-16T08:08:02Z</time>
      </trkpt>
      <trkpt lat="48.03069" lon="-1.26354">
        <ele>83.29</ele>
        <time>2014-02-16T08:08:05Z</time>
      </trkpt>
      <trkpt lat="48.03041" lon="-1.26342">
        <ele>85.21</ele>
        <time>2014-02-16T08:08:12Z</time>
      </trkpt>
      <trkpt lat="48.03037" lon="-1.26338">
        <ele>85.21</ele>
        <time>2014-02-16T08:08:13Z</time>
      </trkpt>
      <trkpt lat="48.03033" lon="-1.26334">
        <ele>85.69</ele>
        <time>2014-02-16T08:08:14Z</time>
      </trkpt>
      <trkpt lat="48.03027" lon="-1.26324">
        <ele>85.69</ele>
        <time>2014-02-16T08:08:16Z</time>
      </trkpt>
      <trkpt lat="48.02976" lon="-1.26249">
        <ele>88.1</ele>
        <time>2014-02-16T08:08:32Z</time>
      </trkpt>
      <trkpt lat="48.02915" lon="-1.2616">
        <ele>87.62</ele>
        <time>2014-02-16T08:08:50Z</time>
      </trkpt>
      <trkpt lat="48.02911" lon="-1.26156">
        <ele>87.62</ele>
        <time>2014-02-16T08:08:51Z</time>
      </trkpt>
      <trkpt lat="48.02899" lon="-1.26144">
        <ele>88.1</ele>
        <time>2014-02-16T08:08:54Z</time>
      </trkpt>
      <trkpt lat="48.02886" lon="-1.26135">
        <ele>88.1</ele>
        <time>2014-02-16T08:08:57Z</time>
      </trkpt>
      <trkpt lat="48.02809" lon="-1.26105">
        <ele>88.1</ele>
        <time>2014-02-16T08:09:14Z</time>
      </trkpt>
      <trkpt lat="48.02747" lon="-1.26095">
        <ele>87.62</ele>
        <time>2014-02-16T08:09:26Z</time>
      </trkpt>
      <trkpt lat="48.02742" lon="-1.26095">
        <ele>87.62</ele>
        <time>2014-02-16T08:09:27Z</time>
      </trkpt>
      <trkpt lat="48.02708" lon="-1.26094">
        <ele>87.14</ele>
        <time>2014-02-16T08:09:33Z</time>
      </trkpt>
      <trkpt lat="48.02632" lon="-1.26116">
        <ele>87.62</ele>
        <time>2014-02-16T08:09:49Z</time>
      </trkpt>
      <trkpt lat="48.02613" lon="-1.26123">
        <ele>87.14</ele>
        <time>2014-02-16T08:09:53Z</time>
      </trkpt>
      <trkpt lat="48.02529" lon="-1.26145">
        <ele>89.06</ele>
        <time>2014-02-16T08:10:11Z</time>
      </trkpt>
      <trkpt lat="48.02507" lon="-1.26151">
        <ele>89.54</ele>
        <time>2014-02-16T08:10:16Z</time>
      </trkpt>
      <trkpt lat="48.02503" lon="-1.26151">
        <ele>89.54</ele>
        <time>2014-02-16T08:10:17Z</time>
      </trkpt>
      <trkpt lat="48.02486" lon="-1.26153">
        <ele>90.02</ele>
        <time>2014-02-16T08:10:21Z</time>
      </trkpt>
      <trkpt lat="48.02482" lon="-1.26154">
        <ele>90.5</ele>
        <time>2014-02-16T08:10:22Z</time>
      </trkpt>
      <trkpt lat="48.02461" lon="-1.26159">
        <ele>91.46</ele>
        <time>2014-02-16T08:10:27Z</time>
      </trkpt>
      <trkpt lat="48.02445" lon="-1.26161">
        <ele>91.94</ele>
        <time>2014-02-16T08:10:31Z</time>
      </trkpt>
      <trkpt lat="48.02429" lon="-1.26167">
        <ele>92.9</ele>
        <time>2014-02-16T08:10:35Z</time>
      </trkpt>
      <trkpt lat="48.02425" lon="-1.26168">
        <ele>93.39</ele>
        <time>2014-02-16T08:10:36Z</time>
      </trkpt>
      <trkpt lat="48.02421" lon="-1.26169">
        <ele>93.39</ele>
        <time>2014-02-16T08:10:37Z</time>
      </trkpt>
      <trkpt lat="48.02391" lon="-1.26176">
        <ele>94.35</ele>
        <time>2014-02-16T08:10:44Z</time>
      </trkpt>
      <trkpt lat="48.02361" lon="-1.26184">
        <ele>94.83</ele>
        <time>2014-02-16T08:10:51Z</time>
      </trkpt>
      <trkpt lat="48.02356" lon="-1.26185">
        <ele>94.83</ele>
        <time>2014-02-16T08:10:52Z</time>
      </trkpt>
      <trkpt lat="48.02285" lon="-1.26204">
        <ele>92.9</ele>
        <time>2014-02-16T08:11:07Z</time>
      </trkpt>
      <trkpt lat="48.0224" lon="-1.26199">
        <ele>91.46</ele>
        <time>2014-02-16T08:11:15Z</time>
      </trkpt>
      <trkpt lat="48.02151" lon="-1.26153">
        <ele>89.06</ele>
        <time>2014-02-16T08:11:31Z</time>
      </trkpt>
      <trkpt lat="48.02123" lon="-1.26137">
        <ele>87.62</ele>
        <time>2014-02-16T08:11:36Z</time>
      </trkpt>
      <trkpt lat="48.02113" lon="-1.26131">
        <ele>87.14</ele>
        <time>2014-02-16T08:11:38Z</time>
      </trkpt>
      <trkpt lat="48.02071" lon="-1.26116">
        <ele>85.21</ele>
        <time>2014-02-16T08:11:45Z</time>
      </trkpt>
      <trkpt lat="48.02064" lon="-1.26116">
        <ele>84.73</ele>
        <time>2014-02-16T08:11:46Z</time>
      </trkpt>
      <trkpt lat="48.02057" lon="-1.26118">
        <ele>84.25</ele>
        <time>2014-02-16T08:11:47Z</time>
      </trkpt>
      <trkpt lat="48.0205" lon="-1.26121">
        <ele>83.77</ele>
        <time>2014-02-16T08:11:48Z</time>
      </trkpt>
      <trkpt lat="48.02042" lon="-1.26124">
        <ele>83.29</ele>
        <time>2014-02-16T08:11:49Z</time>
      </trkpt>
      <trkpt lat="48.0202" lon="-1.26135">
        <ele>81.37</ele>
        <time>2014-02-16T08:11:52Z</time>
      </trkpt>
      <trkpt lat="48.02003" lon="-1.26138">
        <ele>80.41</ele>
        <time>2014-02-16T08:11:54Z</time>
      </trkpt>
      <trkpt lat="48.01995" lon="-1.26136">
        <ele>79.93</ele>
        <time>2014-02-16T08:11:55Z</time>
      </trkpt>
      <trkpt lat="48.01986" lon="-1.26131">
        <ele>79.45</ele>
        <time>2014-02-16T08:11:56Z</time>
      </trkpt>
      <trkpt lat="48.01978" lon="-1.26126">
        <ele>78.97</ele>
        <time>2014-02-16T08:11:57Z</time>
      </trkpt>
      <trkpt lat="48.0197" lon="-1.2612">
        <ele>78</ele>
        <time>2014-02-16T08:11:58Z</time>
      </trkpt>
      <trkpt lat="48.01911" lon="-1.26075">
        <ele>75.12</ele>
        <time>2014-02-16T08:12:05Z</time>
      </trkpt>
      <trkpt lat="48.01844" lon="-1.26025">
        <ele>71.76</ele>
        <time>2014-02-16T08:12:13Z</time>
      </trkpt>
      <trkpt lat="48.01836" lon="-1.26019">
        <ele>71.76</ele>
        <time>2014-02-16T08:12:14Z</time>
      </trkpt>
      <trkpt lat="48.01796" lon="-1.25986">
        <ele>69.83</ele>
        <time>2014-02-16T08:12:19Z</time>
      </trkpt>
      <trkpt lat="48.01718" lon="-1.259">
        <ele>68.87</ele>
        <time>2014-02-16T08:12:32Z</time>
      </trkpt>
      <trkpt lat="48.01626" lon="-1.2579">
        <ele>70.79</ele>
        <time>2014-02-16T08:12:50Z</time>
      </trkpt>
      <trkpt lat="48.01563" lon="-1.25719">
        <ele>72.24</ele>
        <time>2014-02-16T08:13:04Z</time>
      </trkpt>
      <trkpt lat="48.01515" lon="-1.25664">
        <ele>73.2</ele>
        <time>2014-02-16T08:13:17Z</time>
      </trkpt>
      <trkpt lat="48.01511" lon="-1.25658">
        <ele>73.68</ele>
        <time>2014-02-16T08:13:18Z</time>
      </trkpt>
      <trkpt lat="48.01507" lon="-1.25653">
        <ele>73.68</ele>
        <time>2014-02-16T08:13:19Z</time>
      </trkpt>
      <trkpt lat="48.01467" lon="-1.25607">
        <ele>75.12</ele>
        <time>2014-02-16T08:13:28Z</time>
      </trkpt>
      <trkpt lat="48.01434" lon="-1.25569">
        <ele>77.04</ele>
        <time>2014-02-16T08:13:38Z</time>
      </trkpt>
      <trkpt lat="48.01422" lon="-1.25555">
        <ele>77.52</ele>
        <time>2014-02-16T08:13:42Z</time>
      </trkpt>
      <trkpt lat="48.01419" lon="-1.25551">
        <ele>77.52</ele>
        <time>2014-02-16T08:13:43Z</time>
      </trkpt>
      <trkpt lat="48.01416" lon="-1.25548">
        <ele>78</ele>
        <time>2014-02-16T08:13:44Z</time>
      </trkpt>
      <trkpt lat="48.01387" lon="-1.25518">
        <ele>79.93</ele>
        <time>2014-02-16T08:13:53Z</time>
      </trkpt>
      <trkpt lat="48.01384" lon="-1.25514">
        <ele>79.93</ele>
        <time>2014-02-16T08:13:54Z</time>
      </trkpt>
      <trkpt lat="48.01381" lon="-1.2551">
        <ele>79.93</ele>
        <time>2014-02-16T08:13:55Z</time>
      </trkpt>
      <trkpt lat="48.01377" lon="-1.25506">
        <ele>80.41</ele>
        <time>2014-02-16T08:13:56Z</time>
      </trkpt>
      <trkpt lat="48.01374" lon="-1.25502">
        <ele>80.41</ele>
        <time>2014-02-16T08:13:57Z</time>
      </trkpt>
      <trkpt lat="48.0137" lon="-1.25498">
        <ele>80.41</ele>
        <time>2014-02-16T08:13:58Z</time>
      </trkpt>
      <trkpt lat="48.01358" lon="-1.25482">
        <ele>80.41</ele>
        <time>2014-02-16T08:14:02Z</time>
      </trkpt>
      <trkpt lat="48.01348" lon="-1.2547">
        <ele>80.89</ele>
        <time>2014-02-16T08:14:05Z</time>
      </trkpt>
      <trkpt lat="48.01345" lon="-1.25467">
        <ele>80.89</ele>
        <time>2014-02-16T08:14:06Z</time>
      </trkpt>
      <trkpt lat="48.01319" lon="-1.25438">
        <ele>81.85</ele>
        <time>2014-02-16T08:14:14Z</time>
      </trkpt>
      <trkpt lat="48.01315" lon="-1.25434">
        <ele>81.85</ele>
        <time>2014-02-16T08:14:15Z</time>
      </trkpt>
      <trkpt lat="48.01312" lon="-1.25431">
        <ele>81.85</ele>
        <time>2014-02-16T08:14:16Z</time>
      </trkpt>
      <trkpt lat="48.01308" lon="-1.25428">
        <ele>81.85</ele>
        <time>2014-02-16T08:14:17Z</time>
      </trkpt>
      <trkpt lat="48.01305" lon="-1.25425">
        <ele>81.85</ele>
        <time>2014-02-16T08:14:18Z</time>
      </trkpt>
      <trkpt lat="48.01294" lon="-1.25416">
        <ele>81.85</ele>
        <time>2014-02-16T08:14:21Z</time>
      </trkpt>
      <trkpt lat="48.0129" lon="-1.25414">
        <ele>82.33</ele>
        <time>2014-02-16T08:14:22Z</time>
      </trkpt>
      <trkpt lat="48.01287" lon="-1.25412">
        <ele>82.33</ele>
        <time>2014-02-16T08:14:23Z</time>
      </trkpt>
      <trkpt lat="48.01283" lon="-1.25411">
        <ele>82.33</ele>
        <time>2014-02-16T08:14:24Z</time>
      </trkpt>
      <trkpt lat="48.01279" lon="-1.2541">
        <ele>82.33</ele>
        <time>2014-02-16T08:14:25Z</time>
      </trkpt>
      <trkpt lat="48.01276" lon="-1.25408">
        <ele>82.33</ele>
        <time>2014-02-16T08:14:26Z</time>
      </trkpt>
      <trkpt lat="48.01267" lon="-1.25405">
        <ele>82.81</ele>
        <time>2014-02-16T08:14:28Z</time>
      </trkpt>
      <trkpt lat="48.01263" lon="-1.25404">
        <ele>83.29</ele>
        <time>2014-02-16T08:14:29Z</time>
      </trkpt>
      <trkpt lat="48.01255" lon="-1.25402">
        <ele>82.81</ele>
        <time>2014-02-16T08:14:31Z</time>
      </trkpt>
      <trkpt lat="48.01251" lon="-1.25402">
        <ele>82.81</ele>
        <time>2014-02-16T08:14:32Z</time>
      </trkpt>
      <trkpt lat="48.01192" lon="-1.25418">
        <ele>84.73</ele>
        <time>2014-02-16T08:14:47Z</time>
      </trkpt>
      <trkpt lat="48.01161" lon="-1.25427">
        <ele>85.69</ele>
        <time>2014-02-16T08:14:55Z</time>
      </trkpt>
      <trkpt lat="48.01121" lon="-1.25436">
        <ele>87.62</ele>
        <time>2014-02-16T08:15:05Z</time>
      </trkpt>
      <trkpt lat="48.01117" lon="-1.25436">
        <ele>87.62</ele>
        <time>2014-02-16T08:15:06Z</time>
      </trkpt>
      <trkpt lat="48.01077" lon="-1.25437">
        <ele>88.58</ele>
        <time>2014-02-16T08:15:16Z</time>
      </trkpt>
      <trkpt lat="48.01056" lon="-1.25438">
        <ele>89.54</ele>
        <time>2014-02-16T08:15:21Z</time>
      </trkpt>
      <trkpt lat="48.01014" lon="-1.25434">
        <ele>90.98</ele>
        <time>2014-02-16T08:15:31Z</time>
      </trkpt>
      <trkpt lat="48.0101" lon="-1.25434">
        <ele>90.98</ele>
        <time>2014-02-16T08:15:32Z</time>
      </trkpt>
      <trkpt lat="48.01006" lon="-1.25434">
        <ele>91.46</ele>
        <time>2014-02-16T08:15:33Z</time>
      </trkpt>
      <trkpt lat="48.01002" lon="-1.25434">
        <ele>91.46</ele>
        <time>2014-02-16T08:15:34Z</time>
      </trkpt>
      <trkpt lat="48.00998" lon="-1.25433">
        <ele>91.46</ele>
        <time>2014-02-16T08:15:35Z</time>
      </trkpt>
      <trkpt lat="48.00927" lon="-1.25423">
        <ele>94.35</ele>
        <time>2014-02-16T08:15:53Z</time>
      </trkpt>
      <trkpt lat="48.00916" lon="-1.25419">
        <ele>94.83</ele>
        <time>2014-02-16T08:15:56Z</time>
      </trkpt>
      <trkpt lat="48.00912" lon="-1.25417">
        <ele>94.83</ele>
        <time>2014-02-16T08:15:57Z</time>
      </trkpt>
      <trkpt lat="48.00908" lon="-1.25415">
        <ele>94.83</ele>
        <time>2014-02-16T08:15:58Z</time>
      </trkpt>
      <trkpt lat="48.00846" lon="-1.25394">
        <ele>94.35</ele>
        <time>2014-02-16T08:16:11Z</time>
      </trkpt>
      <trkpt lat="48.00782" lon="-1.25372">
        <ele>90.98</ele>
        <time>2014-02-16T08:16:23Z</time>
      </trkpt>
      <trkpt lat="48.00687" lon="-1.25341">
        <ele>88.58</ele>
        <time>2014-02-16T08:16:39Z</time>
      </trkpt>
      <trkpt lat="48.00604" lon="-1.25315">
        <ele>88.1</ele>
        <time>2014-02-16T08:16:54Z</time>
      </trkpt>
      <trkpt lat="48.00525" lon="-1.25288">
        <ele>89.06</ele>
        <time>2014-02-16T08:17:09Z</time>
      </trkpt>
      <trkpt lat="48.00521" lon="-1.25286">
        <ele>88.58</ele>
        <time>2014-02-16T08:17:10Z</time>
      </trkpt>
      <trkpt lat="48.00506" lon="-1.25283">
        <ele>89.06</ele>
        <time>2014-02-16T08:17:14Z</time>
      </trkpt>
      <trkpt lat="48.00463" lon="-1.25267">
        <ele>90.5</ele>
        <time>2014-02-16T08:17:24Z</time>
      </trkpt>
      <trkpt lat="48.00458" lon="-1.25265">
        <ele>90.5</ele>
        <time>2014-02-16T08:17:25Z</time>
      </trkpt>
      <trkpt lat="48.00453" lon="-1.25263">
        <ele>90.5</ele>
        <time>2014-02-16T08:17:26Z</time>
      </trkpt>
      <trkpt lat="48.00373" lon="-1.25248">
        <ele>92.42</ele>
        <time>2014-02-16T08:17:43Z</time>
      </trkpt>
      <trkpt lat="48.00363" lon="-1.25246">
        <ele>92.9</ele>
        <time>2014-02-16T08:17:45Z</time>
      </trkpt>
      <trkpt lat="48.00284" lon="-1.25224">
        <ele>90.5</ele>
        <time>2014-02-16T08:18:00Z</time>
      </trkpt>
      <trkpt lat="48.00212" lon="-1.25208">
        <ele>87.62</ele>
        <time>2014-02-16T08:18:12Z</time>
      </trkpt>
      <trkpt lat="48.00182" lon="-1.25201">
        <ele>86.18</ele>
        <time>2014-02-16T08:18:17Z</time>
      </trkpt>
      <trkpt lat="48.00176" lon="-1.252">
        <ele>85.21</ele>
        <time>2014-02-16T08:18:18Z</time>
      </trkpt>
      <trkpt lat="48.00133" lon="-1.25191">
        <ele>84.25</ele>
        <time>2014-02-16T08:18:25Z</time>
      </trkpt>
      <trkpt lat="48.00127" lon="-1.25189">
        <ele>84.25</ele>
        <time>2014-02-16T08:18:26Z</time>
      </trkpt>
      <trkpt lat="48.00068" lon="-1.25175">
        <ele>81.37</ele>
        <time>2014-02-16T08:18:36Z</time>
      </trkpt>
      <trkpt lat="48.00037" lon="-1.25171">
        <ele>80.41</ele>
        <time>2014-02-16T08:18:43Z</time>
      </trkpt>
      <trkpt lat="48.00033" lon="-1.25174">
        <ele>79.93</ele>
        <time>2014-02-16T08:18:44Z</time>
      </trkpt>
      <trkpt lat="48.00029" lon="-1.25179">
        <ele>79.93</ele>
        <time>2014-02-16T08:18:45Z</time>
      </trkpt>
      <trkpt lat="48.00027" lon="-1.25186">
        <ele>80.41</ele>
        <time>2014-02-16T08:18:46Z</time>
      </trkpt>
      <trkpt lat="48.00026" lon="-1.25193">
        <ele>80.41</ele>
        <time>2014-02-16T08:18:47Z</time>
      </trkpt>
      <trkpt lat="48.00025" lon="-1.252">
        <ele>80.41</ele>
        <time>2014-02-16T08:18:48Z</time>
      </trkpt>
      <trkpt lat="48.00016" lon="-1.25242">
        <ele>79.93</ele>
        <time>2014-02-16T08:18:54Z</time>
      </trkpt>
      <trkpt lat="48.00015" lon="-1.25248">
        <ele>79.93</ele>
        <time>2014-02-16T08:18:55Z</time>
      </trkpt>
      <trkpt lat="48.00014" lon="-1.25255">
        <ele>79.93</ele>
        <time>2014-02-16T08:18:56Z</time>
      </trkpt>
      <trkpt lat="48.00012" lon="-1.25261">
        <ele>79.93</ele>
        <time>2014-02-16T08:18:57Z</time>
      </trkpt>
      <trkpt lat="48.00011" lon="-1.25267">
        <ele>79.93</ele>
        <time>2014-02-16T08:18:58Z</time>
      </trkpt>
      <trkpt lat="48.00009" lon="-1.25274">
        <ele>79.93</ele>
        <time>2014-02-16T08:18:59Z</time>
      </trkpt>
      <trkpt lat="48.00008" lon="-1.25281">
        <ele>79.93</ele>
        <time>2014-02-16T08:19:00Z</time>
      </trkpt>
      <trkpt lat="48.00007" lon="-1.25289">
        <ele>79.45</ele>
        <time>2014-02-16T08:19:01Z</time>
      </trkpt>
      <trkpt lat="47.99989" lon="-1.25377">
        <ele>78.48</ele>
        <time>2014-02-16T08:19:14Z</time>
      </trkpt>
      <trkpt lat="47.99988" lon="-1.25383">
        <ele>78</ele>
        <time>2014-02-16T08:19:15Z</time>
      </trkpt>
      <trkpt lat="47.99964" lon="-1.25493">
        <ele>77.04</ele>
        <time>2014-02-16T08:19:31Z</time>
      </trkpt>
      <trkpt lat="47.9994" lon="-1.25612">
        <ele>78</ele>
        <time>2014-02-16T08:19:49Z</time>
      </trkpt>
      <trkpt lat="47.99939" lon="-1.25618">
        <ele>78</ele>
        <time>2014-02-16T08:19:50Z</time>
      </trkpt>
      <trkpt lat="47.99934" lon="-1.25643">
        <ele>78</ele>
        <time>2014-02-16T08:19:54Z</time>
      </trkpt>
      <trkpt lat="47.99932" lon="-1.2565">
        <ele>78</ele>
        <time>2014-02-16T08:19:55Z</time>
      </trkpt>
      <trkpt lat="47.99922" lon="-1.25693">
        <ele>78.97</ele>
        <time>2014-02-16T08:20:02Z</time>
      </trkpt>
      <trkpt lat="47.99919" lon="-1.25711">
        <ele>78.97</ele>
        <time>2014-02-16T08:20:05Z</time>
      </trkpt>
      <trkpt lat="47.99903" lon="-1.25806">
        <ele>80.41</ele>
        <time>2014-02-16T08:20:19Z</time>
      </trkpt>
      <trkpt lat="47.99903" lon="-1.25813">
        <ele>80.41</ele>
        <time>2014-02-16T08:20:20Z</time>
      </trkpt>
      <trkpt lat="47.99919" lon="-1.25902">
        <ele>81.85</ele>
        <time>2014-02-16T08:20:33Z</time>
      </trkpt>
      <trkpt lat="47.99943" lon="-1.25999">
        <ele>82.81</ele>
        <time>2014-02-16T08:20:48Z</time>
      </trkpt>
      <trkpt lat="47.99974" lon="-1.26116">
        <ele>83.29</ele>
        <time>2014-02-16T08:21:07Z</time>
      </trkpt>
      <trkpt lat="48.00006" lon="-1.26235">
        <ele>82.81</ele>
        <time>2014-02-16T08:21:25Z</time>
      </trkpt>
      <trkpt lat="48.00038" lon="-1.26353">
        <ele>81.37</ele>
        <time>2014-02-16T08:21:41Z</time>
      </trkpt>
      <trkpt lat="48.00068" lon="-1.2647">
        <ele>81.37</ele>
        <time>2014-02-16T08:21:57Z</time>
      </trkpt>
      <trkpt lat="48.0011" lon="-1.26576">
        <ele>80.89</ele>
        <time>2014-02-16T08:22:13Z</time>
      </trkpt>
      <trkpt lat="48.00126" lon="-1.26609">
        <ele>80.41</ele>
        <time>2014-02-16T08:22:19Z</time>
      </trkpt>
      <trkpt lat="48.00127" lon="-1.26614">
        <ele>80.41</ele>
        <time>2014-02-16T08:22:20Z</time>
      </trkpt>
      <trkpt lat="48.00127" lon="-1.26619">
        <ele>80.41</ele>
        <time>2014-02-16T08:22:21Z</time>
      </trkpt>
      <trkpt lat="48.00126" lon="-1.26624">
        <ele>79.93</ele>
        <time>2014-02-16T08:22:22Z</time>
      </trkpt>
      <trkpt lat="48.00124" lon="-1.26628">
        <ele>79.93</ele>
        <time>2014-02-16T08:22:23Z</time>
      </trkpt>
      <trkpt lat="48.00121" lon="-1.26632">
        <ele>79.45</ele>
        <time>2014-02-16T08:22:24Z</time>
      </trkpt>
      <trkpt lat="48.00118" lon="-1.26636">
        <ele>79.45</ele>
        <time>2014-02-16T08:22:25Z</time>
      </trkpt>
      <trkpt lat="48.00115" lon="-1.26639">
        <ele>79.45</ele>
        <time>2014-02-16T08:22:26Z</time>
      </trkpt>
      <trkpt lat="48.00112" lon="-1.26642">
        <ele>78.97</ele>
        <time>2014-02-16T08:22:27Z</time>
      </trkpt>
      <trkpt lat="48.00108" lon="-1.26645">
        <ele>78.97</ele>
        <time>2014-02-16T08:22:28Z</time>
      </trkpt>
      <trkpt lat="48.00105" lon="-1.26649">
        <ele>78.48</ele>
        <time>2014-02-16T08:22:29Z</time>
      </trkpt>
      <trkpt lat="48.00101" lon="-1.26652">
        <ele>78.48</ele>
        <time>2014-02-16T08:22:30Z</time>
      </trkpt>
      <trkpt lat="48.00074" lon="-1.2667">
        <ele>76.08</ele>
        <time>2014-02-16T08:22:36Z</time>
      </trkpt>
      <trkpt lat="48.00045" lon="-1.26686">
        <ele>72.72</ele>
        <time>2014-02-16T08:22:42Z</time>
      </trkpt>
      <trkpt lat="48.00039" lon="-1.26689">
        <ele>72.24</ele>
        <time>2014-02-16T08:22:43Z</time>
      </trkpt>
      <trkpt lat="48.00027" lon="-1.26693">
        <ele>70.31</ele>
        <time>2014-02-16T08:22:45Z</time>
      </trkpt>
      <trkpt lat="48.0002" lon="-1.26695">
        <ele>70.31</ele>
        <time>2014-02-16T08:22:46Z</time>
      </trkpt>
      <trkpt lat="47.99992" lon="-1.26702">
        <ele>66.95</ele>
        <time>2014-02-16T08:22:50Z</time>
      </trkpt>
      <trkpt lat="47.99916" lon="-1.26717">
        <ele>66.47</ele>
        <time>2014-02-16T08:23:02Z</time>
      </trkpt>
      <trkpt lat="47.9989" lon="-1.26722">
        <ele>67.43</ele>
        <time>2014-02-16T08:23:07Z</time>
      </trkpt>
      <trkpt lat="47.99875" lon="-1.26727">
        <ele>67.91</ele>
        <time>2014-02-16T08:23:10Z</time>
      </trkpt>
      <trkpt lat="47.99846" lon="-1.2673">
        <ele>69.35</ele>
        <time>2014-02-16T08:23:16Z</time>
      </trkpt>
      <trkpt lat="47.99832" lon="-1.26736">
        <ele>70.31</ele>
        <time>2014-02-16T08:23:19Z</time>
      </trkpt>
      <trkpt lat="47.99828" lon="-1.26739">
        <ele>70.79</ele>
        <time>2014-02-16T08:23:20Z</time>
      </trkpt>
      <trkpt lat="47.99825" lon="-1.26742">
        <ele>70.31</ele>
        <time>2014-02-16T08:23:21Z</time>
      </trkpt>
      <trkpt lat="47.99789" lon="-1.26795">
        <ele>71.27</ele>
        <time>2014-02-16T08:23:32Z</time>
      </trkpt>
      <trkpt lat="47.99787" lon="-1.26801">
        <ele>71.76</ele>
        <time>2014-02-16T08:23:33Z</time>
      </trkpt>
      <trkpt lat="47.99785" lon="-1.26808">
        <ele>71.76</ele>
        <time>2014-02-16T08:23:34Z</time>
      </trkpt>
      <trkpt lat="47.99783" lon="-1.26823">
        <ele>72.24</ele>
        <time>2014-02-16T08:23:36Z</time>
      </trkpt>
      <trkpt lat="47.99782" lon="-1.26838">
        <ele>72.72</ele>
        <time>2014-02-16T08:23:38Z</time>
      </trkpt>
      <trkpt lat="47.99782" lon="-1.26846">
        <ele>72.72</ele>
        <time>2014-02-16T08:23:39Z</time>
      </trkpt>
      <trkpt lat="47.99789" lon="-1.26947">
        <ele>73.68</ele>
        <time>2014-02-16T08:23:53Z</time>
      </trkpt>
      <trkpt lat="47.99791" lon="-1.26989">
        <ele>74.64</ele>
        <time>2014-02-16T08:23:59Z</time>
      </trkpt>
      <trkpt lat="47.99789" lon="-1.26994">
        <ele>74.16</ele>
        <time>2014-02-16T08:24:00Z</time>
      </trkpt>
      <trkpt lat="47.99785" lon="-1.26997">
        <ele>74.16</ele>
        <time>2014-02-16T08:24:01Z</time>
      </trkpt>
      <trkpt lat="47.99781" lon="-1.26998">
        <ele>74.16</ele>
        <time>2014-02-16T08:24:02Z</time>
      </trkpt>
      <trkpt lat="47.99777" lon="-1.26997">
        <ele>74.64</ele>
        <time>2014-02-16T08:24:03Z</time>
      </trkpt>
      <trkpt lat="47.99773" lon="-1.26996">
        <ele>74.64</ele>
        <time>2014-02-16T08:24:04Z</time>
      </trkpt>
      <trkpt lat="47.9973" lon="-1.26986">
        <ele>76.08</ele>
        <time>2014-02-16T08:24:14Z</time>
      </trkpt>
      <trkpt lat="47.99725" lon="-1.26985">
        <ele>76.08</ele>
        <time>2014-02-16T08:24:15Z</time>
      </trkpt>
      <trkpt lat="47.99721" lon="-1.26984">
        <ele>76.08</ele>
        <time>2014-02-16T08:24:16Z</time>
      </trkpt>
      <trkpt lat="47.99712" lon="-1.2698">
        <ele>76.08</ele>
        <time>2014-02-16T08:24:18Z</time>
      </trkpt>
      <trkpt lat="47.99708" lon="-1.26979">
        <ele>76.08</ele>
        <time>2014-02-16T08:24:19Z</time>
      </trkpt>
      <trkpt lat="47.99703" lon="-1.26978">
        <ele>76.08</ele>
        <time>2014-02-16T08:24:20Z</time>
      </trkpt>
      <trkpt lat="47.9969" lon="-1.26975">
        <ele>75.6</ele>
        <time>2014-02-16T08:24:23Z</time>
      </trkpt>
      <trkpt lat="47.99685" lon="-1.26974">
        <ele>75.6</ele>
        <time>2014-02-16T08:24:24Z</time>
      </trkpt>
      <trkpt lat="47.99626" lon="-1.26957">
        <ele>73.68</ele>
        <time>2014-02-16T08:24:36Z</time>
      </trkpt>
      <trkpt lat="47.99617" lon="-1.26954">
        <ele>73.68</ele>
        <time>2014-02-16T08:24:38Z</time>
      </trkpt>
      <trkpt lat="47.99565" lon="-1.26951">
        <ele>75.6</ele>
        <time>2014-02-16T08:24:51Z</time>
      </trkpt>
      <trkpt lat="47.9955" lon="-1.26953">
        <ele>76.08</ele>
        <time>2014-02-16T08:24:55Z</time>
      </trkpt>
      <trkpt lat="47.99546" lon="-1.26954">
        <ele>76.08</ele>
        <time>2014-02-16T08:24:56Z</time>
      </trkpt>
      <trkpt lat="47.99519" lon="-1.26961">
        <ele>77.04</ele>
        <time>2014-02-16T08:25:03Z</time>
      </trkpt>
      <trkpt lat="47.99468" lon="-1.2697">
        <ele>78.97</ele>
        <time>2014-02-16T08:25:16Z</time>
      </trkpt>
      <trkpt lat="47.99423" lon="-1.26981">
        <ele>81.37</ele>
        <time>2014-02-16T08:25:28Z</time>
      </trkpt>
      <trkpt lat="47.99392" lon="-1.26988">
        <ele>82.33</ele>
        <time>2014-02-16T08:25:36Z</time>
      </trkpt>
      <trkpt lat="47.99388" lon="-1.26989">
        <ele>82.33</ele>
        <time>2014-02-16T08:25:37Z</time>
      </trkpt>
      <trkpt lat="47.99325" lon="-1.27015">
        <ele>84.25</ele>
        <time>2014-02-16T08:25:53Z</time>
      </trkpt>
      <trkpt lat="47.99301" lon="-1.27021">
        <ele>83.77</ele>
        <time>2014-02-16T08:25:59Z</time>
      </trkpt>
      <trkpt lat="47.99283" lon="-1.27018">
        <ele>83.29</ele>
        <time>2014-02-16T08:26:03Z</time>
      </trkpt>
      <trkpt lat="47.99274" lon="-1.27015">
        <ele>83.77</ele>
        <time>2014-02-16T08:26:05Z</time>
      </trkpt>
      <trkpt lat="47.99183" lon="-1.26997">
        <ele>82.33</ele>
        <time>2014-02-16T08:26:22Z</time>
      </trkpt>
      <trkpt lat="47.99168" lon="-1.26994">
        <ele>82.33</ele>
        <time>2014-02-16T08:26:25Z</time>
      </trkpt>
      <trkpt lat="47.99127" lon="-1.2699">
        <ele>83.77</ele>
        <time>2014-02-16T08:26:34Z</time>
      </trkpt>
      <trkpt lat="47.99075" lon="-1.27003">
        <ele>86.66</ele>
        <time>2014-02-16T08:26:47Z</time>
      </trkpt>
      <trkpt lat="47.99039" lon="-1.27018">
        <ele>89.54</ele>
        <time>2014-02-16T08:26:57Z</time>
      </trkpt>
      <trkpt lat="47.99035" lon="-1.27019">
        <ele>89.54</ele>
        <time>2014-02-16T08:26:58Z</time>
      </trkpt>
      <trkpt lat="47.99001" lon="-1.27039">
        <ele>90.98</ele>
        <time>2014-02-16T08:27:09Z</time>
      </trkpt>
      <trkpt lat="47.98997" lon="-1.27041">
        <ele>90.98</ele>
        <time>2014-02-16T08:27:10Z</time>
      </trkpt>
      <trkpt lat="47.98993" lon="-1.27041">
        <ele>90.98</ele>
        <time>2014-02-16T08:27:11Z</time>
      </trkpt>
      <trkpt lat="47.98931" lon="-1.27029">
        <ele>92.42</ele>
        <time>2014-02-16T08:27:26Z</time>
      </trkpt>
      <trkpt lat="47.98918" lon="-1.27027">
        <ele>92.42</ele>
        <time>2014-02-16T08:27:29Z</time>
      </trkpt>
      <trkpt lat="47.98881" lon="-1.27012">
        <ele>91.94</ele>
        <time>2014-02-16T08:27:37Z</time>
      </trkpt>
      <trkpt lat="47.98877" lon="-1.27008">
        <ele>91.46</ele>
        <time>2014-02-16T08:27:38Z</time>
      </trkpt>
      <trkpt lat="47.98874" lon="-1.27003">
        <ele>91.46</ele>
        <time>2014-02-16T08:27:39Z</time>
      </trkpt>
      <trkpt lat="47.98871" lon="-1.26997">
        <ele>91.46</ele>
        <time>2014-02-16T08:27:40Z</time>
      </trkpt>
      <trkpt lat="47.98868" lon="-1.26992">
        <ele>91.46</ele>
        <time>2014-02-16T08:27:41Z</time>
      </trkpt>
      <trkpt lat="47.98861" lon="-1.2698">
        <ele>91.46</ele>
        <time>2014-02-16T08:27:43Z</time>
      </trkpt>
      <trkpt lat="47.98852" lon="-1.2697">
        <ele>90.98</ele>
        <time>2014-02-16T08:27:45Z</time>
      </trkpt>
      <trkpt lat="47.98848" lon="-1.26965">
        <ele>90.98</ele>
        <time>2014-02-16T08:27:46Z</time>
      </trkpt>
      <trkpt lat="47.98767" lon="-1.26908">
        <ele>88.1</ele>
        <time>2014-02-16T08:28:02Z</time>
      </trkpt>
      <trkpt lat="47.98677" lon="-1.26843">
        <ele>85.69</ele>
        <time>2014-02-16T08:28:19Z</time>
      </trkpt>
      <trkpt lat="47.98667" lon="-1.26834">
        <ele>85.21</ele>
        <time>2014-02-16T08:28:21Z</time>
      </trkpt>
      <trkpt lat="47.98662" lon="-1.26829">
        <ele>85.69</ele>
        <time>2014-02-16T08:28:22Z</time>
      </trkpt>
      <trkpt lat="47.98652" lon="-1.2682">
        <ele>85.69</ele>
        <time>2014-02-16T08:28:24Z</time>
      </trkpt>
      <trkpt lat="47.98648" lon="-1.26816">
        <ele>85.69</ele>
        <time>2014-02-16T08:28:25Z</time>
      </trkpt>
      <trkpt lat="47.98572" lon="-1.26743">
        <ele>86.18</ele>
        <time>2014-02-16T08:28:42Z</time>
      </trkpt>
      <trkpt lat="47.98489" lon="-1.26661">
        <ele>85.21</ele>
        <time>2014-02-16T08:29:01Z</time>
      </trkpt>
      <trkpt lat="47.98412" lon="-1.26605">
        <ele>83.77</ele>
        <time>2014-02-16T08:29:18Z</time>
      </trkpt>
      <trkpt lat="47.98339" lon="-1.26564">
        <ele>81.37</ele>
        <time>2014-02-16T08:29:33Z</time>
      </trkpt>
      <trkpt lat="47.9829" lon="-1.26538">
        <ele>78.97</ele>
        <time>2014-02-16T08:29:42Z</time>
      </trkpt>
      <trkpt lat="47.98283" lon="-1.26538">
        <ele>78.48</ele>
        <time>2014-02-16T08:29:43Z</time>
      </trkpt>
      <trkpt lat="47.98276" lon="-1.26539">
        <ele>77.52</ele>
        <time>2014-02-16T08:29:44Z</time>
      </trkpt>
      <trkpt lat="47.98269" lon="-1.26542">
        <ele>77.04</ele>
        <time>2014-02-16T08:29:45Z</time>
      </trkpt>
      <trkpt lat="47.98263" lon="-1.26546">
        <ele>77.04</ele>
        <time>2014-02-16T08:29:46Z</time>
      </trkpt>
      <trkpt lat="47.9825" lon="-1.26556">
        <ele>76.08</ele>
        <time>2014-02-16T08:29:48Z</time>
      </trkpt>
      <trkpt lat="47.98177" lon="-1.26616">
        <ele>73.2</ele>
        <time>2014-02-16T08:30:00Z</time>
      </trkpt>
      <trkpt lat="47.98099" lon="-1.26678">
        <ele>71.27</ele>
        <time>2014-02-16T08:30:14Z</time>
      </trkpt>
      <trkpt lat="47.9804" lon="-1.26727">
        <ele>72.24</ele>
        <time>2014-02-16T08:30:26Z</time>
      </trkpt>
      <trkpt lat="47.98022" lon="-1.26743">
        <ele>72.72</ele>
        <time>2014-02-16T08:30:30Z</time>
      </trkpt>
      <trkpt lat="47.97996" lon="-1.26764">
        <ele>73.68</ele>
        <time>2014-02-16T08:30:36Z</time>
      </trkpt>
      <trkpt lat="47.97974" lon="-1.26782">
        <ele>74.64</ele>
        <time>2014-02-16T08:30:41Z</time>
      </trkpt>
      <trkpt lat="47.9797" lon="-1.26785">
        <ele>74.16</ele>
        <time>2014-02-16T08:30:42Z</time>
      </trkpt>
      <trkpt lat="47.97891" lon="-1.2685">
        <ele>76.56</ele>
        <time>2014-02-16T08:31:00Z</time>
      </trkpt>
      <trkpt lat="47.97817" lon="-1.2691">
        <ele>78</ele>
        <time>2014-02-16T08:31:16Z</time>
      </trkpt>
      <trkpt lat="47.97746" lon="-1.26968">
        <ele>77.04</ele>
        <time>2014-02-16T08:31:31Z</time>
      </trkpt>
      <trkpt lat="47.97672" lon="-1.27029">
        <ele>75.6</ele>
        <time>2014-02-16T08:31:47Z</time>
      </trkpt>
      <trkpt lat="47.9766" lon="-1.27039">
        <ele>75.6</ele>
        <time>2014-02-16T08:31:50Z</time>
      </trkpt>
      <trkpt lat="47.97657" lon="-1.27043">
        <ele>75.12</ele>
        <time>2014-02-16T08:31:51Z</time>
      </trkpt>
      <trkpt lat="47.97635" lon="-1.27069">
        <ele>75.6</ele>
        <time>2014-02-16T08:32:02Z</time>
      </trkpt>
      <trkpt lat="47.97634" lon="-1.2707">
        <ele>75.6</ele>
        <time>2014-02-16T08:32:24Z</time>
      </trkpt>
      <trkpt lat="47.97633" lon="-1.27071">
        <ele>75.6</ele>
        <time>2014-02-16T08:32:25Z</time>
      </trkpt>
      <trkpt lat="47.97631" lon="-1.27071">
        <ele>75.6</ele>
        <time>2014-02-16T08:32:26Z</time>
      </trkpt>
      <trkpt lat="47.97628" lon="-1.2707">
        <ele>75.6</ele>
        <time>2014-02-16T08:32:28Z</time>
      </trkpt>
      <trkpt lat="47.97626" lon="-1.27068">
        <ele>75.6</ele>
        <time>2014-02-16T08:32:29Z</time>
      </trkpt>
      <trkpt lat="47.97623" lon="-1.27066">
        <ele>75.6</ele>
        <time>2014-02-16T08:32:30Z</time>
      </trkpt>
      <trkpt lat="47.97566" lon="-1.2702">
        <ele>73.68</ele>
        <time>2014-02-16T08:32:43Z</time>
      </trkpt>
      <trkpt lat="47.97471" lon="-1.26964">
        <ele>70.79</ele>
        <time>2014-02-16T08:32:57Z</time>
      </trkpt>
      <trkpt lat="47.97361" lon="-1.26914">
        <ele>67.43</ele>
        <time>2014-02-16T08:33:12Z</time>
      </trkpt>
      <trkpt lat="47.97212" lon="-1.26848">
        <ele>66.47</ele>
        <time>2014-02-16T08:33:33Z</time>
      </trkpt>
      <trkpt lat="47.97133" lon="-1.26813">
        <ele>69.83</ele>
        <time>2014-02-16T08:33:46Z</time>
      </trkpt>
      <trkpt lat="47.97091" lon="-1.26794">
        <ele>71.76</ele>
        <time>2014-02-16T08:33:54Z</time>
      </trkpt>
      <trkpt lat="47.97035" lon="-1.26769">
        <ele>74.16</ele>
        <time>2014-02-16T08:34:05Z</time>
      </trkpt>
      <trkpt lat="47.9703" lon="-1.26766">
        <ele>74.64</ele>
        <time>2014-02-16T08:34:06Z</time>
      </trkpt>
      <trkpt lat="47.97024" lon="-1.26764">
        <ele>74.64</ele>
        <time>2014-02-16T08:34:07Z</time>
      </trkpt>
      <trkpt lat="47.97003" lon="-1.26755">
        <ele>76.08</ele>
        <time>2014-02-16T08:34:11Z</time>
      </trkpt>
      <trkpt lat="47.96994" lon="-1.2675">
        <ele>77.52</ele>
        <time>2014-02-16T08:34:13Z</time>
      </trkpt>
      <trkpt lat="47.96989" lon="-1.2675">
        <ele>76.56</ele>
        <time>2014-02-16T08:34:14Z</time>
      </trkpt>
      <trkpt lat="47.96985" lon="-1.26754">
        <ele>77.04</ele>
        <time>2014-02-16T08:34:15Z</time>
      </trkpt>
      <trkpt lat="47.96981" lon="-1.26759">
        <ele>77.04</ele>
        <time>2014-02-16T08:34:16Z</time>
      </trkpt>
      <trkpt lat="47.96979" lon="-1.26765">
        <ele>76.56</ele>
        <time>2014-02-16T08:34:17Z</time>
      </trkpt>
      <trkpt lat="47.96977" lon="-1.26771">
        <ele>76.56</ele>
        <time>2014-02-16T08:34:18Z</time>
      </trkpt>
      <trkpt lat="47.96976" lon="-1.26777">
        <ele>77.04</ele>
        <time>2014-02-16T08:34:19Z</time>
      </trkpt>
      <trkpt lat="47.96975" lon="-1.26847">
        <ele>75.12</ele>
        <time>2014-02-16T08:34:30Z</time>
      </trkpt>
      <trkpt lat="47.96997" lon="-1.26936">
        <ele>72.24</ele>
        <time>2014-02-16T08:34:41Z</time>
      </trkpt>
      <trkpt lat="47.97023" lon="-1.27019">
        <ele>68.87</ele>
        <time>2014-02-16T08:34:50Z</time>
      </trkpt>
      <trkpt lat="47.97052" lon="-1.27109">
        <ele>65.51</ele>
        <time>2014-02-16T08:34:59Z</time>
      </trkpt>
      <trkpt lat="47.97066" lon="-1.27212">
        <ele>62.62</ele>
        <time>2014-02-16T08:35:08Z</time>
      </trkpt>
      <trkpt lat="47.97071" lon="-1.27284">
        <ele>61.18</ele>
        <time>2014-02-16T08:35:15Z</time>
      </trkpt>
      <trkpt lat="47.97073" lon="-1.27293">
        <ele>60.7</ele>
        <time>2014-02-16T08:35:16Z</time>
      </trkpt>
      <trkpt lat="47.97076" lon="-1.27302">
        <ele>60.7</ele>
        <time>2014-02-16T08:35:17Z</time>
      </trkpt>
      <trkpt lat="47.9708" lon="-1.2731">
        <ele>60.7</ele>
        <time>2014-02-16T08:35:18Z</time>
      </trkpt>
      <trkpt lat="47.97085" lon="-1.27317">
        <ele>60.7</ele>
        <time>2014-02-16T08:35:19Z</time>
      </trkpt>
      <trkpt lat="47.9709" lon="-1.27323">
        <ele>61.18</ele>
        <time>2014-02-16T08:35:20Z</time>
      </trkpt>
      <trkpt lat="47.97096" lon="-1.27329">
        <ele>61.18</ele>
        <time>2014-02-16T08:35:21Z</time>
      </trkpt>
      <trkpt lat="47.97101" lon="-1.27333">
        <ele>61.66</ele>
        <time>2014-02-16T08:35:22Z</time>
      </trkpt>
      <trkpt lat="47.97173" lon="-1.27396">
        <ele>65.03</ele>
        <time>2014-02-16T08:35:37Z</time>
      </trkpt>
      <trkpt lat="47.97215" lon="-1.27469">
        <ele>65.99</ele>
        <time>2014-02-16T08:35:50Z</time>
      </trkpt>
      <trkpt lat="47.97266" lon="-1.2757">
        <ele>65.99</ele>
        <time>2014-02-16T08:36:06Z</time>
      </trkpt>
      <trkpt lat="47.97314" lon="-1.27663">
        <ele>65.99</ele>
        <time>2014-02-16T08:36:22Z</time>
      </trkpt>
      <trkpt lat="47.9732" lon="-1.27673">
        <ele>65.99</ele>
        <time>2014-02-16T08:36:24Z</time>
      </trkpt>
      <trkpt lat="47.97329" lon="-1.27697">
        <ele>65.99</ele>
        <time>2014-02-16T08:36:28Z</time>
      </trkpt>
      <trkpt lat="47.97334" lon="-1.2772">
        <ele>65.03</ele>
        <time>2014-02-16T08:36:31Z</time>
      </trkpt>
      <trkpt lat="47.97336" lon="-1.27728">
        <ele>65.51</ele>
        <time>2014-02-16T08:36:32Z</time>
      </trkpt>
      <trkpt lat="47.97337" lon="-1.27736">
        <ele>65.51</ele>
        <time>2014-02-16T08:36:33Z</time>
      </trkpt>
      <trkpt lat="47.97338" lon="-1.27744">
        <ele>65.51</ele>
        <time>2014-02-16T08:36:34Z</time>
      </trkpt>
      <trkpt lat="47.9734" lon="-1.27752">
        <ele>65.99</ele>
        <time>2014-02-16T08:36:35Z</time>
      </trkpt>
      <trkpt lat="47.97342" lon="-1.2776">
        <ele>65.99</ele>
        <time>2014-02-16T08:36:36Z</time>
      </trkpt>
      <trkpt lat="47.97351" lon="-1.27799">
        <ele>66.47</ele>
        <time>2014-02-16T08:36:41Z</time>
      </trkpt>
      <trkpt lat="47.97361" lon="-1.2784">
        <ele>67.43</ele>
        <time>2014-02-16T08:36:47Z</time>
      </trkpt>
      <trkpt lat="47.97362" lon="-1.27847">
        <ele>67.43</ele>
        <time>2014-02-16T08:36:48Z</time>
      </trkpt>
      <trkpt lat="47.97363" lon="-1.27863">
        <ele>67.43</ele>
        <time>2014-02-16T08:36:50Z</time>
      </trkpt>
      <trkpt lat="47.97364" lon="-1.27877">
        <ele>67.91</ele>
        <time>2014-02-16T08:36:52Z</time>
      </trkpt>
      <trkpt lat="47.97364" lon="-1.27884">
        <ele>67.91</ele>
        <time>2014-02-16T08:36:53Z</time>
      </trkpt>
      <trkpt lat="47.97377" lon="-1.27962">
        <ele>68.87</ele>
        <time>2014-02-16T08:37:04Z</time>
      </trkpt>
      <trkpt lat="47.97407" lon="-1.28079">
        <ele>69.35</ele>
        <time>2014-02-16T08:37:21Z</time>
      </trkpt>
      <trkpt lat="47.97419" lon="-1.28143">
        <ele>71.76</ele>
        <time>2014-02-16T08:37:31Z</time>
      </trkpt>
      <trkpt lat="47.97443" lon="-1.28224">
        <ele>72.24</ele>
        <time>2014-02-16T08:37:44Z</time>
      </trkpt>
      <trkpt lat="47.9745" lon="-1.28277">
        <ele>73.2</ele>
        <time>2014-02-16T08:37:52Z</time>
      </trkpt>
      <trkpt lat="47.97456" lon="-1.28401">
        <ele>74.64</ele>
        <time>2014-02-16T08:38:10Z</time>
      </trkpt>
      <trkpt lat="47.97462" lon="-1.28496">
        <ele>76.08</ele>
        <time>2014-02-16T08:38:25Z</time>
      </trkpt>
      <trkpt lat="47.97457" lon="-1.28543">
        <ele>75.6</ele>
        <time>2014-02-16T08:38:34Z</time>
      </trkpt>
      <trkpt lat="47.97453" lon="-1.28547">
        <ele>75.6</ele>
        <time>2014-02-16T08:38:35Z</time>
      </trkpt>
      <trkpt lat="47.97449" lon="-1.2855">
        <ele>76.08</ele>
        <time>2014-02-16T08:38:36Z</time>
      </trkpt>
      <trkpt lat="47.97444" lon="-1.28553">
        <ele>75.6</ele>
        <time>2014-02-16T08:38:37Z</time>
      </trkpt>
      <trkpt lat="47.9744" lon="-1.28555">
        <ele>75.6</ele>
        <time>2014-02-16T08:38:38Z</time>
      </trkpt>
      <trkpt lat="47.97431" lon="-1.2856">
        <ele>75.6</ele>
        <time>2014-02-16T08:38:40Z</time>
      </trkpt>
      <trkpt lat="47.97375" lon="-1.286">
        <ele>75.12</ele>
        <time>2014-02-16T08:38:54Z</time>
      </trkpt>
      <trkpt lat="47.97371" lon="-1.28604">
        <ele>74.64</ele>
        <time>2014-02-16T08:38:55Z</time>
      </trkpt>
      <trkpt lat="47.97297" lon="-1.28667">
        <ele>74.64</ele>
        <time>2014-02-16T08:39:12Z</time>
      </trkpt>
      <trkpt lat="47.97208" lon="-1.28744">
        <ele>74.64</ele>
        <time>2014-02-16T08:39:32Z</time>
      </trkpt>
      <trkpt lat="47.97113" lon="-1.28825">
        <ele>76.08</ele>
        <time>2014-02-16T08:39:54Z</time>
      </trkpt>
      <trkpt lat="47.97068" lon="-1.28862">
        <ele>77.04</ele>
        <time>2014-02-16T08:40:06Z</time>
      </trkpt>
      <trkpt lat="47.97064" lon="-1.28865">
        <ele>77.52</ele>
        <time>2014-02-16T08:40:07Z</time>
      </trkpt>
      <trkpt lat="47.9706" lon="-1.28867">
        <ele>77.52</ele>
        <time>2014-02-16T08:40:08Z</time>
      </trkpt>
      <trkpt lat="47.97057" lon="-1.2887">
        <ele>77.52</ele>
        <time>2014-02-16T08:40:09Z</time>
      </trkpt>
      <trkpt lat="47.97055" lon="-1.28872">
        <ele>77.52</ele>
        <time>2014-02-16T08:40:10Z</time>
      </trkpt>
      <trkpt lat="47.97054" lon="-1.28876">
        <ele>77.52</ele>
        <time>2014-02-16T08:40:11Z</time>
      </trkpt>
      <trkpt lat="47.97054" lon="-1.2888">
        <ele>77.52</ele>
        <time>2014-02-16T08:40:12Z</time>
      </trkpt>
      <trkpt lat="47.97055" lon="-1.28885">
        <ele>77.52</ele>
        <time>2014-02-16T08:40:13Z</time>
      </trkpt>
      <trkpt lat="47.97056" lon="-1.28889">
        <ele>78.48</ele>
        <time>2014-02-16T08:40:14Z</time>
      </trkpt>
      <trkpt lat="47.97057" lon="-1.28895">
        <ele>77.52</ele>
        <time>2014-02-16T08:40:15Z</time>
      </trkpt>
      <trkpt lat="47.97082" lon="-1.28997">
        <ele>74.16</ele>
        <time>2014-02-16T08:40:28Z</time>
      </trkpt>
      <trkpt lat="47.97101" lon="-1.29065">
        <ele>72.24</ele>
        <time>2014-02-16T08:40:36Z</time>
      </trkpt>
      <trkpt lat="47.97106" lon="-1.29073">
        <ele>72.24</ele>
        <time>2014-02-16T08:40:37Z</time>
      </trkpt>
      <trkpt lat="47.9711" lon="-1.29079">
        <ele>72.24</ele>
        <time>2014-02-16T08:40:38Z</time>
      </trkpt>
      <trkpt lat="47.97116" lon="-1.29085">
        <ele>71.76</ele>
        <time>2014-02-16T08:40:39Z</time>
      </trkpt>
      <trkpt lat="47.97123" lon="-1.29089">
        <ele>71.27</ele>
        <time>2014-02-16T08:40:40Z</time>
      </trkpt>
      <trkpt lat="47.97129" lon="-1.29093">
        <ele>71.27</ele>
        <time>2014-02-16T08:40:41Z</time>
      </trkpt>
      <trkpt lat="47.97239" lon="-1.29144">
        <ele>68.39</ele>
        <time>2014-02-16T08:40:57Z</time>
      </trkpt>
      <trkpt lat="47.97257" lon="-1.29159">
        <ele>68.39</ele>
        <time>2014-02-16T08:41:00Z</time>
      </trkpt>
      <trkpt lat="47.97262" lon="-1.29166">
        <ele>68.39</ele>
        <time>2014-02-16T08:41:01Z</time>
      </trkpt>
      <trkpt lat="47.97272" lon="-1.2918">
        <ele>68.39</ele>
        <time>2014-02-16T08:41:03Z</time>
      </trkpt>
      <trkpt lat="47.97277" lon="-1.29187">
        <ele>68.39</ele>
        <time>2014-02-16T08:41:04Z</time>
      </trkpt>
      <trkpt lat="47.97335" lon="-1.293">
        <ele>69.35</ele>
        <time>2014-02-16T08:41:20Z</time>
      </trkpt>
      <trkpt lat="47.97351" lon="-1.29334">
        <ele>69.83</ele>
        <time>2014-02-16T08:41:25Z</time>
      </trkpt>
      <trkpt lat="47.97353" lon="-1.29339">
        <ele>69.35</ele>
        <time>2014-02-16T08:41:26Z</time>
      </trkpt>
      <trkpt lat="47.97356" lon="-1.29342">
        <ele>69.83</ele>
        <time>2014-02-16T08:41:27Z</time>
      </trkpt>
      <trkpt lat="47.97357" lon="-1.29345">
        <ele>69.83</ele>
        <time>2014-02-16T08:41:28Z</time>
      </trkpt>
      <trkpt lat="47.97357" lon="-1.29346">
        <ele>69.83</ele>
        <time>2014-02-16T08:41:29Z</time>
      </trkpt>
      <trkpt lat="47.97358" lon="-1.29348">
        <ele>69.83</ele>
        <time>2014-02-16T08:41:30Z</time>
      </trkpt>
      <trkpt lat="47.97359" lon="-1.29349">
        <ele>69.83</ele>
        <time>2014-02-16T08:41:31Z</time>
      </trkpt>
      <trkpt lat="47.97387" lon="-1.29371">
        <ele>69.83</ele>
        <time>2014-02-16T08:41:41Z</time>
      </trkpt>
      <trkpt lat="47.97424" lon="-1.29392">
        <ele>69.83</ele>
        <time>2014-02-16T08:41:53Z</time>
      </trkpt>
      <trkpt lat="47.97438" lon="-1.29403">
        <ele>70.31</ele>
        <time>2014-02-16T08:41:57Z</time>
      </trkpt>
      <trkpt lat="47.97472" lon="-1.29417">
        <ele>71.27</ele>
        <time>2014-02-16T08:42:05Z</time>
      </trkpt>
      <trkpt lat="47.97491" lon="-1.29418">
        <ele>71.76</ele>
        <time>2014-02-16T08:42:09Z</time>
      </trkpt>
      <trkpt lat="47.97575" lon="-1.29403">
        <ele>74.16</ele>
        <time>2014-02-16T08:42:27Z</time>
      </trkpt>
      <trkpt lat="47.97595" lon="-1.29399">
        <ele>74.64</ele>
        <time>2014-02-16T08:42:31Z</time>
      </trkpt>
      <trkpt lat="47.97599" lon="-1.29397">
        <ele>74.64</ele>
        <time>2014-02-16T08:42:32Z</time>
      </trkpt>
      <trkpt lat="47.97604" lon="-1.29396">
        <ele>74.64</ele>
        <time>2014-02-16T08:42:33Z</time>
      </trkpt>
      <trkpt lat="47.97628" lon="-1.29394">
        <ele>75.12</ele>
        <time>2014-02-16T08:42:38Z</time>
      </trkpt>
      <trkpt lat="47.97632" lon="-1.29395">
        <ele>75.12</ele>
        <time>2014-02-16T08:42:39Z</time>
      </trkpt>
      <trkpt lat="47.97637" lon="-1.29398">
        <ele>75.12</ele>
        <time>2014-02-16T08:42:40Z</time>
      </trkpt>
      <trkpt lat="47.97641" lon="-1.29402">
        <ele>75.12</ele>
        <time>2014-02-16T08:42:41Z</time>
      </trkpt>
      <trkpt lat="47.97644" lon="-1.29408">
        <ele>75.12</ele>
        <time>2014-02-16T08:42:42Z</time>
      </trkpt>
      <trkpt lat="47.97647" lon="-1.29415">
        <ele>75.12</ele>
        <time>2014-02-16T08:42:43Z</time>
      </trkpt>
      <trkpt lat="47.97648" lon="-1.29422">
        <ele>75.12</ele>
        <time>2014-02-16T08:42:44Z</time>
      </trkpt>
      <trkpt lat="47.97649" lon="-1.2943">
        <ele>75.12</ele>
        <time>2014-02-16T08:42:45Z</time>
      </trkpt>
      <trkpt lat="47.9766" lon="-1.29548">
        <ele>77.04</ele>
        <time>2014-02-16T08:43:01Z</time>
      </trkpt>
      <trkpt lat="47.97664" lon="-1.29652">
        <ele>78</ele>
        <time>2014-02-16T08:43:17Z</time>
      </trkpt>
      <trkpt lat="47.97666" lon="-1.29661">
        <ele>78</ele>
        <time>2014-02-16T08:43:29Z</time>
      </trkpt>
      <trkpt lat="47.97666" lon="-1.2966">
        <ele>78</ele>
        <time>2014-02-16T08:43:54Z</time>
      </trkpt>
      <trkpt lat="47.97666" lon="-1.29659">
        <ele>77.52</ele>
        <time>2014-02-16T08:44:13Z</time>
      </trkpt>
      <trkpt lat="47.97665" lon="-1.29656">
        <ele>78</ele>
        <time>2014-02-16T08:44:18Z</time>
      </trkpt>
      <trkpt lat="47.97665" lon="-1.29654">
        <ele>78.48</ele>
        <time>2014-02-16T08:44:19Z</time>
      </trkpt>
      <trkpt lat="47.97664" lon="-1.29651">
        <ele>78.48</ele>
        <time>2014-02-16T08:44:20Z</time>
      </trkpt>
      <trkpt lat="47.97662" lon="-1.29589">
        <ele>77.04</ele>
        <time>2014-02-16T08:44:30Z</time>
      </trkpt>
      <trkpt lat="47.97654" lon="-1.29474">
        <ele>76.08</ele>
        <time>2014-02-16T08:44:46Z</time>
      </trkpt>
      <trkpt lat="47.97645" lon="-1.29416">
        <ele>75.12</ele>
        <time>2014-02-16T08:44:54Z</time>
      </trkpt>
      <trkpt lat="47.97642" lon="-1.29409">
        <ele>75.12</ele>
        <time>2014-02-16T08:44:55Z</time>
      </trkpt>
      <trkpt lat="47.97639" lon="-1.29403">
        <ele>75.12</ele>
        <time>2014-02-16T08:44:56Z</time>
      </trkpt>
      <trkpt lat="47.97635" lon="-1.29398">
        <ele>75.12</ele>
        <time>2014-02-16T08:44:57Z</time>
      </trkpt>
      <trkpt lat="47.9763" lon="-1.29396">
        <ele>74.64</ele>
        <time>2014-02-16T08:44:58Z</time>
      </trkpt>
      <trkpt lat="47.97624" lon="-1.29395">
        <ele>74.64</ele>
        <time>2014-02-16T08:44:59Z</time>
      </trkpt>
      <trkpt lat="47.97619" lon="-1.29395">
        <ele>74.64</ele>
        <time>2014-02-16T08:45:00Z</time>
      </trkpt>
      <trkpt lat="47.97613" lon="-1.29396">
        <ele>74.16</ele>
        <time>2014-02-16T08:45:01Z</time>
      </trkpt>
      <trkpt lat="47.97608" lon="-1.29397">
        <ele>74.16</ele>
        <time>2014-02-16T08:45:02Z</time>
      </trkpt>
      <trkpt lat="47.97512" lon="-1.29416">
        <ele>72.24</ele>
        <time>2014-02-16T08:45:19Z</time>
      </trkpt>
      <trkpt lat="47.97444" lon="-1.29406">
        <ele>70.31</ele>
        <time>2014-02-16T08:45:31Z</time>
      </trkpt>
      <trkpt lat="47.97408" lon="-1.29383">
        <ele>69.83</ele>
        <time>2014-02-16T08:45:38Z</time>
      </trkpt>
      <trkpt lat="47.97404" lon="-1.29381">
        <ele>69.35</ele>
        <time>2014-02-16T08:45:39Z</time>
      </trkpt>
      <trkpt lat="47.974" lon="-1.29378">
        <ele>69.35</ele>
        <time>2014-02-16T08:45:40Z</time>
      </trkpt>
      <trkpt lat="47.9739" lon="-1.29371">
        <ele>68.87</ele>
        <time>2014-02-16T08:45:42Z</time>
      </trkpt>
      <trkpt lat="47.97361" lon="-1.29352">
        <ele>68.87</ele>
        <time>2014-02-16T08:45:48Z</time>
      </trkpt>
      <trkpt lat="47.97357" lon="-1.29351">
        <ele>68.87</ele>
        <time>2014-02-16T08:45:49Z</time>
      </trkpt>
      <trkpt lat="47.97353" lon="-1.29353">
        <ele>68.87</ele>
        <time>2014-02-16T08:45:50Z</time>
      </trkpt>
      <trkpt lat="47.97349" lon="-1.29358">
        <ele>68.87</ele>
        <time>2014-02-16T08:45:51Z</time>
      </trkpt>
      <trkpt lat="47.97347" lon="-1.29364">
        <ele>68.39</ele>
        <time>2014-02-16T08:45:52Z</time>
      </trkpt>
      <trkpt lat="47.97346" lon="-1.2937">
        <ele>68.39</ele>
        <time>2014-02-16T08:45:53Z</time>
      </trkpt>
      <trkpt lat="47.97345" lon="-1.29377">
        <ele>68.39</ele>
        <time>2014-02-16T08:45:54Z</time>
      </trkpt>
      <trkpt lat="47.97344" lon="-1.29384">
        <ele>68.39</ele>
        <time>2014-02-16T08:45:55Z</time>
      </trkpt>
      <trkpt lat="47.97328" lon="-1.29451">
        <ele>67.91</ele>
        <time>2014-02-16T08:46:04Z</time>
      </trkpt>
      <trkpt lat="47.97325" lon="-1.29457">
        <ele>67.91</ele>
        <time>2014-02-16T08:46:05Z</time>
      </trkpt>
      <trkpt lat="47.97321" lon="-1.29464">
        <ele>67.91</ele>
        <time>2014-02-16T08:46:06Z</time>
      </trkpt>
      <trkpt lat="47.97317" lon="-1.29469">
        <ele>68.39</ele>
        <time>2014-02-16T08:46:07Z</time>
      </trkpt>
      <trkpt lat="47.97312" lon="-1.29474">
        <ele>68.39</ele>
        <time>2014-02-16T08:46:08Z</time>
      </trkpt>
      <trkpt lat="47.97308" lon="-1.29478">
        <ele>67.91</ele>
        <time>2014-02-16T08:46:09Z</time>
      </trkpt>
      <trkpt lat="47.97303" lon="-1.29481">
        <ele>67.91</ele>
        <time>2014-02-16T08:46:10Z</time>
      </trkpt>
      <trkpt lat="47.97282" lon="-1.29496">
        <ele>68.87</ele>
        <time>2014-02-16T08:46:14Z</time>
      </trkpt>
      <trkpt lat="47.97278" lon="-1.295">
        <ele>67.91</ele>
        <time>2014-02-16T08:46:15Z</time>
      </trkpt>
      <trkpt lat="47.97274" lon="-1.29504">
        <ele>67.91</ele>
        <time>2014-02-16T08:46:16Z</time>
      </trkpt>
      <trkpt lat="47.9727" lon="-1.2951">
        <ele>67.91</ele>
        <time>2014-02-16T08:46:17Z</time>
      </trkpt>
      <trkpt lat="47.97267" lon="-1.29516">
        <ele>67.91</ele>
        <time>2014-02-16T08:46:18Z</time>
      </trkpt>
      <trkpt lat="47.97264" lon="-1.29523">
        <ele>67.91</ele>
        <time>2014-02-16T08:46:19Z</time>
      </trkpt>
      <trkpt lat="47.97262" lon="-1.29531">
        <ele>67.91</ele>
        <time>2014-02-16T08:46:20Z</time>
      </trkpt>
      <trkpt lat="47.9726" lon="-1.29539">
        <ele>67.91</ele>
        <time>2014-02-16T08:46:21Z</time>
      </trkpt>
      <trkpt lat="47.97231" lon="-1.29679">
        <ele>68.87</ele>
        <time>2014-02-16T08:46:39Z</time>
      </trkpt>
      <trkpt lat="47.97207" lon="-1.29793">
        <ele>70.79</ele>
        <time>2014-02-16T08:46:55Z</time>
      </trkpt>
      <trkpt lat="47.97194" lon="-1.29872">
        <ele>71.76</ele>
        <time>2014-02-16T08:47:06Z</time>
      </trkpt>
      <trkpt lat="47.97201" lon="-1.30009">
        <ele>73.2</ele>
        <time>2014-02-16T08:47:25Z</time>
      </trkpt>
      <trkpt lat="47.97204" lon="-1.30074">
        <ele>73.68</ele>
        <time>2014-02-16T08:47:34Z</time>
      </trkpt>
      <trkpt lat="47.97203" lon="-1.30089">
        <ele>73.68</ele>
        <time>2014-02-16T08:47:36Z</time>
      </trkpt>
      <trkpt lat="47.97189" lon="-1.30183">
        <ele>74.64</ele>
        <time>2014-02-16T08:47:50Z</time>
      </trkpt>
      <trkpt lat="47.97189" lon="-1.3019">
        <ele>74.64</ele>
        <time>2014-02-16T08:47:51Z</time>
      </trkpt>
      <trkpt lat="47.9719" lon="-1.30196">
        <ele>74.64</ele>
        <time>2014-02-16T08:47:52Z</time>
      </trkpt>
      <trkpt lat="47.97193" lon="-1.30201">
        <ele>75.12</ele>
        <time>2014-02-16T08:47:53Z</time>
      </trkpt>
      <trkpt lat="47.97196" lon="-1.30204">
        <ele>75.12</ele>
        <time>2014-02-16T08:47:54Z</time>
      </trkpt>
      <trkpt lat="47.97201" lon="-1.30206">
        <ele>75.12</ele>
        <time>2014-02-16T08:47:55Z</time>
      </trkpt>
      <trkpt lat="47.97205" lon="-1.30208">
        <ele>75.6</ele>
        <time>2014-02-16T08:47:56Z</time>
      </trkpt>
      <trkpt lat="47.9721" lon="-1.30209">
        <ele>75.6</ele>
        <time>2014-02-16T08:47:57Z</time>
      </trkpt>
      <trkpt lat="47.9729" lon="-1.3024">
        <ele>77.04</ele>
        <time>2014-02-16T08:48:14Z</time>
      </trkpt>
      <trkpt lat="47.97312" lon="-1.30255">
        <ele>77.04</ele>
        <time>2014-02-16T08:48:19Z</time>
      </trkpt>
      <trkpt lat="47.97316" lon="-1.30259">
        <ele>77.04</ele>
        <time>2014-02-16T08:48:20Z</time>
      </trkpt>
      <trkpt lat="47.9732" lon="-1.30265">
        <ele>77.04</ele>
        <time>2014-02-16T08:48:21Z</time>
      </trkpt>
      <trkpt lat="47.97323" lon="-1.3027">
        <ele>77.04</ele>
        <time>2014-02-16T08:48:22Z</time>
      </trkpt>
      <trkpt lat="47.97326" lon="-1.30277">
        <ele>77.04</ele>
        <time>2014-02-16T08:48:23Z</time>
      </trkpt>
      <trkpt lat="47.9733" lon="-1.30283">
        <ele>77.04</ele>
        <time>2014-02-16T08:48:24Z</time>
      </trkpt>
      <trkpt lat="47.97372" lon="-1.3038">
        <ele>76.08</ele>
        <time>2014-02-16T08:48:39Z</time>
      </trkpt>
      <trkpt lat="47.97377" lon="-1.30385">
        <ele>76.08</ele>
        <time>2014-02-16T08:48:40Z</time>
      </trkpt>
      <trkpt lat="47.97385" lon="-1.30394">
        <ele>76.08</ele>
        <time>2014-02-16T08:48:42Z</time>
      </trkpt>
      <trkpt lat="47.97471" lon="-1.30461">
        <ele>73.68</ele>
        <time>2014-02-16T08:48:59Z</time>
      </trkpt>
      <trkpt lat="47.97555" lon="-1.30526">
        <ele>70.79</ele>
        <time>2014-02-16T08:49:14Z</time>
      </trkpt>
      <trkpt lat="47.97616" lon="-1.30567">
        <ele>67.91</ele>
        <time>2014-02-16T08:49:23Z</time>
      </trkpt>
      <trkpt lat="47.977" lon="-1.30595">
        <ele>68.87</ele>
        <time>2014-02-16T08:49:35Z</time>
      </trkpt>
      <trkpt lat="47.97741" lon="-1.30605">
        <ele>72.24</ele>
        <time>2014-02-16T08:49:42Z</time>
      </trkpt>
      <trkpt lat="47.97752" lon="-1.30608">
        <ele>72.72</ele>
        <time>2014-02-16T08:49:44Z</time>
      </trkpt>
      <trkpt lat="47.97835" lon="-1.3064">
        <ele>75.6</ele>
        <time>2014-02-16T08:50:02Z</time>
      </trkpt>
      <trkpt lat="47.97906" lon="-1.30666">
        <ele>76.56</ele>
        <time>2014-02-16T08:50:17Z</time>
      </trkpt>
      <trkpt lat="47.97936" lon="-1.30673">
        <ele>77.04</ele>
        <time>2014-02-16T08:50:23Z</time>
      </trkpt>
      <trkpt lat="47.9802" lon="-1.30661">
        <ele>76.56</ele>
        <time>2014-02-16T08:50:39Z</time>
      </trkpt>
      <trkpt lat="47.98082" lon="-1.30649">
        <ele>77.04</ele>
        <time>2014-02-16T08:50:50Z</time>
      </trkpt>
      <trkpt lat="47.98175" lon="-1.30613">
        <ele>78</ele>
        <time>2014-02-16T08:51:07Z</time>
      </trkpt>
      <trkpt lat="47.98258" lon="-1.30563">
        <ele>78.48</ele>
        <time>2014-02-16T08:51:23Z</time>
      </trkpt>
      <trkpt lat="47.9834" lon="-1.30514">
        <ele>79.45</ele>
        <time>2014-02-16T08:51:39Z</time>
      </trkpt>
      <trkpt lat="47.98393" lon="-1.30492">
        <ele>80.41</ele>
        <time>2014-02-16T08:51:49Z</time>
      </trkpt>
      <trkpt lat="47.98472" lon="-1.30489">
        <ele>81.85</ele>
        <time>2014-02-16T08:52:04Z</time>
      </trkpt>
      <trkpt lat="47.98569" lon="-1.30491">
        <ele>83.77</ele>
        <time>2014-02-16T08:52:22Z</time>
      </trkpt>
      <trkpt lat="47.98664" lon="-1.30493">
        <ele>85.21</ele>
        <time>2014-02-16T08:52:40Z</time>
      </trkpt>
      <trkpt lat="47.98755" lon="-1.30495">
        <ele>84.25</ele>
        <time>2014-02-16T08:52:56Z</time>
      </trkpt>
      <trkpt lat="47.98826" lon="-1.30498">
        <ele>84.25</ele>
        <time>2014-02-16T08:53:08Z</time>
      </trkpt>
      <trkpt lat="47.98918" lon="-1.30501">
        <ele>87.62</ele>
        <time>2014-02-16T08:53:24Z</time>
      </trkpt>
      <trkpt lat="47.9903" lon="-1.30526">
        <ele>88.58</ele>
        <time>2014-02-16T08:53:43Z</time>
      </trkpt>
      <trkpt lat="47.99099" lon="-1.30538">
        <ele>85.21</ele>
        <time>2014-02-16T08:53:53Z</time>
      </trkpt>
      <trkpt lat="47.99172" lon="-1.30543">
        <ele>82.33</ele>
        <time>2014-02-16T08:54:02Z</time>
      </trkpt>
      <trkpt lat="47.99248" lon="-1.30547">
        <ele>79.45</ele>
        <time>2014-02-16T08:54:13Z</time>
      </trkpt>
      <trkpt lat="47.99326" lon="-1.30551">
        <ele>76.08</ele>
        <time>2014-02-16T08:54:22Z</time>
      </trkpt>
      <trkpt lat="47.99353" lon="-1.3055">
        <ele>75.6</ele>
        <time>2014-02-16T08:54:25Z</time>
      </trkpt>
      <trkpt lat="47.99362" lon="-1.30547">
        <ele>75.6</ele>
        <time>2014-02-16T08:54:26Z</time>
      </trkpt>
      <trkpt lat="47.9937" lon="-1.30543">
        <ele>75.6</ele>
        <time>2014-02-16T08:54:27Z</time>
      </trkpt>
      <trkpt lat="47.99462" lon="-1.30471">
        <ele>77.04</ele>
        <time>2014-02-16T08:54:40Z</time>
      </trkpt>
      <trkpt lat="47.99569" lon="-1.30383">
        <ele>76.08</ele>
        <time>2014-02-16T08:54:56Z</time>
      </trkpt>
      <trkpt lat="47.99653" lon="-1.30299">
        <ele>72.72</ele>
        <time>2014-02-16T08:55:11Z</time>
      </trkpt>
      <trkpt lat="47.9972" lon="-1.30201">
        <ele>69.83</ele>
        <time>2014-02-16T08:55:24Z</time>
      </trkpt>
      <trkpt lat="47.99804" lon="-1.30148">
        <ele>66.95</ele>
        <time>2014-02-16T08:55:36Z</time>
      </trkpt>
      <trkpt lat="47.99898" lon="-1.30102">
        <ele>64.55</ele>
        <time>2014-02-16T08:55:50Z</time>
      </trkpt>
      <trkpt lat="47.99925" lon="-1.3009">
        <ele>63.58</ele>
        <time>2014-02-16T08:55:54Z</time>
      </trkpt>
      <trkpt lat="47.99991" lon="-1.30058">
        <ele>61.66</ele>
        <time>2014-02-16T08:56:04Z</time>
      </trkpt>
      <trkpt lat="47.99996" lon="-1.30057">
        <ele>61.66</ele>
        <time>2014-02-16T08:56:05Z</time>
      </trkpt>
      <trkpt lat="48.00002" lon="-1.30059">
        <ele>61.66</ele>
        <time>2014-02-16T08:56:06Z</time>
      </trkpt>
      <trkpt lat="48.00006" lon="-1.30065">
        <ele>61.18</ele>
        <time>2014-02-16T08:56:07Z</time>
      </trkpt>
      <trkpt lat="48.00009" lon="-1.30073">
        <ele>61.18</ele>
        <time>2014-02-16T08:56:08Z</time>
      </trkpt>
      <trkpt lat="48.0001" lon="-1.30081">
        <ele>61.18</ele>
        <time>2014-02-16T08:56:09Z</time>
      </trkpt>
      <trkpt lat="48.00011" lon="-1.30089">
        <ele>61.18</ele>
        <time>2014-02-16T08:56:10Z</time>
      </trkpt>
      <trkpt lat="48.00011" lon="-1.30098">
        <ele>61.66</ele>
        <time>2014-02-16T08:56:11Z</time>
      </trkpt>
      <trkpt lat="48.0002" lon="-1.30222">
        <ele>63.58</ele>
        <time>2014-02-16T08:56:26Z</time>
      </trkpt>
      <trkpt lat="48.0002" lon="-1.3023">
        <ele>63.58</ele>
        <time>2014-02-16T08:56:27Z</time>
      </trkpt>
      <trkpt lat="48.0002" lon="-1.30238">
        <ele>64.07</ele>
        <time>2014-02-16T08:56:28Z</time>
      </trkpt>
      <trkpt lat="48.00022" lon="-1.3027">
        <ele>64.55</ele>
        <time>2014-02-16T08:56:32Z</time>
      </trkpt>
      <trkpt lat="48.0002" lon="-1.30386">
        <ele>65.51</ele>
        <time>2014-02-16T08:56:47Z</time>
      </trkpt>
      <trkpt lat="47.99987" lon="-1.30499">
        <ele>65.99</ele>
        <time>2014-02-16T08:57:03Z</time>
      </trkpt>
      <trkpt lat="47.99959" lon="-1.30602">
        <ele>65.03</ele>
        <time>2014-02-16T08:57:17Z</time>
      </trkpt>
      <trkpt lat="47.99957" lon="-1.3061">
        <ele>65.03</ele>
        <time>2014-02-16T08:57:18Z</time>
      </trkpt>
      <trkpt lat="47.99956" lon="-1.30618">
        <ele>65.03</ele>
        <time>2014-02-16T08:57:19Z</time>
      </trkpt>
      <trkpt lat="47.99955" lon="-1.30626">
        <ele>65.03</ele>
        <time>2014-02-16T08:57:20Z</time>
      </trkpt>
      <trkpt lat="47.99955" lon="-1.30635">
        <ele>64.55</ele>
        <time>2014-02-16T08:57:21Z</time>
      </trkpt>
      <trkpt lat="47.99956" lon="-1.30643">
        <ele>64.55</ele>
        <time>2014-02-16T08:57:22Z</time>
      </trkpt>
      <trkpt lat="47.99957" lon="-1.30661">
        <ele>64.07</ele>
        <time>2014-02-16T08:57:24Z</time>
      </trkpt>
      <trkpt lat="47.99994" lon="-1.30795">
        <ele>61.66</ele>
        <time>2014-02-16T08:57:40Z</time>
      </trkpt>
      <trkpt lat="48.00002" lon="-1.30828">
        <ele>61.18</ele>
        <time>2014-02-16T08:57:44Z</time>
      </trkpt>
      <trkpt lat="48.00002" lon="-1.30837">
        <ele>61.18</ele>
        <time>2014-02-16T08:57:45Z</time>
      </trkpt>
      <trkpt lat="47.99997" lon="-1.30981">
        <ele>59.74</ele>
        <time>2014-02-16T08:58:01Z</time>
      </trkpt>
      <trkpt lat="47.9999" lon="-1.31112">
        <ele>59.74</ele>
        <time>2014-02-16T08:58:16Z</time>
      </trkpt>
      <trkpt lat="47.99983" lon="-1.31254">
        <ele>59.26</ele>
        <time>2014-02-16T08:58:32Z</time>
      </trkpt>
      <trkpt lat="47.99974" lon="-1.31418">
        <ele>59.74</ele>
        <time>2014-02-16T08:58:52Z</time>
      </trkpt>
      <trkpt lat="47.99961" lon="-1.31558">
        <ele>60.22</ele>
        <time>2014-02-16T08:59:09Z</time>
      </trkpt>
      <trkpt lat="47.99953" lon="-1.31636">
        <ele>61.18</ele>
        <time>2014-02-16T08:59:19Z</time>
      </trkpt>
      <trkpt lat="47.99948" lon="-1.31658">
        <ele>61.18</ele>
        <time>2014-02-16T08:59:22Z</time>
      </trkpt>
      <trkpt lat="47.99937" lon="-1.31689">
        <ele>62.14</ele>
        <time>2014-02-16T08:59:27Z</time>
      </trkpt>
      <trkpt lat="47.99935" lon="-1.31695">
        <ele>62.14</ele>
        <time>2014-02-16T08:59:28Z</time>
      </trkpt>
      <trkpt lat="47.99922" lon="-1.31716">
        <ele>62.62</ele>
        <time>2014-02-16T08:59:32Z</time>
      </trkpt>
      <trkpt lat="47.99868" lon="-1.31777">
        <ele>63.1</ele>
        <time>2014-02-16T08:59:46Z</time>
      </trkpt>
      <trkpt lat="47.99803" lon="-1.31865">
        <ele>62.62</ele>
        <time>2014-02-16T09:00:04Z</time>
      </trkpt>
      <trkpt lat="47.99783" lon="-1.31957">
        <ele>62.62</ele>
        <time>2014-02-16T09:00:17Z</time>
      </trkpt>
      <trkpt lat="47.99791" lon="-1.32047">
        <ele>63.58</ele>
        <time>2014-02-16T09:00:29Z</time>
      </trkpt>
      <trkpt lat="47.99792" lon="-1.32054">
        <ele>63.58</ele>
        <time>2014-02-16T09:00:30Z</time>
      </trkpt>
      <trkpt lat="47.99793" lon="-1.32061">
        <ele>63.58</ele>
        <time>2014-02-16T09:00:31Z</time>
      </trkpt>
      <trkpt lat="47.9981" lon="-1.32193">
        <ele>65.03</ele>
        <time>2014-02-16T09:00:49Z</time>
      </trkpt>
      <trkpt lat="47.9984" lon="-1.32319">
        <ele>64.55</ele>
        <time>2014-02-16T09:01:06Z</time>
      </trkpt>
      <trkpt lat="47.99871" lon="-1.32451">
        <ele>63.1</ele>
        <time>2014-02-16T09:01:21Z</time>
      </trkpt>
      <trkpt lat="47.99896" lon="-1.32573">
        <ele>65.03</ele>
        <time>2014-02-16T09:01:36Z</time>
      </trkpt>
      <trkpt lat="47.999" lon="-1.32661">
        <ele>67.43</ele>
        <time>2014-02-16T09:01:48Z</time>
      </trkpt>
      <trkpt lat="47.999" lon="-1.32738">
        <ele>69.83</ele>
        <time>2014-02-16T09:01:59Z</time>
      </trkpt>
      <trkpt lat="47.999" lon="-1.32745">
        <ele>70.31</ele>
        <time>2014-02-16T09:02:00Z</time>
      </trkpt>
      <trkpt lat="47.999" lon="-1.32752">
        <ele>70.31</ele>
        <time>2014-02-16T09:02:01Z</time>
      </trkpt>
      <trkpt lat="47.99901" lon="-1.32815">
        <ele>72.72</ele>
        <time>2014-02-16T09:02:10Z</time>
      </trkpt>
      <trkpt lat="47.99906" lon="-1.32912">
        <ele>75.6</ele>
        <time>2014-02-16T09:02:25Z</time>
      </trkpt>
      <trkpt lat="47.9991" lon="-1.32923">
        <ele>76.08</ele>
        <time>2014-02-16T09:02:28Z</time>
      </trkpt>
      <trkpt lat="47.99913" lon="-1.32925">
        <ele>76.08</ele>
        <time>2014-02-16T09:02:29Z</time>
      </trkpt>
      <trkpt lat="47.99916" lon="-1.32926">
        <ele>76.08</ele>
        <time>2014-02-16T09:02:30Z</time>
      </trkpt>
      <trkpt lat="47.99919" lon="-1.32925">
        <ele>76.08</ele>
        <time>2014-02-16T09:02:31Z</time>
      </trkpt>
      <trkpt lat="47.99923" lon="-1.32924">
        <ele>76.56</ele>
        <time>2014-02-16T09:02:32Z</time>
      </trkpt>
      <trkpt lat="47.99927" lon="-1.32922">
        <ele>76.08</ele>
        <time>2014-02-16T09:02:33Z</time>
      </trkpt>
      <trkpt lat="47.99932" lon="-1.3292">
        <ele>76.08</ele>
        <time>2014-02-16T09:02:34Z</time>
      </trkpt>
      <trkpt lat="47.99936" lon="-1.32917">
        <ele>76.08</ele>
        <time>2014-02-16T09:02:35Z</time>
      </trkpt>
      <trkpt lat="48.00017" lon="-1.32878">
        <ele>75.12</ele>
        <time>2014-02-16T09:02:53Z</time>
      </trkpt>
      <trkpt lat="48.00066" lon="-1.32863">
        <ele>76.08</ele>
        <time>2014-02-16T09:03:03Z</time>
      </trkpt>
      <trkpt lat="48.00086" lon="-1.32864">
        <ele>76.56</ele>
        <time>2014-02-16T09:03:07Z</time>
      </trkpt>
      <trkpt lat="48.00166" lon="-1.32896">
        <ele>78.48</ele>
        <time>2014-02-16T09:03:23Z</time>
      </trkpt>
      <trkpt lat="48.00242" lon="-1.32915">
        <ele>79.45</ele>
        <time>2014-02-16T09:03:38Z</time>
      </trkpt>
      <trkpt lat="48.00252" lon="-1.32912">
        <ele>79.93</ele>
        <time>2014-02-16T09:03:40Z</time>
      </trkpt>
      <trkpt lat="48.00297" lon="-1.32902">
        <ele>79.45</ele>
        <time>2014-02-16T09:03:50Z</time>
      </trkpt>
      <trkpt lat="48.00336" lon="-1.32888">
        <ele>78.48</ele>
        <time>2014-02-16T09:04:00Z</time>
      </trkpt>
      <trkpt lat="48.00385" lon="-1.32861">
        <ele>75.6</ele>
        <time>2014-02-16T09:04:09Z</time>
      </trkpt>
      <trkpt lat="48.00424" lon="-1.3284">
        <ele>72.24</ele>
        <time>2014-02-16T09:04:14Z</time>
      </trkpt>
      <trkpt lat="48.00468" lon="-1.32817">
        <ele>68.87</ele>
        <time>2014-02-16T09:04:19Z</time>
      </trkpt>
      <trkpt lat="48.00556" lon="-1.32783">
        <ele>66.47</ele>
        <time>2014-02-16T09:04:31Z</time>
      </trkpt>
      <trkpt lat="48.00588" lon="-1.3278">
        <ele>66.47</ele>
        <time>2014-02-16T09:04:42Z</time>
      </trkpt>
      <trkpt lat="48.00592" lon="-1.32781">
        <ele>66.95</ele>
        <time>2014-02-16T09:04:45Z</time>
      </trkpt>
      <trkpt lat="48.00594" lon="-1.32783">
        <ele>66.95</ele>
        <time>2014-02-16T09:04:46Z</time>
      </trkpt>
      <trkpt lat="48.00595" lon="-1.32784">
        <ele>66.95</ele>
        <time>2014-02-16T09:04:47Z</time>
      </trkpt>
      <trkpt lat="48.00596" lon="-1.32784">
        <ele>66.95</ele>
        <time>2014-02-16T09:04:48Z</time>
      </trkpt>
      <trkpt lat="48.00597" lon="-1.32784">
        <ele>66.95</ele>
        <time>2014-02-16T09:04:49Z</time>
      </trkpt>
      <trkpt lat="48.00599" lon="-1.32783">
        <ele>66.95</ele>
        <time>2014-02-16T09:04:50Z</time>
      </trkpt>
      <trkpt lat="48.00602" lon="-1.32783">
        <ele>66.95</ele>
        <time>2014-02-16T09:04:51Z</time>
      </trkpt>
      <trkpt lat="48.00605" lon="-1.32783">
        <ele>66.95</ele>
        <time>2014-02-16T09:04:52Z</time>
      </trkpt>
      <trkpt lat="48.00608" lon="-1.32783">
        <ele>66.95</ele>
        <time>2014-02-16T09:04:53Z</time>
      </trkpt>
      <trkpt lat="48.00611" lon="-1.32785">
        <ele>66.95</ele>
        <time>2014-02-16T09:04:54Z</time>
      </trkpt>
      <trkpt lat="48.00614" lon="-1.32785">
        <ele>66.95</ele>
        <time>2014-02-16T09:04:55Z</time>
      </trkpt>
      <trkpt lat="48.00618" lon="-1.32786">
        <ele>66.95</ele>
        <time>2014-02-16T09:04:56Z</time>
      </trkpt>
      <trkpt lat="48.00621" lon="-1.32787">
        <ele>67.43</ele>
        <time>2014-02-16T09:04:57Z</time>
      </trkpt>
      <trkpt lat="48.00669" lon="-1.32811">
        <ele>68.39</ele>
        <time>2014-02-16T09:05:11Z</time>
      </trkpt>
      <trkpt lat="48.00673" lon="-1.32813">
        <ele>68.39</ele>
        <time>2014-02-16T09:05:12Z</time>
      </trkpt>
      <trkpt lat="48.00677" lon="-1.32816">
        <ele>68.87</ele>
        <time>2014-02-16T09:05:13Z</time>
      </trkpt>
      <trkpt lat="48.00682" lon="-1.32816">
        <ele>68.87</ele>
        <time>2014-02-16T09:05:14Z</time>
      </trkpt>
      <trkpt lat="48.00686" lon="-1.32818">
        <ele>68.87</ele>
        <time>2014-02-16T09:05:15Z</time>
      </trkpt>
      <trkpt lat="48.00699" lon="-1.32819">
        <ele>68.87</ele>
        <time>2014-02-16T09:05:18Z</time>
      </trkpt>
      <trkpt lat="48.00712" lon="-1.32818">
        <ele>68.87</ele>
        <time>2014-02-16T09:05:21Z</time>
      </trkpt>
      <trkpt lat="48.00716" lon="-1.32816">
        <ele>68.39</ele>
        <time>2014-02-16T09:05:22Z</time>
      </trkpt>
      <trkpt lat="48.00797" lon="-1.32762">
        <ele>65.51</ele>
        <time>2014-02-16T09:05:38Z</time>
      </trkpt>
      <trkpt lat="48.00885" lon="-1.32719">
        <ele>62.14</ele>
        <time>2014-02-16T09:05:51Z</time>
      </trkpt>
      <trkpt lat="48.00901" lon="-1.32717">
        <ele>61.18</ele>
        <time>2014-02-16T09:05:53Z</time>
      </trkpt>
      <trkpt lat="48.00993" lon="-1.32704">
        <ele>59.26</ele>
        <time>2014-02-16T09:06:05Z</time>
      </trkpt>
      <trkpt lat="48.01" lon="-1.32704">
        <ele>58.78</ele>
        <time>2014-02-16T09:06:06Z</time>
      </trkpt>
      <trkpt lat="48.01008" lon="-1.32703">
        <ele>58.78</ele>
        <time>2014-02-16T09:06:07Z</time>
      </trkpt>
      <trkpt lat="48.01016" lon="-1.32702">
        <ele>58.3</ele>
        <time>2014-02-16T09:06:08Z</time>
      </trkpt>
      <trkpt lat="48.01024" lon="-1.32701">
        <ele>58.3</ele>
        <time>2014-02-16T09:06:09Z</time>
      </trkpt>
      <trkpt lat="48.01106" lon="-1.32692">
        <ele>54.93</ele>
        <time>2014-02-16T09:06:19Z</time>
      </trkpt>
      <trkpt lat="48.0116" lon="-1.32678">
        <ele>54.45</ele>
        <time>2014-02-16T09:06:26Z</time>
      </trkpt>
      <trkpt lat="48.01166" lon="-1.32674">
        <ele>54.93</ele>
        <time>2014-02-16T09:06:27Z</time>
      </trkpt>
      <trkpt lat="48.01176" lon="-1.32664">
        <ele>55.41</ele>
        <time>2014-02-16T09:06:29Z</time>
      </trkpt>
      <trkpt lat="48.01181" lon="-1.32659">
        <ele>55.41</ele>
        <time>2014-02-16T09:06:30Z</time>
      </trkpt>
      <trkpt lat="48.01185" lon="-1.32653">
        <ele>55.89</ele>
        <time>2014-02-16T09:06:31Z</time>
      </trkpt>
      <trkpt lat="48.01188" lon="-1.32646">
        <ele>55.89</ele>
        <time>2014-02-16T09:06:32Z</time>
      </trkpt>
      <trkpt lat="48.01191" lon="-1.32639">
        <ele>56.37</ele>
        <time>2014-02-16T09:06:33Z</time>
      </trkpt>
      <trkpt lat="48.01193" lon="-1.32632">
        <ele>56.86</ele>
        <time>2014-02-16T09:06:34Z</time>
      </trkpt>
      <trkpt lat="48.01195" lon="-1.32624">
        <ele>56.86</ele>
        <time>2014-02-16T09:06:35Z</time>
      </trkpt>
      <trkpt lat="48.01196" lon="-1.32617">
        <ele>56.86</ele>
        <time>2014-02-16T09:06:36Z</time>
      </trkpt>
      <trkpt lat="48.01197" lon="-1.32609">
        <ele>57.34</ele>
        <time>2014-02-16T09:06:37Z</time>
      </trkpt>
      <trkpt lat="48.01198" lon="-1.32601">
        <ele>57.34</ele>
        <time>2014-02-16T09:06:38Z</time>
      </trkpt>
      <trkpt lat="48.01198" lon="-1.32593">
        <ele>57.82</ele>
        <time>2014-02-16T09:06:39Z</time>
      </trkpt>
      <trkpt lat="48.01195" lon="-1.32529">
        <ele>61.18</ele>
        <time>2014-02-16T09:06:48Z</time>
      </trkpt>
      <trkpt lat="48.01196" lon="-1.32503">
        <ele>62.14</ele>
        <time>2014-02-16T09:06:52Z</time>
      </trkpt>
      <trkpt lat="48.01195" lon="-1.32497">
        <ele>62.62</ele>
        <time>2014-02-16T09:06:53Z</time>
      </trkpt>
      <trkpt lat="48.01196" lon="-1.32491">
        <ele>63.1</ele>
        <time>2014-02-16T09:06:54Z</time>
      </trkpt>
      <trkpt lat="48.01197" lon="-1.32478">
        <ele>63.58</ele>
        <time>2014-02-16T09:06:56Z</time>
      </trkpt>
      <trkpt lat="48.012" lon="-1.32466">
        <ele>64.07</ele>
        <time>2014-02-16T09:06:58Z</time>
      </trkpt>
      <trkpt lat="48.01204" lon="-1.32455">
        <ele>65.03</ele>
        <time>2014-02-16T09:07:00Z</time>
      </trkpt>
      <trkpt lat="48.01206" lon="-1.3245">
        <ele>65.03</ele>
        <time>2014-02-16T09:07:01Z</time>
      </trkpt>
      <trkpt lat="48.01226" lon="-1.32409">
        <ele>67.91</ele>
        <time>2014-02-16T09:07:09Z</time>
      </trkpt>
      <trkpt lat="48.01229" lon="-1.324">
        <ele>68.87</ele>
        <time>2014-02-16T09:07:11Z</time>
      </trkpt>
      <trkpt lat="48.01254" lon="-1.3236">
        <ele>72.24</ele>
        <time>2014-02-16T09:07:21Z</time>
      </trkpt>
      <trkpt lat="48.01293" lon="-1.32346">
        <ele>75.12</ele>
        <time>2014-02-16T09:07:31Z</time>
      </trkpt>
      <trkpt lat="48.01329" lon="-1.3234">
        <ele>78.48</ele>
        <time>2014-02-16T09:07:40Z</time>
      </trkpt>
      <trkpt lat="48.01371" lon="-1.32332">
        <ele>81.37</ele>
        <time>2014-02-16T09:07:51Z</time>
      </trkpt>
      <trkpt lat="48.01437" lon="-1.32341">
        <ele>82.81</ele>
        <time>2014-02-16T09:08:05Z</time>
      </trkpt>
      <trkpt lat="48.01447" lon="-1.32344">
        <ele>83.29</ele>
        <time>2014-02-16T09:08:07Z</time>
      </trkpt>
      <trkpt lat="48.01532" lon="-1.32349">
        <ele>82.81</ele>
        <time>2014-02-16T09:08:22Z</time>
      </trkpt>
      <trkpt lat="48.01538" lon="-1.32348">
        <ele>82.81</ele>
        <time>2014-02-16T09:08:23Z</time>
      </trkpt>
      <trkpt lat="48.0163" lon="-1.3233">
        <ele>82.33</ele>
        <time>2014-02-16T09:08:40Z</time>
      </trkpt>
      <trkpt lat="48.01638" lon="-1.32329">
        <ele>82.33</ele>
        <time>2014-02-16T09:08:42Z</time>
      </trkpt>
      <trkpt lat="48.01642" lon="-1.32329">
        <ele>82.33</ele>
        <time>2014-02-16T09:08:43Z</time>
      </trkpt>
      <trkpt lat="48.01646" lon="-1.32329">
        <ele>82.33</ele>
        <time>2014-02-16T09:08:44Z</time>
      </trkpt>
      <trkpt lat="48.01649" lon="-1.32332">
        <ele>82.33</ele>
        <time>2014-02-16T09:08:45Z</time>
      </trkpt>
      <trkpt lat="48.01652" lon="-1.32335">
        <ele>82.81</ele>
        <time>2014-02-16T09:08:46Z</time>
      </trkpt>
      <trkpt lat="48.01654" lon="-1.3234">
        <ele>82.81</ele>
        <time>2014-02-16T09:08:47Z</time>
      </trkpt>
      <trkpt lat="48.01655" lon="-1.32345">
        <ele>82.81</ele>
        <time>2014-02-16T09:08:48Z</time>
      </trkpt>
      <trkpt lat="48.01656" lon="-1.3235">
        <ele>82.81</ele>
        <time>2014-02-16T09:08:49Z</time>
      </trkpt>
      <trkpt lat="48.01672" lon="-1.32407">
        <ele>83.29</ele>
        <time>2014-02-16T09:09:01Z</time>
      </trkpt>
      <trkpt lat="48.01694" lon="-1.32503">
        <ele>85.21</ele>
        <time>2014-02-16T09:09:18Z</time>
      </trkpt>
      <trkpt lat="48.01716" lon="-1.326">
        <ele>87.14</ele>
        <time>2014-02-16T09:09:35Z</time>
      </trkpt>
      <trkpt lat="48.01743" lon="-1.32668">
        <ele>87.14</ele>
        <time>2014-02-16T09:09:49Z</time>
      </trkpt>
      <trkpt lat="48.01753" lon="-1.32695">
        <ele>86.66</ele>
        <time>2014-02-16T09:09:54Z</time>
      </trkpt>
      <trkpt lat="48.01755" lon="-1.327">
        <ele>86.66</ele>
        <time>2014-02-16T09:09:55Z</time>
      </trkpt>
      <trkpt lat="48.01769" lon="-1.32784">
        <ele>83.77</ele>
        <time>2014-02-16T09:10:08Z</time>
      </trkpt>
      <trkpt lat="48.01772" lon="-1.32815">
        <ele>81.37</ele>
        <time>2014-02-16T09:10:12Z</time>
      </trkpt>
      <trkpt lat="48.01774" lon="-1.32824">
        <ele>80.41</ele>
        <time>2014-02-16T09:10:13Z</time>
      </trkpt>
      <trkpt lat="48.01786" lon="-1.3287">
        <ele>77.04</ele>
        <time>2014-02-16T09:10:18Z</time>
      </trkpt>
      <trkpt lat="48.01797" lon="-1.3292">
        <ele>73.68</ele>
        <time>2014-02-16T09:10:23Z</time>
      </trkpt>
      <trkpt lat="48.01796" lon="-1.32977">
        <ele>69.83</ele>
        <time>2014-02-16T09:10:28Z</time>
      </trkpt>
      <trkpt lat="48.01793" lon="-1.33025">
        <ele>66.47</ele>
        <time>2014-02-16T09:10:32Z</time>
      </trkpt>
      <trkpt lat="48.01794" lon="-1.33107">
        <ele>63.1</ele>
        <time>2014-02-16T09:10:39Z</time>
      </trkpt>
      <trkpt lat="48.018" lon="-1.33197">
        <ele>60.22</ele>
        <time>2014-02-16T09:10:47Z</time>
      </trkpt>
      <trkpt lat="48.01805" lon="-1.3326">
        <ele>58.78</ele>
        <time>2014-02-16T09:10:56Z</time>
      </trkpt>
      <trkpt lat="48.01806" lon="-1.33264">
        <ele>58.78</ele>
        <time>2014-02-16T09:10:58Z</time>
      </trkpt>
      <trkpt lat="48.01805" lon="-1.33265">
        <ele>58.78</ele>
        <time>2014-02-16T09:10:59Z</time>
      </trkpt>
      <trkpt lat="48.01805" lon="-1.3326">
        <ele>58.78</ele>
        <time>2014-02-16T09:11:03Z</time>
      </trkpt>
      <trkpt lat="48.01808" lon="-1.33251">
        <ele>58.78</ele>
        <time>2014-02-16T09:11:07Z</time>
      </trkpt>
      <trkpt lat="48.01811" lon="-1.3325">
        <ele>59.26</ele>
        <time>2014-02-16T09:11:08Z</time>
      </trkpt>
      <trkpt lat="48.01815" lon="-1.3325">
        <ele>59.26</ele>
        <time>2014-02-16T09:11:09Z</time>
      </trkpt>
      <trkpt lat="48.01877" lon="-1.33259">
        <ele>59.74</ele>
        <time>2014-02-16T09:11:22Z</time>
      </trkpt>
      <trkpt lat="48.01926" lon="-1.33277">
        <ele>60.22</ele>
        <time>2014-02-16T09:11:32Z</time>
      </trkpt>
      <trkpt lat="48.01994" lon="-1.33308">
        <ele>61.66</ele>
        <time>2014-02-16T09:11:46Z</time>
      </trkpt>
      <trkpt lat="48.0207" lon="-1.33334">
        <ele>59.74</ele>
        <time>2014-02-16T09:12:00Z</time>
      </trkpt>
      <trkpt lat="48.02077" lon="-1.33338">
        <ele>59.74</ele>
        <time>2014-02-16T09:12:01Z</time>
      </trkpt>
      <trkpt lat="48.02082" lon="-1.33344">
        <ele>59.26</ele>
        <time>2014-02-16T09:12:02Z</time>
      </trkpt>
      <trkpt lat="48.02086" lon="-1.33352">
        <ele>59.26</ele>
        <time>2014-02-16T09:12:03Z</time>
      </trkpt>
      <trkpt lat="48.02089" lon="-1.33362">
        <ele>58.78</ele>
        <time>2014-02-16T09:12:04Z</time>
      </trkpt>
      <trkpt lat="48.02091" lon="-1.33372">
        <ele>58.3</ele>
        <time>2014-02-16T09:12:05Z</time>
      </trkpt>
      <trkpt lat="48.02093" lon="-1.33382">
        <ele>58.3</ele>
        <time>2014-02-16T09:12:06Z</time>
      </trkpt>
      <trkpt lat="48.02094" lon="-1.33393">
        <ele>57.82</ele>
        <time>2014-02-16T09:12:07Z</time>
      </trkpt>
      <trkpt lat="48.02095" lon="-1.33403">
        <ele>57.82</ele>
        <time>2014-02-16T09:12:08Z</time>
      </trkpt>
      <trkpt lat="48.02094" lon="-1.33434">
        <ele>57.34</ele>
        <time>2014-02-16T09:12:11Z</time>
      </trkpt>
      <trkpt lat="48.02093" lon="-1.33445">
        <ele>56.86</ele>
        <time>2014-02-16T09:12:12Z</time>
      </trkpt>
      <trkpt lat="48.02078" lon="-1.33526">
        <ele>54.93</ele>
        <time>2014-02-16T09:12:20Z</time>
      </trkpt>
      <trkpt lat="48.02063" lon="-1.33647">
        <ele>53.49</ele>
        <time>2014-02-16T09:12:33Z</time>
      </trkpt>
      <trkpt lat="48.02061" lon="-1.33785">
        <ele>53.01</ele>
        <time>2014-02-16T09:12:49Z</time>
      </trkpt>
      <trkpt lat="48.02076" lon="-1.33883">
        <ele>53.01</ele>
        <time>2014-02-16T09:13:01Z</time>
      </trkpt>
      <trkpt lat="48.02083" lon="-1.33924">
        <ele>52.53</ele>
        <time>2014-02-16T09:13:06Z</time>
      </trkpt>
      <trkpt lat="48.02099" lon="-1.33984">
        <ele>52.53</ele>
        <time>2014-02-16T09:13:14Z</time>
      </trkpt>
      <trkpt lat="48.02111" lon="-1.34037">
        <ele>52.05</ele>
        <time>2014-02-16T09:13:21Z</time>
      </trkpt>
      <trkpt lat="48.02114" lon="-1.34042">
        <ele>52.05</ele>
        <time>2014-02-16T09:13:22Z</time>
      </trkpt>
      <trkpt lat="48.02118" lon="-1.34046">
        <ele>52.05</ele>
        <time>2014-02-16T09:13:23Z</time>
      </trkpt>
      <trkpt lat="48.02122" lon="-1.34047">
        <ele>52.53</ele>
        <time>2014-02-16T09:13:24Z</time>
      </trkpt>
      <trkpt lat="48.02126" lon="-1.34049">
        <ele>52.53</ele>
        <time>2014-02-16T09:13:25Z</time>
      </trkpt>
      <trkpt lat="48.02165" lon="-1.34053">
        <ele>53.49</ele>
        <time>2014-02-16T09:13:33Z</time>
      </trkpt>
      <trkpt lat="48.02169" lon="-1.34052">
        <ele>53.97</ele>
        <time>2014-02-16T09:13:34Z</time>
      </trkpt>
      <trkpt lat="48.02174" lon="-1.3405">
        <ele>53.97</ele>
        <time>2014-02-16T09:13:35Z</time>
      </trkpt>
      <trkpt lat="48.02179" lon="-1.34047">
        <ele>53.97</ele>
        <time>2014-02-16T09:13:36Z</time>
      </trkpt>
      <trkpt lat="48.02183" lon="-1.34044">
        <ele>53.97</ele>
        <time>2014-02-16T09:13:37Z</time>
      </trkpt>
      <trkpt lat="48.02187" lon="-1.3404">
        <ele>53.97</ele>
        <time>2014-02-16T09:13:38Z</time>
      </trkpt>
      <trkpt lat="48.02191" lon="-1.34036">
        <ele>54.45</ele>
        <time>2014-02-16T09:13:39Z</time>
      </trkpt>
      <trkpt lat="48.02237" lon="-1.33979">
        <ele>55.41</ele>
        <time>2014-02-16T09:13:51Z</time>
      </trkpt>
      <trkpt lat="48.02291" lon="-1.33914">
        <ele>53.97</ele>
        <time>2014-02-16T09:14:04Z</time>
      </trkpt>
      <trkpt lat="48.02303" lon="-1.33893">
        <ele>53.49</ele>
        <time>2014-02-16T09:14:07Z</time>
      </trkpt>
      <trkpt lat="48.02307" lon="-1.33885">
        <ele>53.01</ele>
        <time>2014-02-16T09:14:08Z</time>
      </trkpt>
      <trkpt lat="48.02312" lon="-1.33868">
        <ele>53.49</ele>
        <time>2014-02-16T09:14:10Z</time>
      </trkpt>
      <trkpt lat="48.02329" lon="-1.33745">
        <ele>53.97</ele>
        <time>2014-02-16T09:14:26Z</time>
      </trkpt>
      <trkpt lat="48.02344" lon="-1.33606">
        <ele>56.86</ele>
        <time>2014-02-16T09:14:46Z</time>
      </trkpt>
      <trkpt lat="48.0235" lon="-1.33516">
        <ele>59.74</ele>
        <time>2014-02-16T09:15:00Z</time>
      </trkpt>
      <trkpt lat="48.02352" lon="-1.33461">
        <ele>61.66</ele>
        <time>2014-02-16T09:15:08Z</time>
      </trkpt>
      <trkpt lat="48.02359" lon="-1.33365">
        <ele>65.03</ele>
        <time>2014-02-16T09:15:22Z</time>
      </trkpt>
      <trkpt lat="48.0236" lon="-1.33351">
        <ele>65.51</ele>
        <time>2014-02-16T09:15:24Z</time>
      </trkpt>
      <trkpt lat="48.02368" lon="-1.33273">
        <ele>68.39</ele>
        <time>2014-02-16T09:15:36Z</time>
      </trkpt>
      <trkpt lat="48.02376" lon="-1.33215">
        <ele>71.76</ele>
        <time>2014-02-16T09:15:46Z</time>
      </trkpt>
      <trkpt lat="48.02387" lon="-1.33167">
        <ele>75.12</ele>
        <time>2014-02-16T09:15:55Z</time>
      </trkpt>
      <trkpt lat="48.02392" lon="-1.33141">
        <ele>77.52</ele>
        <time>2014-02-16T09:16:00Z</time>
      </trkpt>
      <trkpt lat="48.02401" lon="-1.33101">
        <ele>80.89</ele>
        <time>2014-02-16T09:16:08Z</time>
      </trkpt>
      <trkpt lat="48.0241" lon="-1.33048">
        <ele>84.73</ele>
        <time>2014-02-16T09:16:18Z</time>
      </trkpt>
      <trkpt lat="48.02411" lon="-1.33043">
        <ele>84.25</ele>
        <time>2014-02-16T09:16:19Z</time>
      </trkpt>
      <trkpt lat="48.02433" lon="-1.32938">
        <ele>83.29</ele>
        <time>2014-02-16T09:16:34Z</time>
      </trkpt>
      <trkpt lat="48.02447" lon="-1.32892">
        <ele>82.33</ele>
        <time>2014-02-16T09:16:40Z</time>
      </trkpt>
      <trkpt lat="48.02461" lon="-1.3286">
        <ele>82.33</ele>
        <time>2014-02-16T09:16:45Z</time>
      </trkpt>
      <trkpt lat="48.02465" lon="-1.32855">
        <ele>82.81</ele>
        <time>2014-02-16T09:16:46Z</time>
      </trkpt>
      <trkpt lat="48.0247" lon="-1.32852">
        <ele>82.33</ele>
        <time>2014-02-16T09:16:47Z</time>
      </trkpt>
      <trkpt lat="48.02474" lon="-1.3285">
        <ele>82.81</ele>
        <time>2014-02-16T09:16:48Z</time>
      </trkpt>
      <trkpt lat="48.02479" lon="-1.3285">
        <ele>82.81</ele>
        <time>2014-02-16T09:16:49Z</time>
      </trkpt>
      <trkpt lat="48.02484" lon="-1.32851">
        <ele>83.29</ele>
        <time>2014-02-16T09:16:50Z</time>
      </trkpt>
      <trkpt lat="48.02489" lon="-1.32853">
        <ele>83.29</ele>
        <time>2014-02-16T09:16:51Z</time>
      </trkpt>
      <trkpt lat="48.02494" lon="-1.32856">
        <ele>83.77</ele>
        <time>2014-02-16T09:16:52Z</time>
      </trkpt>
      <trkpt lat="48.02555" lon="-1.32882">
        <ele>86.18</ele>
        <time>2014-02-16T09:17:06Z</time>
      </trkpt>
      <trkpt lat="48.02592" lon="-1.32881">
        <ele>88.58</ele>
        <time>2014-02-16T09:17:14Z</time>
      </trkpt>
      <trkpt lat="48.02633" lon="-1.32858">
        <ele>91.46</ele>
        <time>2014-02-16T09:17:24Z</time>
      </trkpt>
      <trkpt lat="48.0266" lon="-1.32835">
        <ele>93.87</ele>
        <time>2014-02-16T09:17:31Z</time>
      </trkpt>
      <trkpt lat="48.02704" lon="-1.32747">
        <ele>94.83</ele>
        <time>2014-02-16T09:17:48Z</time>
      </trkpt>
      <trkpt lat="48.02726" lon="-1.32696">
        <ele>95.79</ele>
        <time>2014-02-16T09:18:01Z</time>
      </trkpt>
      <trkpt lat="48.02729" lon="-1.32689">
        <ele>95.79</ele>
        <time>2014-02-16T09:18:05Z</time>
      </trkpt>
      <trkpt lat="48.0273" lon="-1.32689">
        <ele>95.79</ele>
        <time>2014-02-16T09:18:19Z</time>
      </trkpt>
      <trkpt lat="48.0273" lon="-1.32689">
        <ele>95.79</ele>
        <time>2014-02-16T09:18:40Z</time>
      </trkpt>
      <trkpt lat="48.0273" lon="-1.3269">
        <ele>95.79</ele>
        <time>2014-02-16T09:19:07Z</time>
      </trkpt>
      <trkpt lat="48.0273" lon="-1.3269">
        <ele>95.31</ele>
        <time>2014-02-16T09:19:37Z</time>
      </trkpt>
      <trkpt lat="48.02729" lon="-1.32689">
        <ele>95.79</ele>
        <time>2014-02-16T09:20:14Z</time>
      </trkpt>
      <trkpt lat="48.0273" lon="-1.3269">
        <ele>95.79</ele>
        <time>2014-02-16T09:20:45Z</time>
      </trkpt>
      <trkpt lat="48.0273" lon="-1.32689">
        <ele>95.79</ele>
        <time>2014-02-16T09:21:12Z</time>
      </trkpt>
      <trkpt lat="48.02731" lon="-1.32689">
        <ele>95.31</ele>
        <time>2014-02-16T09:21:18Z</time>
      </trkpt>
      <trkpt lat="48.02732" lon="-1.32689">
        <ele>95.79</ele>
        <time>2014-02-16T09:21:19Z</time>
      </trkpt>
      <trkpt lat="48.02734" lon="-1.32689">
        <ele>95.79</ele>
        <time>2014-02-16T09:21:20Z</time>
      </trkpt>
      <trkpt lat="48.02737" lon="-1.32702">
        <ele>95.79</ele>
        <time>2014-02-16T09:21:25Z</time>
      </trkpt>
      <trkpt lat="48.02737" lon="-1.32783">
        <ele>95.79</ele>
        <time>2014-02-16T09:21:39Z</time>
      </trkpt>
      <trkpt lat="48.02738" lon="-1.32789">
        <ele>95.79</ele>
        <time>2014-02-16T09:21:40Z</time>
      </trkpt>
      <trkpt lat="48.02754" lon="-1.32902">
        <ele>92.42</ele>
        <time>2014-02-16T09:21:54Z</time>
      </trkpt>
      <trkpt lat="48.02767" lon="-1.32983">
        <ele>89.06</ele>
        <time>2014-02-16T09:22:01Z</time>
      </trkpt>
      <trkpt lat="48.02778" lon="-1.33048">
        <ele>86.18</ele>
        <time>2014-02-16T09:22:06Z</time>
      </trkpt>
      <trkpt lat="48.02789" lon="-1.33118">
        <ele>82.81</ele>
        <time>2014-02-16T09:22:11Z</time>
      </trkpt>
      <trkpt lat="48.028" lon="-1.33191">
        <ele>78.97</ele>
        <time>2014-02-16T09:22:16Z</time>
      </trkpt>
      <trkpt lat="48.02812" lon="-1.33265">
        <ele>76.08</ele>
        <time>2014-02-16T09:22:21Z</time>
      </trkpt>
      <trkpt lat="48.02818" lon="-1.33311">
        <ele>74.64</ele>
        <time>2014-02-16T09:22:24Z</time>
      </trkpt>
      <trkpt lat="48.02827" lon="-1.33389">
        <ele>70.79</ele>
        <time>2014-02-16T09:22:29Z</time>
      </trkpt>
      <trkpt lat="48.02833" lon="-1.33467">
        <ele>67.43</ele>
        <time>2014-02-16T09:22:34Z</time>
      </trkpt>
      <trkpt lat="48.0284" lon="-1.3356">
        <ele>64.07</ele>
        <time>2014-02-16T09:22:40Z</time>
      </trkpt>
      <trkpt lat="48.02844" lon="-1.33605">
        <ele>62.62</ele>
        <time>2014-02-16T09:22:43Z</time>
      </trkpt>
      <trkpt lat="48.02858" lon="-1.33796">
        <ele>61.66</ele>
        <time>2014-02-16T09:22:58Z</time>
      </trkpt>
      <trkpt lat="48.02853" lon="-1.33921">
        <ele>60.7</ele>
        <time>2014-02-16T09:23:09Z</time>
      </trkpt>
      <trkpt lat="48.02885" lon="-1.34053">
        <ele>59.74</ele>
        <time>2014-02-16T09:23:21Z</time>
      </trkpt>
      <trkpt lat="48.02894" lon="-1.3407">
        <ele>60.22</ele>
        <time>2014-02-16T09:23:23Z</time>
      </trkpt>
      <trkpt lat="48.02946" lon="-1.34152">
        <ele>60.7</ele>
        <time>2014-02-16T09:23:33Z</time>
      </trkpt>
      <trkpt lat="48.02949" lon="-1.34162">
        <ele>60.7</ele>
        <time>2014-02-16T09:23:34Z</time>
      </trkpt>
      <trkpt lat="48.02952" lon="-1.34173">
        <ele>60.7</ele>
        <time>2014-02-16T09:23:35Z</time>
      </trkpt>
      <trkpt lat="48.02953" lon="-1.34184">
        <ele>60.7</ele>
        <time>2014-02-16T09:23:36Z</time>
      </trkpt>
      <trkpt lat="48.02954" lon="-1.34195">
        <ele>60.7</ele>
        <time>2014-02-16T09:23:37Z</time>
      </trkpt>
      <trkpt lat="48.02953" lon="-1.34207">
        <ele>60.22</ele>
        <time>2014-02-16T09:23:38Z</time>
      </trkpt>
      <trkpt lat="48.02952" lon="-1.34218">
        <ele>59.74</ele>
        <time>2014-02-16T09:23:39Z</time>
      </trkpt>
      <trkpt lat="48.0294" lon="-1.34304">
        <ele>56.86</ele>
        <time>2014-02-16T09:23:46Z</time>
      </trkpt>
      <trkpt lat="48.02938" lon="-1.34317">
        <ele>56.86</ele>
        <time>2014-02-16T09:23:47Z</time>
      </trkpt>
      <trkpt lat="48.02909" lon="-1.34523">
        <ele>56.86</ele>
        <time>2014-02-16T09:24:05Z</time>
      </trkpt>
      <trkpt lat="48.02917" lon="-1.34661">
        <ele>59.26</ele>
        <time>2014-02-16T09:24:19Z</time>
      </trkpt>
      <trkpt lat="48.0292" lon="-1.34703">
        <ele>59.26</ele>
        <time>2014-02-16T09:24:24Z</time>
      </trkpt>
      <trkpt lat="48.02921" lon="-1.34711">
        <ele>59.74</ele>
        <time>2014-02-16T09:24:25Z</time>
      </trkpt>
      <trkpt lat="48.02927" lon="-1.34777">
        <ele>62.62</ele>
        <time>2014-02-16T09:24:35Z</time>
      </trkpt>
      <trkpt lat="48.02934" lon="-1.34856">
        <ele>65.99</ele>
        <time>2014-02-16T09:24:47Z</time>
      </trkpt>
      <trkpt lat="48.02938" lon="-1.34946">
        <ele>69.35</ele>
        <time>2014-02-16T09:25:00Z</time>
      </trkpt>
      <trkpt lat="48.02938" lon="-1.34959">
        <ele>69.83</ele>
        <time>2014-02-16T09:25:02Z</time>
      </trkpt>
      <trkpt lat="48.02939" lon="-1.35035">
        <ele>72.72</ele>
        <time>2014-02-16T09:25:13Z</time>
      </trkpt>
      <trkpt lat="48.02939" lon="-1.35042">
        <ele>73.2</ele>
        <time>2014-02-16T09:25:14Z</time>
      </trkpt>
      <trkpt lat="48.02939" lon="-1.35048">
        <ele>73.2</ele>
        <time>2014-02-16T09:25:15Z</time>
      </trkpt>
      <trkpt lat="48.02938" lon="-1.35055">
        <ele>73.68</ele>
        <time>2014-02-16T09:25:16Z</time>
      </trkpt>
      <trkpt lat="48.02938" lon="-1.35062">
        <ele>73.68</ele>
        <time>2014-02-16T09:25:17Z</time>
      </trkpt>
      <trkpt lat="48.02938" lon="-1.35068">
        <ele>74.16</ele>
        <time>2014-02-16T09:25:18Z</time>
      </trkpt>
      <trkpt lat="48.02938" lon="-1.35075">
        <ele>74.64</ele>
        <time>2014-02-16T09:25:19Z</time>
      </trkpt>
      <trkpt lat="48.02936" lon="-1.35088">
        <ele>75.12</ele>
        <time>2014-02-16T09:25:21Z</time>
      </trkpt>
      <trkpt lat="48.02936" lon="-1.35095">
        <ele>75.12</ele>
        <time>2014-02-16T09:25:22Z</time>
      </trkpt>
      <trkpt lat="48.02936" lon="-1.35108">
        <ele>75.6</ele>
        <time>2014-02-16T09:25:24Z</time>
      </trkpt>
      <trkpt lat="48.02934" lon="-1.35121">
        <ele>76.08</ele>
        <time>2014-02-16T09:25:26Z</time>
      </trkpt>
      <trkpt lat="48.02933" lon="-1.35135">
        <ele>76.56</ele>
        <time>2014-02-16T09:25:28Z</time>
      </trkpt>
      <trkpt lat="48.02932" lon="-1.35148">
        <ele>77.52</ele>
        <time>2014-02-16T09:25:30Z</time>
      </trkpt>
      <trkpt lat="48.02931" lon="-1.35156">
        <ele>77.52</ele>
        <time>2014-02-16T09:25:31Z</time>
      </trkpt>
      <trkpt lat="48.0293" lon="-1.35162">
        <ele>78</ele>
        <time>2014-02-16T09:25:32Z</time>
      </trkpt>
      <trkpt lat="48.0293" lon="-1.35169">
        <ele>78</ele>
        <time>2014-02-16T09:25:33Z</time>
      </trkpt>
      <trkpt lat="48.02929" lon="-1.35176">
        <ele>78.48</ele>
        <time>2014-02-16T09:25:34Z</time>
      </trkpt>
      <trkpt lat="48.02928" lon="-1.35264">
        <ele>79.45</ele>
        <time>2014-02-16T09:25:49Z</time>
      </trkpt>
      <trkpt lat="48.02948" lon="-1.35315">
        <ele>80.41</ele>
        <time>2014-02-16T09:26:00Z</time>
      </trkpt>
      <trkpt lat="48.02977" lon="-1.35332">
        <ele>80.41</ele>
        <time>2014-02-16T09:26:08Z</time>
      </trkpt>
      <trkpt lat="48.03036" lon="-1.35351">
        <ele>80.41</ele>
        <time>2014-02-16T09:26:23Z</time>
      </trkpt>
      <trkpt lat="48.03084" lon="-1.35358">
        <ele>80.41</ele>
        <time>2014-02-16T09:26:35Z</time>
      </trkpt>
      <trkpt lat="48.03088" lon="-1.35361">
        <ele>80.41</ele>
        <time>2014-02-16T09:26:36Z</time>
      </trkpt>
      <trkpt lat="48.0309" lon="-1.35365">
        <ele>80.89</ele>
        <time>2014-02-16T09:26:37Z</time>
      </trkpt>
      <trkpt lat="48.03093" lon="-1.35369">
        <ele>80.41</ele>
        <time>2014-02-16T09:26:38Z</time>
      </trkpt>
      <trkpt lat="48.03096" lon="-1.35374">
        <ele>80.41</ele>
        <time>2014-02-16T09:26:39Z</time>
      </trkpt>
      <trkpt lat="48.03098" lon="-1.35378">
        <ele>80.41</ele>
        <time>2014-02-16T09:26:40Z</time>
      </trkpt>
      <trkpt lat="48.031" lon="-1.35383">
        <ele>80.41</ele>
        <time>2014-02-16T09:26:41Z</time>
      </trkpt>
      <trkpt lat="48.03128" lon="-1.35459">
        <ele>80.89</ele>
        <time>2014-02-16T09:26:58Z</time>
      </trkpt>
      <trkpt lat="48.0315" lon="-1.35516">
        <ele>80.89</ele>
        <time>2014-02-16T09:27:14Z</time>
      </trkpt>
      <trkpt lat="48.03152" lon="-1.35518">
        <ele>80.89</ele>
        <time>2014-02-16T09:27:15Z</time>
      </trkpt>
      <trkpt lat="48.03153" lon="-1.35519">
        <ele>80.89</ele>
        <time>2014-02-16T09:27:16Z</time>
      </trkpt>
      <trkpt lat="48.03156" lon="-1.3552">
        <ele>80.41</ele>
        <time>2014-02-16T09:27:17Z</time>
      </trkpt>
      <trkpt lat="48.03159" lon="-1.35521">
        <ele>80.89</ele>
        <time>2014-02-16T09:27:18Z</time>
      </trkpt>
      <trkpt lat="48.03163" lon="-1.35522">
        <ele>80.89</ele>
        <time>2014-02-16T09:27:19Z</time>
      </trkpt>
      <trkpt lat="48.03223" lon="-1.35515">
        <ele>80.41</ele>
        <time>2014-02-16T09:27:33Z</time>
      </trkpt>
      <trkpt lat="48.0332" lon="-1.35486">
        <ele>78.97</ele>
        <time>2014-02-16T09:27:50Z</time>
      </trkpt>
      <trkpt lat="48.03364" lon="-1.35468">
        <ele>77.52</ele>
        <time>2014-02-16T09:27:57Z</time>
      </trkpt>
      <trkpt lat="48.03466" lon="-1.35435">
        <ele>76.08</ele>
        <time>2014-02-16T09:28:12Z</time>
      </trkpt>
      <trkpt lat="48.03561" lon="-1.35418">
        <ele>76.56</ele>
        <time>2014-02-16T09:28:27Z</time>
      </trkpt>
      <trkpt lat="48.03588" lon="-1.35413">
        <ele>77.04</ele>
        <time>2014-02-16T09:28:32Z</time>
      </trkpt>
      <trkpt lat="48.03593" lon="-1.35412">
        <ele>77.52</ele>
        <time>2014-02-16T09:28:33Z</time>
      </trkpt>
      <trkpt lat="48.03695" lon="-1.35394">
        <ele>79.93</ele>
        <time>2014-02-16T09:28:51Z</time>
      </trkpt>
      <trkpt lat="48.03798" lon="-1.35377">
        <ele>79.45</ele>
        <time>2014-02-16T09:29:08Z</time>
      </trkpt>
      <trkpt lat="48.03882" lon="-1.35364">
        <ele>78.48</ele>
        <time>2014-02-16T09:29:22Z</time>
      </trkpt>
      <trkpt lat="48.03888" lon="-1.35364">
        <ele>78.48</ele>
        <time>2014-02-16T09:29:23Z</time>
      </trkpt>
      <trkpt lat="48.03958" lon="-1.35349">
        <ele>78</ele>
        <time>2014-02-16T09:29:36Z</time>
      </trkpt>
      <trkpt lat="48.03963" lon="-1.35349">
        <ele>77.52</ele>
        <time>2014-02-16T09:29:37Z</time>
      </trkpt>
      <trkpt lat="48.03968" lon="-1.35348">
        <ele>77.52</ele>
        <time>2014-02-16T09:29:38Z</time>
      </trkpt>
      <trkpt lat="48.04006" lon="-1.35337">
        <ele>77.52</ele>
        <time>2014-02-16T09:29:50Z</time>
      </trkpt>
      <trkpt lat="48.04006" lon="-1.35336">
        <ele>78</ele>
        <time>2014-02-16T09:30:05Z</time>
      </trkpt>
      <trkpt lat="48.04007" lon="-1.35336">
        <ele>77.52</ele>
        <time>2014-02-16T09:30:18Z</time>
      </trkpt>
      <trkpt lat="48.04008" lon="-1.35335">
        <ele>78.48</ele>
        <time>2014-02-16T09:30:19Z</time>
      </trkpt>
      <trkpt lat="48.04009" lon="-1.35334">
        <ele>77.52</ele>
        <time>2014-02-16T09:30:20Z</time>
      </trkpt>
      <trkpt lat="48.04011" lon="-1.35332">
        <ele>78</ele>
        <time>2014-02-16T09:30:21Z</time>
      </trkpt>
      <trkpt lat="48.04012" lon="-1.35329">
        <ele>78</ele>
        <time>2014-02-16T09:30:22Z</time>
      </trkpt>
      <trkpt lat="48.04013" lon="-1.35325">
        <ele>78</ele>
        <time>2014-02-16T09:30:23Z</time>
      </trkpt>
      <trkpt lat="48.04029" lon="-1.35281">
        <ele>78.48</ele>
        <time>2014-02-16T09:30:34Z</time>
      </trkpt>
      <trkpt lat="48.04056" lon="-1.35205">
        <ele>79.93</ele>
        <time>2014-02-16T09:30:46Z</time>
      </trkpt>
      <trkpt lat="48.04082" lon="-1.35136">
        <ele>80.89</ele>
        <time>2014-02-16T09:30:57Z</time>
      </trkpt>
      <trkpt lat="48.04126" lon="-1.35015">
        <ele>81.37</ele>
        <time>2014-02-16T09:31:15Z</time>
      </trkpt>
      <trkpt lat="48.04172" lon="-1.34894">
        <ele>81.37</ele>
        <time>2014-02-16T09:31:32Z</time>
      </trkpt>
      <trkpt lat="48.04219" lon="-1.34764">
        <ele>84.25</ele>
        <time>2014-02-16T09:31:49Z</time>
      </trkpt>
      <trkpt lat="48.04258" lon="-1.34658">
        <ele>87.14</ele>
        <time>2014-02-16T09:32:03Z</time>
      </trkpt>
      <trkpt lat="48.04311" lon="-1.34518">
        <ele>89.06</ele>
        <time>2014-02-16T09:32:23Z</time>
      </trkpt>
      <trkpt lat="48.04355" lon="-1.34399">
        <ele>85.69</ele>
        <time>2014-02-16T09:32:38Z</time>
      </trkpt>
      <trkpt lat="48.0438" lon="-1.34329">
        <ele>82.81</ele>
        <time>2014-02-16T09:32:46Z</time>
      </trkpt>
      <trkpt lat="48.04389" lon="-1.34302">
        <ele>81.85</ele>
        <time>2014-02-16T09:32:50Z</time>
      </trkpt>
      <trkpt lat="48.04388" lon="-1.34295">
        <ele>81.37</ele>
        <time>2014-02-16T09:32:51Z</time>
      </trkpt>
      <trkpt lat="48.04385" lon="-1.34288">
        <ele>80.89</ele>
        <time>2014-02-16T09:32:52Z</time>
      </trkpt>
      <trkpt lat="48.0438" lon="-1.34283">
        <ele>80.41</ele>
        <time>2014-02-16T09:32:53Z</time>
      </trkpt>
      <trkpt lat="48.04375" lon="-1.34278">
        <ele>79.93</ele>
        <time>2014-02-16T09:32:54Z</time>
      </trkpt>
      <trkpt lat="48.0437" lon="-1.34273">
        <ele>79.93</ele>
        <time>2014-02-16T09:32:55Z</time>
      </trkpt>
      <trkpt lat="48.04365" lon="-1.34268">
        <ele>79.93</ele>
        <time>2014-02-16T09:32:56Z</time>
      </trkpt>
      <trkpt lat="48.04335" lon="-1.34239">
        <ele>79.45</ele>
        <time>2014-02-16T09:33:02Z</time>
      </trkpt>
      <trkpt lat="48.0426" lon="-1.34193">
        <ele>79.45</ele>
        <time>2014-02-16T09:33:17Z</time>
      </trkpt>
      <trkpt lat="48.04237" lon="-1.34178">
        <ele>79.45</ele>
        <time>2014-02-16T09:33:23Z</time>
      </trkpt>
      <trkpt lat="48.04225" lon="-1.34164">
        <ele>78.48</ele>
        <time>2014-02-16T09:33:27Z</time>
      </trkpt>
      <trkpt lat="48.04224" lon="-1.34159">
        <ele>78.48</ele>
        <time>2014-02-16T09:33:28Z</time>
      </trkpt>
      <trkpt lat="48.04224" lon="-1.34153">
        <ele>78.48</ele>
        <time>2014-02-16T09:33:29Z</time>
      </trkpt>
      <trkpt lat="48.04225" lon="-1.34147">
        <ele>78.48</ele>
        <time>2014-02-16T09:33:30Z</time>
      </trkpt>
      <trkpt lat="48.04227" lon="-1.34141">
        <ele>78.48</ele>
        <time>2014-02-16T09:33:31Z</time>
      </trkpt>
      <trkpt lat="48.04228" lon="-1.34135">
        <ele>78</ele>
        <time>2014-02-16T09:33:32Z</time>
      </trkpt>
      <trkpt lat="48.04239" lon="-1.34102">
        <ele>78</ele>
        <time>2014-02-16T09:33:37Z</time>
      </trkpt>
      <trkpt lat="48.04242" lon="-1.34096">
        <ele>78</ele>
        <time>2014-02-16T09:33:38Z</time>
      </trkpt>
      <trkpt lat="48.04287" lon="-1.33992">
        <ele>76.56</ele>
        <time>2014-02-16T09:33:55Z</time>
      </trkpt>
      <trkpt lat="48.0431" lon="-1.33941">
        <ele>73.2</ele>
        <time>2014-02-16T09:34:01Z</time>
      </trkpt>
      <trkpt lat="48.04339" lon="-1.33878">
        <ele>76.08</ele>
        <time>2014-02-16T09:34:10Z</time>
      </trkpt>
      <trkpt lat="48.04342" lon="-1.33873">
        <ele>76.56</ele>
        <time>2014-02-16T09:34:11Z</time>
      </trkpt>
      <trkpt lat="48.04353" lon="-1.33854">
        <ele>78.48</ele>
        <time>2014-02-16T09:34:15Z</time>
      </trkpt>
      <trkpt lat="48.04366" lon="-1.33833">
        <ele>80.41</ele>
        <time>2014-02-16T09:34:20Z</time>
      </trkpt>
      <trkpt lat="48.0437" lon="-1.33829">
        <ele>79.45</ele>
        <time>2014-02-16T09:34:21Z</time>
      </trkpt>
      <trkpt lat="48.04403" lon="-1.33795">
        <ele>80.41</ele>
        <time>2014-02-16T09:34:29Z</time>
      </trkpt>
      <trkpt lat="48.04406" lon="-1.3379">
        <ele>80.41</ele>
        <time>2014-02-16T09:34:30Z</time>
      </trkpt>
      <trkpt lat="48.0441" lon="-1.33786">
        <ele>80.41</ele>
        <time>2014-02-16T09:34:31Z</time>
      </trkpt>
      <trkpt lat="48.04451" lon="-1.33733">
        <ele>80.89</ele>
        <time>2014-02-16T09:34:42Z</time>
      </trkpt>
      <trkpt lat="48.04458" lon="-1.33724">
        <ele>80.89</ele>
        <time>2014-02-16T09:34:44Z</time>
      </trkpt>
      <trkpt lat="48.04465" lon="-1.33715">
        <ele>80.89</ele>
        <time>2014-02-16T09:34:46Z</time>
      </trkpt>
      <trkpt lat="48.04469" lon="-1.3371">
        <ele>80.89</ele>
        <time>2014-02-16T09:34:47Z</time>
      </trkpt>
      <trkpt lat="48.04479" lon="-1.33694">
        <ele>81.37</ele>
        <time>2014-02-16T09:34:50Z</time>
      </trkpt>
      <trkpt lat="48.04505" lon="-1.33644">
        <ele>81.85</ele>
        <time>2014-02-16T09:35:01Z</time>
      </trkpt>
      <trkpt lat="48.04508" lon="-1.3364">
        <ele>81.85</ele>
        <time>2014-02-16T09:35:02Z</time>
      </trkpt>
      <trkpt lat="48.04511" lon="-1.33635">
        <ele>81.85</ele>
        <time>2014-02-16T09:35:03Z</time>
      </trkpt>
      <trkpt lat="48.04514" lon="-1.3363">
        <ele>82.33</ele>
        <time>2014-02-16T09:35:04Z</time>
      </trkpt>
      <trkpt lat="48.0452" lon="-1.33619">
        <ele>82.33</ele>
        <time>2014-02-16T09:35:06Z</time>
      </trkpt>
      <trkpt lat="48.04523" lon="-1.33614">
        <ele>82.81</ele>
        <time>2014-02-16T09:35:07Z</time>
      </trkpt>
      <trkpt lat="48.04526" lon="-1.33609">
        <ele>82.81</ele>
        <time>2014-02-16T09:35:08Z</time>
      </trkpt>
      <trkpt lat="48.04532" lon="-1.336">
        <ele>83.29</ele>
        <time>2014-02-16T09:35:10Z</time>
      </trkpt>
      <trkpt lat="48.04539" lon="-1.33591">
        <ele>83.29</ele>
        <time>2014-02-16T09:35:12Z</time>
      </trkpt>
      <trkpt lat="48.04542" lon="-1.33586">
        <ele>83.29</ele>
        <time>2014-02-16T09:35:13Z</time>
      </trkpt>
      <trkpt lat="48.0455" lon="-1.33576">
        <ele>83.77</ele>
        <time>2014-02-16T09:35:15Z</time>
      </trkpt>
      <trkpt lat="48.04601" lon="-1.33527">
        <ele>86.66</ele>
        <time>2014-02-16T09:35:29Z</time>
      </trkpt>
      <trkpt lat="48.04614" lon="-1.33513">
        <ele>87.14</ele>
        <time>2014-02-16T09:35:33Z</time>
      </trkpt>
      <trkpt lat="48.04618" lon="-1.33508">
        <ele>87.62</ele>
        <time>2014-02-16T09:35:34Z</time>
      </trkpt>
      <trkpt lat="48.04673" lon="-1.33446">
        <ele>87.62</ele>
        <time>2014-02-16T09:35:50Z</time>
      </trkpt>
      <trkpt lat="48.04702" lon="-1.3344">
        <ele>87.14</ele>
        <time>2014-02-16T09:36:00Z</time>
      </trkpt>
      <trkpt lat="48.04706" lon="-1.33437">
        <ele>86.66</ele>
        <time>2014-02-16T09:36:01Z</time>
      </trkpt>
      <trkpt lat="48.04709" lon="-1.33433">
        <ele>86.66</ele>
        <time>2014-02-16T09:36:02Z</time>
      </trkpt>
      <trkpt lat="48.04736" lon="-1.33378">
        <ele>87.62</ele>
        <time>2014-02-16T09:36:14Z</time>
      </trkpt>
      <trkpt lat="48.04764" lon="-1.33302">
        <ele>88.58</ele>
        <time>2014-02-16T09:36:28Z</time>
      </trkpt>
      <trkpt lat="48.04786" lon="-1.33241">
        <ele>89.06</ele>
        <time>2014-02-16T09:36:38Z</time>
      </trkpt>
      <trkpt lat="48.04788" lon="-1.33235">
        <ele>89.06</ele>
        <time>2014-02-16T09:36:39Z</time>
      </trkpt>
      <trkpt lat="48.0479" lon="-1.33229">
        <ele>89.06</ele>
        <time>2014-02-16T09:36:40Z</time>
      </trkpt>
      <trkpt lat="48.04819" lon="-1.33163">
        <ele>88.58</ele>
        <time>2014-02-16T09:36:51Z</time>
      </trkpt>
      <trkpt lat="48.04823" lon="-1.3316">
        <ele>88.58</ele>
        <time>2014-02-16T09:36:52Z</time>
      </trkpt>
      <trkpt lat="48.04828" lon="-1.3316">
        <ele>88.58</ele>
        <time>2014-02-16T09:36:53Z</time>
      </trkpt>
      <trkpt lat="48.04832" lon="-1.33162">
        <ele>88.58</ele>
        <time>2014-02-16T09:36:54Z</time>
      </trkpt>
      <trkpt lat="48.04837" lon="-1.33164">
        <ele>88.58</ele>
        <time>2014-02-16T09:36:55Z</time>
      </trkpt>
      <trkpt lat="48.04841" lon="-1.33167">
        <ele>88.58</ele>
        <time>2014-02-16T09:36:56Z</time>
      </trkpt>
      <trkpt lat="48.04845" lon="-1.33171">
        <ele>88.58</ele>
        <time>2014-02-16T09:36:57Z</time>
      </trkpt>
      <trkpt lat="48.04849" lon="-1.33175">
        <ele>88.58</ele>
        <time>2014-02-16T09:36:58Z</time>
      </trkpt>
      <trkpt lat="48.04853" lon="-1.33179">
        <ele>89.06</ele>
        <time>2014-02-16T09:36:59Z</time>
      </trkpt>
      <trkpt lat="48.04857" lon="-1.33182">
        <ele>89.54</ele>
        <time>2014-02-16T09:37:00Z</time>
      </trkpt>
      <trkpt lat="48.04861" lon="-1.33186">
        <ele>89.54</ele>
        <time>2014-02-16T09:37:01Z</time>
      </trkpt>
      <trkpt lat="48.04865" lon="-1.3319">
        <ele>89.54</ele>
        <time>2014-02-16T09:37:02Z</time>
      </trkpt>
      <trkpt lat="48.0487" lon="-1.33193">
        <ele>89.54</ele>
        <time>2014-02-16T09:37:03Z</time>
      </trkpt>
      <trkpt lat="48.04875" lon="-1.33196">
        <ele>89.54</ele>
        <time>2014-02-16T09:37:04Z</time>
      </trkpt>
      <trkpt lat="48.04879" lon="-1.33197">
        <ele>90.02</ele>
        <time>2014-02-16T09:37:05Z</time>
      </trkpt>
      <trkpt lat="48.04884" lon="-1.33197">
        <ele>90.02</ele>
        <time>2014-02-16T09:37:06Z</time>
      </trkpt>
      <trkpt lat="48.049" lon="-1.33198">
        <ele>90.02</ele>
        <time>2014-02-16T09:37:10Z</time>
      </trkpt>
      <trkpt lat="48.04912" lon="-1.33197">
        <ele>90.5</ele>
        <time>2014-02-16T09:37:13Z</time>
      </trkpt>
      <trkpt lat="48.04915" lon="-1.33192">
        <ele>90.5</ele>
        <time>2014-02-16T09:37:14Z</time>
      </trkpt>
      <trkpt lat="48.04918" lon="-1.33187">
        <ele>90.5</ele>
        <time>2014-02-16T09:37:15Z</time>
      </trkpt>
      <trkpt lat="48.04921" lon="-1.33182">
        <ele>90.5</ele>
        <time>2014-02-16T09:37:16Z</time>
      </trkpt>
      <trkpt lat="48.04923" lon="-1.33177">
        <ele>90.5</ele>
        <time>2014-02-16T09:37:17Z</time>
      </trkpt>
      <trkpt lat="48.04926" lon="-1.33172">
        <ele>90.02</ele>
        <time>2014-02-16T09:37:18Z</time>
      </trkpt>
      <trkpt lat="48.04949" lon="-1.33121">
        <ele>89.54</ele>
        <time>2014-02-16T09:37:28Z</time>
      </trkpt>
      <trkpt lat="48.04952" lon="-1.33117">
        <ele>89.54</ele>
        <time>2014-02-16T09:37:29Z</time>
      </trkpt>
      <trkpt lat="48.04958" lon="-1.33106">
        <ele>89.06</ele>
        <time>2014-02-16T09:37:31Z</time>
      </trkpt>
      <trkpt lat="48.0496" lon="-1.331">
        <ele>89.06</ele>
        <time>2014-02-16T09:37:32Z</time>
      </trkpt>
      <trkpt lat="48.04969" lon="-1.33074">
        <ele>89.06</ele>
        <time>2014-02-16T09:37:36Z</time>
      </trkpt>
      <trkpt lat="48.04976" lon="-1.33056">
        <ele>88.58</ele>
        <time>2014-02-16T09:37:39Z</time>
      </trkpt>
      <trkpt lat="48.04978" lon="-1.33049">
        <ele>88.1</ele>
        <time>2014-02-16T09:37:40Z</time>
      </trkpt>
      <trkpt lat="48.04981" lon="-1.33042">
        <ele>88.1</ele>
        <time>2014-02-16T09:37:41Z</time>
      </trkpt>
      <trkpt lat="48.04984" lon="-1.33036">
        <ele>88.1</ele>
        <time>2014-02-16T09:37:42Z</time>
      </trkpt>
      <trkpt lat="48.04986" lon="-1.3303">
        <ele>88.1</ele>
        <time>2014-02-16T09:37:43Z</time>
      </trkpt>
      <trkpt lat="48.04987" lon="-1.33024">
        <ele>88.1</ele>
        <time>2014-02-16T09:37:44Z</time>
      </trkpt>
      <trkpt lat="48.05015" lon="-1.32954">
        <ele>87.14</ele>
        <time>2014-02-16T09:37:54Z</time>
      </trkpt>
      <trkpt lat="48.05018" lon="-1.32947">
        <ele>87.14</ele>
        <time>2014-02-16T09:37:55Z</time>
      </trkpt>
      <trkpt lat="48.05068" lon="-1.32825">
        <ele>86.18</ele>
        <time>2014-02-16T09:38:12Z</time>
      </trkpt>
      <trkpt lat="48.05117" lon="-1.32702">
        <ele>86.18</ele>
        <time>2014-02-16T09:38:29Z</time>
      </trkpt>
      <trkpt lat="48.05162" lon="-1.32596">
        <ele>88.1</ele>
        <time>2014-02-16T09:38:44Z</time>
      </trkpt>
      <trkpt lat="48.05177" lon="-1.32573">
        <ele>89.06</ele>
        <time>2014-02-16T09:38:48Z</time>
      </trkpt>
      <trkpt lat="48.05227" lon="-1.32485">
        <ele>89.54</ele>
        <time>2014-02-16T09:39:02Z</time>
      </trkpt>
      <trkpt lat="48.05295" lon="-1.32372">
        <ele>91.46</ele>
        <time>2014-02-16T09:39:21Z</time>
      </trkpt>
      <trkpt lat="48.05298" lon="-1.32368">
        <ele>90.98</ele>
        <time>2014-02-16T09:39:22Z</time>
      </trkpt>
      <trkpt lat="48.05305" lon="-1.3236">
        <ele>90.98</ele>
        <time>2014-02-16T09:39:24Z</time>
      </trkpt>
      <trkpt lat="48.05351" lon="-1.32313">
        <ele>91.94</ele>
        <time>2014-02-16T09:39:35Z</time>
      </trkpt>
      <trkpt lat="48.0536" lon="-1.32305">
        <ele>92.42</ele>
        <time>2014-02-16T09:39:37Z</time>
      </trkpt>
      <trkpt lat="48.05364" lon="-1.32302">
        <ele>92.42</ele>
        <time>2014-02-16T09:39:38Z</time>
      </trkpt>
      <trkpt lat="48.05369" lon="-1.32298">
        <ele>92.42</ele>
        <time>2014-02-16T09:39:39Z</time>
      </trkpt>
      <trkpt lat="48.05435" lon="-1.3221">
        <ele>93.87</ele>
        <time>2014-02-16T09:39:55Z</time>
      </trkpt>
      <trkpt lat="48.05506" lon="-1.32116">
        <ele>94.83</ele>
        <time>2014-02-16T09:40:12Z</time>
      </trkpt>
      <trkpt lat="48.05593" lon="-1.32047">
        <ele>94.35</ele>
        <time>2014-02-16T09:40:29Z</time>
      </trkpt>
      <trkpt lat="48.05597" lon="-1.32042">
        <ele>93.87</ele>
        <time>2014-02-16T09:40:30Z</time>
      </trkpt>
      <trkpt lat="48.05616" lon="-1.32013">
        <ele>93.87</ele>
        <time>2014-02-16T09:40:35Z</time>
      </trkpt>
      <trkpt lat="48.05619" lon="-1.32007">
        <ele>93.87</ele>
        <time>2014-02-16T09:40:36Z</time>
      </trkpt>
      <trkpt lat="48.05636" lon="-1.31967">
        <ele>93.39</ele>
        <time>2014-02-16T09:40:42Z</time>
      </trkpt>
      <trkpt lat="48.05643" lon="-1.31955">
        <ele>92.9</ele>
        <time>2014-02-16T09:40:44Z</time>
      </trkpt>
      <trkpt lat="48.05647" lon="-1.31949">
        <ele>92.9</ele>
        <time>2014-02-16T09:40:45Z</time>
      </trkpt>
      <trkpt lat="48.05652" lon="-1.31945">
        <ele>92.9</ele>
        <time>2014-02-16T09:40:46Z</time>
      </trkpt>
      <trkpt lat="48.05658" lon="-1.31942">
        <ele>92.42</ele>
        <time>2014-02-16T09:40:47Z</time>
      </trkpt>
      <trkpt lat="48.05663" lon="-1.3194">
        <ele>92.42</ele>
        <time>2014-02-16T09:40:48Z</time>
      </trkpt>
      <trkpt lat="48.05669" lon="-1.31938">
        <ele>92.42</ele>
        <time>2014-02-16T09:40:49Z</time>
      </trkpt>
      <trkpt lat="48.05743" lon="-1.31923">
        <ele>91.46</ele>
        <time>2014-02-16T09:41:02Z</time>
      </trkpt>
      <trkpt lat="48.05795" lon="-1.31908">
        <ele>90.98</ele>
        <time>2014-02-16T09:41:13Z</time>
      </trkpt>
      <trkpt lat="48.058" lon="-1.31907">
        <ele>90.98</ele>
        <time>2014-02-16T09:41:14Z</time>
      </trkpt>
      <trkpt lat="48.05805" lon="-1.31904">
        <ele>90.98</ele>
        <time>2014-02-16T09:41:15Z</time>
      </trkpt>
      <trkpt lat="48.05811" lon="-1.31902">
        <ele>90.98</ele>
        <time>2014-02-16T09:41:16Z</time>
      </trkpt>
      <trkpt lat="48.05816" lon="-1.319">
        <ele>90.5</ele>
        <time>2014-02-16T09:41:17Z</time>
      </trkpt>
      <trkpt lat="48.05822" lon="-1.31898">
        <ele>90.5</ele>
        <time>2014-02-16T09:41:18Z</time>
      </trkpt>
      <trkpt lat="48.05887" lon="-1.31874">
        <ele>90.02</ele>
        <time>2014-02-16T09:41:29Z</time>
      </trkpt>
      <trkpt lat="48.05994" lon="-1.31837">
        <ele>93.39</ele>
        <time>2014-02-16T09:41:47Z</time>
      </trkpt>
      <trkpt lat="48.06066" lon="-1.31812">
        <ele>96.27</ele>
        <time>2014-02-16T09:42:00Z</time>
      </trkpt>
      <trkpt lat="48.06129" lon="-1.3179">
        <ele>96.27</ele>
        <time>2014-02-16T09:42:14Z</time>
      </trkpt>
      <trkpt lat="48.06132" lon="-1.31789">
        <ele>96.27</ele>
        <time>2014-02-16T09:42:15Z</time>
      </trkpt>
      <trkpt lat="48.06174" lon="-1.31775">
        <ele>94.35</ele>
        <time>2014-02-16T09:42:24Z</time>
      </trkpt>
      <trkpt lat="48.06203" lon="-1.31763">
        <ele>92.9</ele>
        <time>2014-02-16T09:42:29Z</time>
      </trkpt>
      <trkpt lat="48.06221" lon="-1.31752">
        <ele>91.94</ele>
        <time>2014-02-16T09:42:32Z</time>
      </trkpt>
      <trkpt lat="48.06237" lon="-1.31734">
        <ele>91.46</ele>
        <time>2014-02-16T09:42:35Z</time>
      </trkpt>
      <trkpt lat="48.06262" lon="-1.31687">
        <ele>89.54</ele>
        <time>2014-02-16T09:42:41Z</time>
      </trkpt>
      <trkpt lat="48.06273" lon="-1.31637">
        <ele>87.62</ele>
        <time>2014-02-16T09:42:46Z</time>
      </trkpt>
      <trkpt lat="48.06288" lon="-1.31482">
        <ele>88.1</ele>
        <time>2014-02-16T09:43:03Z</time>
      </trkpt>
      <trkpt lat="48.06319" lon="-1.31352">
        <ele>89.54</ele>
        <time>2014-02-16T09:43:19Z</time>
      </trkpt>
      <trkpt lat="48.06322" lon="-1.31346">
        <ele>90.02</ele>
        <time>2014-02-16T09:43:20Z</time>
      </trkpt>
      <trkpt lat="48.06325" lon="-1.31339">
        <ele>90.02</ele>
        <time>2014-02-16T09:43:21Z</time>
      </trkpt>
      <trkpt lat="48.06332" lon="-1.31325">
        <ele>90.02</ele>
        <time>2014-02-16T09:43:23Z</time>
      </trkpt>
      <trkpt lat="48.06381" lon="-1.31207">
        <ele>91.94</ele>
        <time>2014-02-16T09:43:40Z</time>
      </trkpt>
      <trkpt lat="48.0641" lon="-1.31133">
        <ele>93.39</ele>
        <time>2014-02-16T09:43:51Z</time>
      </trkpt>
      <trkpt lat="48.06414" lon="-1.31128">
        <ele>92.9</ele>
        <time>2014-02-16T09:43:52Z</time>
      </trkpt>
      <trkpt lat="48.06422" lon="-1.3112">
        <ele>93.39</ele>
        <time>2014-02-16T09:43:54Z</time>
      </trkpt>
      <trkpt lat="48.06427" lon="-1.31116">
        <ele>93.39</ele>
        <time>2014-02-16T09:43:55Z</time>
      </trkpt>
      <trkpt lat="48.06432" lon="-1.31114">
        <ele>93.39</ele>
        <time>2014-02-16T09:43:56Z</time>
      </trkpt>
      <trkpt lat="48.06437" lon="-1.31112">
        <ele>93.39</ele>
        <time>2014-02-16T09:43:57Z</time>
      </trkpt>
      <trkpt lat="48.06443" lon="-1.31111">
        <ele>93.39</ele>
        <time>2014-02-16T09:43:58Z</time>
      </trkpt>
      <trkpt lat="48.06448" lon="-1.3111">
        <ele>93.87</ele>
        <time>2014-02-16T09:43:59Z</time>
      </trkpt>
      <trkpt lat="48.06453" lon="-1.31111">
        <ele>93.87</ele>
        <time>2014-02-16T09:44:00Z</time>
      </trkpt>
      <trkpt lat="48.06459" lon="-1.31111">
        <ele>93.87</ele>
        <time>2014-02-16T09:44:01Z</time>
      </trkpt>
      <trkpt lat="48.06541" lon="-1.3113">
        <ele>94.83</ele>
        <time>2014-02-16T09:44:17Z</time>
      </trkpt>
      <trkpt lat="48.06552" lon="-1.3113">
        <ele>94.83</ele>
        <time>2014-02-16T09:44:19Z</time>
      </trkpt>
      <trkpt lat="48.06557" lon="-1.31128">
        <ele>94.83</ele>
        <time>2014-02-16T09:44:20Z</time>
      </trkpt>
      <trkpt lat="48.06562" lon="-1.31126">
        <ele>96.27</ele>
        <time>2014-02-16T09:44:21Z</time>
      </trkpt>
      <trkpt lat="48.06567" lon="-1.31124">
        <ele>95.31</ele>
        <time>2014-02-16T09:44:22Z</time>
      </trkpt>
      <trkpt lat="48.06572" lon="-1.31121">
        <ele>95.31</ele>
        <time>2014-02-16T09:44:23Z</time>
      </trkpt>
      <trkpt lat="48.06576" lon="-1.31116">
        <ele>95.31</ele>
        <time>2014-02-16T09:44:24Z</time>
      </trkpt>
      <trkpt lat="48.0658" lon="-1.31112">
        <ele>95.79</ele>
        <time>2014-02-16T09:44:25Z</time>
      </trkpt>
      <trkpt lat="48.06589" lon="-1.31102">
        <ele>95.79</ele>
        <time>2014-02-16T09:44:27Z</time>
      </trkpt>
      <trkpt lat="48.06631" lon="-1.3103">
        <ele>96.75</ele>
        <time>2014-02-16T09:44:39Z</time>
      </trkpt>
      <trkpt lat="48.06635" lon="-1.31026">
        <ele>96.75</ele>
        <time>2014-02-16T09:44:40Z</time>
      </trkpt>
      <trkpt lat="48.06639" lon="-1.31023">
        <ele>96.75</ele>
        <time>2014-02-16T09:44:41Z</time>
      </trkpt>
      <trkpt lat="48.06644" lon="-1.3102">
        <ele>96.75</ele>
        <time>2014-02-16T09:44:42Z</time>
      </trkpt>
      <trkpt lat="48.06649" lon="-1.31018">
        <ele>96.27</ele>
        <time>2014-02-16T09:44:43Z</time>
      </trkpt>
      <trkpt lat="48.06655" lon="-1.31017">
        <ele>96.75</ele>
        <time>2014-02-16T09:44:44Z</time>
      </trkpt>
      <trkpt lat="48.0666" lon="-1.31017">
        <ele>96.75</ele>
        <time>2014-02-16T09:44:45Z</time>
      </trkpt>
      <trkpt lat="48.06665" lon="-1.31017">
        <ele>96.75</ele>
        <time>2014-02-16T09:44:46Z</time>
      </trkpt>
      <trkpt lat="48.06696" lon="-1.31023">
        <ele>96.75</ele>
        <time>2014-02-16T09:44:52Z</time>
      </trkpt>
      <trkpt lat="48.06778" lon="-1.31037">
        <ele>97.23</ele>
        <time>2014-02-16T09:45:09Z</time>
      </trkpt>
      <trkpt lat="48.06801" lon="-1.31032">
        <ele>97.23</ele>
        <time>2014-02-16T09:45:16Z</time>
      </trkpt>
      <trkpt lat="48.06803" lon="-1.31028">
        <ele>97.23</ele>
        <time>2014-02-16T09:45:17Z</time>
      </trkpt>
      <trkpt lat="48.06804" lon="-1.31022">
        <ele>97.23</ele>
        <time>2014-02-16T09:45:18Z</time>
      </trkpt>
      <trkpt lat="48.06811" lon="-1.30911">
        <ele>96.75</ele>
        <time>2014-02-16T09:45:32Z</time>
      </trkpt>
      <trkpt lat="48.06808" lon="-1.30758">
        <ele>95.79</ele>
        <time>2014-02-16T09:45:48Z</time>
      </trkpt>
      <trkpt lat="48.06817" lon="-1.30588">
        <ele>93.87</ele>
        <time>2014-02-16T09:46:04Z</time>
      </trkpt>
      <trkpt lat="48.06839" lon="-1.30387">
        <ele>92.42</ele>
        <time>2014-02-16T09:46:23Z</time>
      </trkpt>
      <trkpt lat="48.06861" lon="-1.30189">
        <ele>91.94</ele>
        <time>2014-02-16T09:46:42Z</time>
      </trkpt>
      <trkpt lat="48.0689" lon="-1.29979">
        <ele>91.46</ele>
        <time>2014-02-16T09:47:02Z</time>
      </trkpt>
      <trkpt lat="48.06919" lon="-1.29815">
        <ele>90.98</ele>
        <time>2014-02-16T09:47:18Z</time>
      </trkpt>
      <trkpt lat="48.06951" lon="-1.29629">
        <ele>89.06</ele>
        <time>2014-02-16T09:47:35Z</time>
      </trkpt>
      <trkpt lat="48.06983" lon="-1.29449">
        <ele>86.66</ele>
        <time>2014-02-16T09:47:51Z</time>
      </trkpt>
      <trkpt lat="48.0702" lon="-1.29236">
        <ele>83.77</ele>
        <time>2014-02-16T09:48:09Z</time>
      </trkpt>
      <trkpt lat="48.07035" lon="-1.29054">
        <ele>82.81</ele>
        <time>2014-02-16T09:48:25Z</time>
      </trkpt>
      <trkpt lat="48.07029" lon="-1.28841">
        <ele>79.93</ele>
        <time>2014-02-16T09:48:43Z</time>
      </trkpt>
      <trkpt lat="48.07042" lon="-1.28658">
        <ele>77.04</ele>
        <time>2014-02-16T09:48:58Z</time>
      </trkpt>
      <trkpt lat="48.0706" lon="-1.28528">
        <ele>78</ele>
        <time>2014-02-16T09:49:10Z</time>
      </trkpt>
      <trkpt lat="48.07061" lon="-1.28408">
        <ele>80.89</ele>
        <time>2014-02-16T09:49:22Z</time>
      </trkpt>
      <trkpt lat="48.07078" lon="-1.28255">
        <ele>80.41</ele>
        <time>2014-02-16T09:49:37Z</time>
      </trkpt>
      <trkpt lat="48.07093" lon="-1.2814">
        <ele>80.41</ele>
        <time>2014-02-16T09:49:50Z</time>
      </trkpt>
      <trkpt lat="48.07094" lon="-1.28133">
        <ele>80.41</ele>
        <time>2014-02-16T09:49:51Z</time>
      </trkpt>
      <trkpt lat="48.07094" lon="-1.28118">
        <ele>79.93</ele>
        <time>2014-02-16T09:49:53Z</time>
      </trkpt>
      <trkpt lat="48.07093" lon="-1.28112">
        <ele>79.93</ele>
        <time>2014-02-16T09:49:54Z</time>
      </trkpt>
      <trkpt lat="48.07092" lon="-1.28105">
        <ele>79.93</ele>
        <time>2014-02-16T09:49:55Z</time>
      </trkpt>
      <trkpt lat="48.0709" lon="-1.281">
        <ele>79.93</ele>
        <time>2014-02-16T09:49:56Z</time>
      </trkpt>
      <trkpt lat="48.07088" lon="-1.28096">
        <ele>79.93</ele>
        <time>2014-02-16T09:49:57Z</time>
      </trkpt>
      <trkpt lat="48.07086" lon="-1.28093">
        <ele>79.93</ele>
        <time>2014-02-16T09:49:58Z</time>
      </trkpt>
      <trkpt lat="48.07085" lon="-1.28091">
        <ele>79.93</ele>
        <time>2014-02-16T09:49:59Z</time>
      </trkpt>
      <trkpt lat="48.07084" lon="-1.28091">
        <ele>79.93</ele>
        <time>2014-02-16T09:50:08Z</time>
      </trkpt>
      <trkpt lat="48.07084" lon="-1.2809">
        <ele>79.93</ele>
        <time>2014-02-16T09:50:32Z</time>
      </trkpt>
      <trkpt lat="48.07084" lon="-1.2809">
        <ele>80.41</ele>
        <time>2014-02-16T09:50:54Z</time>
      </trkpt>
      <trkpt lat="48.0708" lon="-1.28069">
        <ele>79.93</ele>
        <time>2014-02-16T09:51:09Z</time>
      </trkpt>
      <trkpt lat="48.07082" lon="-1.28057">
        <ele>79.93</ele>
        <time>2014-02-16T09:51:11Z</time>
      </trkpt>
      <trkpt lat="48.07084" lon="-1.28052">
        <ele>79.45</ele>
        <time>2014-02-16T09:51:12Z</time>
      </trkpt>
      <trkpt lat="48.07103" lon="-1.28006">
        <ele>79.45</ele>
        <time>2014-02-16T09:51:20Z</time>
      </trkpt>
      <trkpt lat="48.07105" lon="-1.28">
        <ele>78.97</ele>
        <time>2014-02-16T09:51:21Z</time>
      </trkpt>
      <trkpt lat="48.07139" lon="-1.2791">
        <ele>79.45</ele>
        <time>2014-02-16T09:51:35Z</time>
      </trkpt>
      <trkpt lat="48.07147" lon="-1.27884">
        <ele>79.45</ele>
        <time>2014-02-16T09:51:39Z</time>
      </trkpt>
      <trkpt lat="48.07147" lon="-1.27877">
        <ele>79.45</ele>
        <time>2014-02-16T09:51:40Z</time>
      </trkpt>
      <trkpt lat="48.07147" lon="-1.27869">
        <ele>79.45</ele>
        <time>2014-02-16T09:51:41Z</time>
      </trkpt>
      <trkpt lat="48.07146" lon="-1.27861">
        <ele>79.45</ele>
        <time>2014-02-16T09:51:42Z</time>
      </trkpt>
      <trkpt lat="48.07144" lon="-1.27853">
        <ele>79.45</ele>
        <time>2014-02-16T09:51:43Z</time>
      </trkpt>
      <trkpt lat="48.07142" lon="-1.27845">
        <ele>79.45</ele>
        <time>2014-02-16T09:51:44Z</time>
      </trkpt>
      <trkpt lat="48.07129" lon="-1.27804">
        <ele>79.45</ele>
        <time>2014-02-16T09:51:49Z</time>
      </trkpt>
      <trkpt lat="48.07127" lon="-1.27796">
        <ele>79.45</ele>
        <time>2014-02-16T09:51:50Z</time>
      </trkpt>
      <trkpt lat="48.07122" lon="-1.27772">
        <ele>79.93</ele>
        <time>2014-02-16T09:51:53Z</time>
      </trkpt>
      <trkpt lat="48.07116" lon="-1.2765">
        <ele>80.89</ele>
        <time>2014-02-16T09:52:08Z</time>
      </trkpt>
      <trkpt lat="48.07108" lon="-1.27529">
        <ele>81.85</ele>
        <time>2014-02-16T09:52:23Z</time>
      </trkpt>
      <trkpt lat="48.07105" lon="-1.27499">
        <ele>82.33</ele>
        <time>2014-02-16T09:52:27Z</time>
      </trkpt>
      <trkpt lat="48.07105" lon="-1.27485">
        <ele>81.85</ele>
        <time>2014-02-16T09:52:29Z</time>
      </trkpt>
      <trkpt lat="48.07101" lon="-1.27447">
        <ele>82.33</ele>
        <time>2014-02-16T09:52:34Z</time>
      </trkpt>
      <trkpt lat="48.07095" lon="-1.27378">
        <ele>82.81</ele>
        <time>2014-02-16T09:52:44Z</time>
      </trkpt>
      <trkpt lat="48.07092" lon="-1.27373">
        <ele>82.81</ele>
        <time>2014-02-16T09:52:45Z</time>
      </trkpt>
      <trkpt lat="48.07087" lon="-1.2737">
        <ele>82.81</ele>
        <time>2014-02-16T09:52:46Z</time>
      </trkpt>
      <trkpt lat="48.07082" lon="-1.27369">
        <ele>82.81</ele>
        <time>2014-02-16T09:52:47Z</time>
      </trkpt>
      <trkpt lat="48.07077" lon="-1.27368">
        <ele>82.81</ele>
        <time>2014-02-16T09:52:48Z</time>
      </trkpt>
      <trkpt lat="48.07071" lon="-1.27368">
        <ele>82.81</ele>
        <time>2014-02-16T09:52:49Z</time>
      </trkpt>
      <trkpt lat="48.07008" lon="-1.27367">
        <ele>84.25</ele>
        <time>2014-02-16T09:53:01Z</time>
      </trkpt>
      <trkpt lat="48.06993" lon="-1.27368">
        <ele>84.25</ele>
        <time>2014-02-16T09:53:04Z</time>
      </trkpt>
      <trkpt lat="48.06988" lon="-1.27369">
        <ele>84.25</ele>
        <time>2014-02-16T09:53:05Z</time>
      </trkpt>
      <trkpt lat="48.06914" lon="-1.27387">
        <ele>85.69</ele>
        <time>2014-02-16T09:53:20Z</time>
      </trkpt>
      <trkpt lat="48.06818" lon="-1.27409">
        <ele>86.66</ele>
        <time>2014-02-16T09:53:39Z</time>
      </trkpt>
      <trkpt lat="48.06732" lon="-1.27409">
        <ele>87.62</ele>
        <time>2014-02-16T09:53:56Z</time>
      </trkpt>
      <trkpt lat="48.06682" lon="-1.27411">
        <ele>88.1</ele>
        <time>2014-02-16T09:54:06Z</time>
      </trkpt>
      <trkpt lat="48.06664" lon="-1.27418">
        <ele>88.58</ele>
        <time>2014-02-16T09:54:10Z</time>
      </trkpt>
      <trkpt lat="48.06648" lon="-1.27426">
        <ele>89.06</ele>
        <time>2014-02-16T09:54:14Z</time>
      </trkpt>
      <trkpt lat="48.06639" lon="-1.2743">
        <ele>89.06</ele>
        <time>2014-02-16T09:54:16Z</time>
      </trkpt>
      <trkpt lat="48.06635" lon="-1.27432">
        <ele>89.06</ele>
        <time>2014-02-16T09:54:17Z</time>
      </trkpt>
      <trkpt lat="48.06618" lon="-1.27437">
        <ele>89.54</ele>
        <time>2014-02-16T09:54:21Z</time>
      </trkpt>
      <trkpt lat="48.06614" lon="-1.27439">
        <ele>90.98</ele>
        <time>2014-02-16T09:54:22Z</time>
      </trkpt>
      <trkpt lat="48.06609" lon="-1.2744">
        <ele>90.02</ele>
        <time>2014-02-16T09:54:23Z</time>
      </trkpt>
      <trkpt lat="48.06598" lon="-1.27444">
        <ele>90.02</ele>
        <time>2014-02-16T09:54:26Z</time>
      </trkpt>
      <trkpt lat="48.06594" lon="-1.27444">
        <ele>90.02</ele>
        <time>2014-02-16T09:54:27Z</time>
      </trkpt>
      <trkpt lat="48.0659" lon="-1.27444">
        <ele>90.5</ele>
        <time>2014-02-16T09:54:28Z</time>
      </trkpt>
      <trkpt lat="48.0655" lon="-1.27447">
        <ele>90.98</ele>
        <time>2014-02-16T09:54:37Z</time>
      </trkpt>
      <trkpt lat="48.06536" lon="-1.2745">
        <ele>91.46</ele>
        <time>2014-02-16T09:54:40Z</time>
      </trkpt>
      <trkpt lat="48.06523" lon="-1.27451">
        <ele>91.46</ele>
        <time>2014-02-16T09:54:43Z</time>
      </trkpt>
      <trkpt lat="48.06518" lon="-1.27452">
        <ele>91.94</ele>
        <time>2014-02-16T09:54:44Z</time>
      </trkpt>
      <trkpt lat="48.06514" lon="-1.27452">
        <ele>91.94</ele>
        <time>2014-02-16T09:54:45Z</time>
      </trkpt>
      <trkpt lat="48.06506" lon="-1.27453">
        <ele>91.94</ele>
        <time>2014-02-16T09:54:47Z</time>
      </trkpt>
      <trkpt lat="48.06443" lon="-1.27485">
        <ele>92.9</ele>
        <time>2014-02-16T09:55:02Z</time>
      </trkpt>
      <trkpt lat="48.06417" lon="-1.27507">
        <ele>92.9</ele>
        <time>2014-02-16T09:55:09Z</time>
      </trkpt>
      <trkpt lat="48.06335" lon="-1.27559">
        <ele>94.35</ele>
        <time>2014-02-16T09:55:27Z</time>
      </trkpt>
      <trkpt lat="48.0627" lon="-1.27593">
        <ele>94.35</ele>
        <time>2014-02-16T09:55:41Z</time>
      </trkpt>
      <trkpt lat="48.06265" lon="-1.27596">
        <ele>94.35</ele>
        <time>2014-02-16T09:55:42Z</time>
      </trkpt>
      <trkpt lat="48.06221" lon="-1.2762">
        <ele>93.87</ele>
        <time>2014-02-16T09:55:52Z</time>
      </trkpt>
      <trkpt lat="48.06217" lon="-1.27622">
        <ele>94.35</ele>
        <time>2014-02-16T09:55:53Z</time>
      </trkpt>
      <trkpt lat="48.06213" lon="-1.27623">
        <ele>94.35</ele>
        <time>2014-02-16T09:55:54Z</time>
      </trkpt>
      <trkpt lat="48.06208" lon="-1.27622">
        <ele>94.35</ele>
        <time>2014-02-16T09:55:55Z</time>
      </trkpt>
      <trkpt lat="48.06205" lon="-1.27619">
        <ele>94.35</ele>
        <time>2014-02-16T09:55:56Z</time>
      </trkpt>
      <trkpt lat="48.06202" lon="-1.27613">
        <ele>94.83</ele>
        <time>2014-02-16T09:55:57Z</time>
      </trkpt>
      <trkpt lat="48.06199" lon="-1.27606">
        <ele>94.35</ele>
        <time>2014-02-16T09:55:58Z</time>
      </trkpt>
      <trkpt lat="48.06197" lon="-1.27598">
        <ele>94.35</ele>
        <time>2014-02-16T09:55:59Z</time>
      </trkpt>
      <trkpt lat="48.06195" lon="-1.2759">
        <ele>94.35</ele>
        <time>2014-02-16T09:56:00Z</time>
      </trkpt>
      <trkpt lat="48.06194" lon="-1.2758">
        <ele>94.35</ele>
        <time>2014-02-16T09:56:01Z</time>
      </trkpt>
      <trkpt lat="48.06181" lon="-1.27489">
        <ele>96.75</ele>
        <time>2014-02-16T09:56:12Z</time>
      </trkpt>
      <trkpt lat="48.06163" lon="-1.27382">
        <ele>98.19</ele>
        <time>2014-02-16T09:56:28Z</time>
      </trkpt>
      <trkpt lat="48.06157" lon="-1.27325">
        <ele>99.15</ele>
        <time>2014-02-16T09:56:36Z</time>
      </trkpt>
      <trkpt lat="48.06156" lon="-1.2731">
        <ele>99.15</ele>
        <time>2014-02-16T09:56:38Z</time>
      </trkpt>
      <trkpt lat="48.06164" lon="-1.2719">
        <ele>99.63</ele>
        <time>2014-02-16T09:56:54Z</time>
      </trkpt>
      <trkpt lat="48.06166" lon="-1.27159">
        <ele>99.63</ele>
        <time>2014-02-16T09:56:58Z</time>
      </trkpt>
      <trkpt lat="48.06167" lon="-1.27105">
        <ele>100.11</ele>
        <time>2014-02-16T09:57:06Z</time>
      </trkpt>
      <trkpt lat="48.06169" lon="-1.27089">
        <ele>99.63</ele>
        <time>2014-02-16T09:57:08Z</time>
      </trkpt>
      <trkpt lat="48.06171" lon="-1.27082">
        <ele>99.63</ele>
        <time>2014-02-16T09:57:09Z</time>
      </trkpt>
      <trkpt lat="48.06173" lon="-1.27075">
        <ele>99.63</ele>
        <time>2014-02-16T09:57:10Z</time>
      </trkpt>
      <trkpt lat="48.06174" lon="-1.27067">
        <ele>99.15</ele>
        <time>2014-02-16T09:57:11Z</time>
      </trkpt>
      <trkpt lat="48.06175" lon="-1.27059">
        <ele>99.15</ele>
        <time>2014-02-16T09:57:12Z</time>
      </trkpt>
      <trkpt lat="48.06176" lon="-1.2705">
        <ele>99.15</ele>
        <time>2014-02-16T09:57:13Z</time>
      </trkpt>
      <trkpt lat="48.06176" lon="-1.27041">
        <ele>98.67</ele>
        <time>2014-02-16T09:57:14Z</time>
      </trkpt>
      <trkpt lat="48.06177" lon="-1.26983">
        <ele>99.15</ele>
        <time>2014-02-16T09:57:21Z</time>
      </trkpt>
      <trkpt lat="48.06177" lon="-1.26975">
        <ele>99.15</ele>
        <time>2014-02-16T09:57:22Z</time>
      </trkpt>
      <trkpt lat="48.06177" lon="-1.26865">
        <ele>98.19</ele>
        <time>2014-02-16T09:57:36Z</time>
      </trkpt>
      <trkpt lat="48.06178" lon="-1.26827">
        <ele>97.23</ele>
        <time>2014-02-16T09:57:41Z</time>
      </trkpt>
      <trkpt lat="48.06177" lon="-1.26778">
        <ele>96.27</ele>
        <time>2014-02-16T09:57:48Z</time>
      </trkpt>
      <trkpt lat="48.06174" lon="-1.26772">
        <ele>96.27</ele>
        <time>2014-02-16T09:57:49Z</time>
      </trkpt>
      <trkpt lat="48.06171" lon="-1.26769">
        <ele>96.27</ele>
        <time>2014-02-16T09:57:50Z</time>
      </trkpt>
      <trkpt lat="48.06166" lon="-1.26767">
        <ele>96.27</ele>
        <time>2014-02-16T09:57:51Z</time>
      </trkpt>
      <trkpt lat="48.06162" lon="-1.26768">
        <ele>96.27</ele>
        <time>2014-02-16T09:57:52Z</time>
      </trkpt>
      <trkpt lat="48.06158" lon="-1.26768">
        <ele>96.27</ele>
        <time>2014-02-16T09:57:53Z</time>
      </trkpt>
      <trkpt lat="48.06094" lon="-1.26783">
        <ele>96.27</ele>
        <time>2014-02-16T09:58:07Z</time>
      </trkpt>
      <trkpt lat="48.06012" lon="-1.26813">
        <ele>96.75</ele>
        <time>2014-02-16T09:58:23Z</time>
      </trkpt>
      <trkpt lat="48.05927" lon="-1.26825">
        <ele>97.23</ele>
        <time>2014-02-16T09:58:39Z</time>
      </trkpt>
      <trkpt lat="48.05906" lon="-1.26831">
        <ele>96.75</ele>
        <time>2014-02-16T09:58:43Z</time>
      </trkpt>
      <trkpt lat="48.05895" lon="-1.26836">
        <ele>96.27</ele>
        <time>2014-02-16T09:58:45Z</time>
      </trkpt>
      <trkpt lat="48.0589" lon="-1.26838">
        <ele>96.27</ele>
        <time>2014-02-16T09:58:46Z</time>
      </trkpt>
      <trkpt lat="48.05885" lon="-1.26842">
        <ele>96.27</ele>
        <time>2014-02-16T09:58:47Z</time>
      </trkpt>
      <trkpt lat="48.05875" lon="-1.2685">
        <ele>96.27</ele>
        <time>2014-02-16T09:58:49Z</time>
      </trkpt>
      <trkpt lat="48.05808" lon="-1.26909">
        <ele>96.75</ele>
        <time>2014-02-16T09:59:03Z</time>
      </trkpt>
      <trkpt lat="48.05803" lon="-1.26911">
        <ele>96.75</ele>
        <time>2014-02-16T09:59:04Z</time>
      </trkpt>
      <trkpt lat="48.05737" lon="-1.26915">
        <ele>98.19</ele>
        <time>2014-02-16T09:59:17Z</time>
      </trkpt>
      <trkpt lat="48.05728" lon="-1.26914">
        <ele>97.71</ele>
        <time>2014-02-16T09:59:19Z</time>
      </trkpt>
      <trkpt lat="48.05712" lon="-1.26913">
        <ele>98.19</ele>
        <time>2014-02-16T09:59:23Z</time>
      </trkpt>
      <trkpt lat="48.0567" lon="-1.26907">
        <ele>99.15</ele>
        <time>2014-02-16T09:59:32Z</time>
      </trkpt>
      <trkpt lat="48.05666" lon="-1.26906">
        <ele>98.67</ele>
        <time>2014-02-16T09:59:33Z</time>
      </trkpt>
      <trkpt lat="48.05588" lon="-1.26896">
        <ele>99.63</ele>
        <time>2014-02-16T09:59:50Z</time>
      </trkpt>
      <trkpt lat="48.05505" lon="-1.26876">
        <ele>99.63</ele>
        <time>2014-02-16T10:00:07Z</time>
      </trkpt>
      <trkpt lat="48.05424" lon="-1.26857">
        <ele>101.08</ele>
        <time>2014-02-16T10:00:25Z</time>
      </trkpt>
      <trkpt lat="48.05402" lon="-1.2685">
        <ele>101.56</ele>
        <time>2014-02-16T10:00:30Z</time>
      </trkpt>
      <trkpt lat="48.05393" lon="-1.26849">
        <ele>101.56</ele>
        <time>2014-02-16T10:00:32Z</time>
      </trkpt>
      <trkpt lat="48.05383" lon="-1.26847">
        <ele>101.56</ele>
        <time>2014-02-16T10:00:34Z</time>
      </trkpt>
      <trkpt lat="48.05307" lon="-1.26843">
        <ele>101.08</ele>
        <time>2014-02-16T10:00:49Z</time>
      </trkpt>
      <trkpt lat="48.05283" lon="-1.26841">
        <ele>101.08</ele>
        <time>2014-02-16T10:00:54Z</time>
      </trkpt>
      <trkpt lat="48.05278" lon="-1.26839">
        <ele>101.08</ele>
        <time>2014-02-16T10:00:55Z</time>
      </trkpt>
      <trkpt lat="48.05273" lon="-1.26838">
        <ele>101.08</ele>
        <time>2014-02-16T10:00:56Z</time>
      </trkpt>
      <trkpt lat="48.05264" lon="-1.26832">
        <ele>101.08</ele>
        <time>2014-02-16T10:00:58Z</time>
      </trkpt>
      <trkpt lat="48.05253" lon="-1.26822">
        <ele>101.08</ele>
        <time>2014-02-16T10:01:01Z</time>
      </trkpt>
      <trkpt lat="48.05227" lon="-1.26789">
        <ele>101.08</ele>
        <time>2014-02-16T10:01:10Z</time>
      </trkpt>
      <trkpt lat="48.05202" lon="-1.26766">
        <ele>100.6</ele>
        <time>2014-02-16T10:01:16Z</time>
      </trkpt>
      <trkpt lat="48.05198" lon="-1.26763">
        <ele>100.11</ele>
        <time>2014-02-16T10:01:17Z</time>
      </trkpt>
      <trkpt lat="48.05135" lon="-1.2672">
        <ele>99.63</ele>
        <time>2014-02-16T10:01:30Z</time>
      </trkpt>
      <trkpt lat="48.05063" lon="-1.26681">
        <ele>98.67</ele>
        <time>2014-02-16T10:01:44Z</time>
      </trkpt>
      <trkpt lat="48.04974" lon="-1.26646">
        <ele>96.27</ele>
        <time>2014-02-16T10:02:00Z</time>
      </trkpt>
      <trkpt lat="48.04894" lon="-1.26617">
        <ele>96.27</ele>
        <time>2014-02-16T10:02:15Z</time>
      </trkpt>
      <trkpt lat="48.04816" lon="-1.26595">
        <ele>96.75</ele>
        <time>2014-02-16T10:02:32Z</time>
      </trkpt>
      <trkpt lat="48.04806" lon="-1.26594">
        <ele>97.23</ele>
        <time>2014-02-16T10:02:34Z</time>
      </trkpt>
      <trkpt lat="48.04786" lon="-1.26601">
        <ele>97.23</ele>
        <time>2014-02-16T10:02:39Z</time>
      </trkpt>
      <trkpt lat="48.04736" lon="-1.26622">
        <ele>98.19</ele>
        <time>2014-02-16T10:02:52Z</time>
      </trkpt>
      <trkpt lat="48.04732" lon="-1.26621">
        <ele>98.19</ele>
        <time>2014-02-16T10:02:53Z</time>
      </trkpt>
      <trkpt lat="48.04703" lon="-1.26607">
        <ele>99.15</ele>
        <time>2014-02-16T10:03:01Z</time>
      </trkpt>
      <trkpt lat="48.04693" lon="-1.26599">
        <ele>99.15</ele>
        <time>2014-02-16T10:03:04Z</time>
      </trkpt>
      <trkpt lat="48.04653" lon="-1.26577">
        <ele>99.63</ele>
        <time>2014-02-16T10:03:15Z</time>
      </trkpt>
      <trkpt lat="48.04581" lon="-1.26569">
        <ele>98.67</ele>
        <time>2014-02-16T10:03:32Z</time>
      </trkpt>
      <trkpt lat="48.04559" lon="-1.26562">
        <ele>98.67</ele>
        <time>2014-02-16T10:03:37Z</time>
      </trkpt>
      <trkpt lat="48.04513" lon="-1.26509">
        <ele>97.71</ele>
        <time>2014-02-16T10:03:49Z</time>
      </trkpt>
      <trkpt lat="48.04466" lon="-1.26438">
        <ele>96.75</ele>
        <time>2014-02-16T10:04:02Z</time>
      </trkpt>
      <trkpt lat="48.04457" lon="-1.2643">
        <ele>96.27</ele>
        <time>2014-02-16T10:04:04Z</time>
      </trkpt>
      <trkpt lat="48.04452" lon="-1.26426">
        <ele>96.27</ele>
        <time>2014-02-16T10:04:05Z</time>
      </trkpt>
      <trkpt lat="48.04447" lon="-1.26424">
        <ele>96.27</ele>
        <time>2014-02-16T10:04:06Z</time>
      </trkpt>
      <trkpt lat="48.04431" lon="-1.2642">
        <ele>95.79</ele>
        <time>2014-02-16T10:04:09Z</time>
      </trkpt>
      <trkpt lat="48.04426" lon="-1.2642">
        <ele>95.79</ele>
        <time>2014-02-16T10:04:10Z</time>
      </trkpt>
      <trkpt lat="48.04341" lon="-1.26425">
        <ele>95.79</ele>
        <time>2014-02-16T10:04:27Z</time>
      </trkpt>
      <trkpt lat="48.04252" lon="-1.26438">
        <ele>96.75</ele>
        <time>2014-02-16T10:04:46Z</time>
      </trkpt>
      <trkpt lat="48.04171" lon="-1.26446">
        <ele>96.27</ele>
        <time>2014-02-16T10:05:03Z</time>
      </trkpt>
      <trkpt lat="48.04065" lon="-1.26463">
        <ele>92.9</ele>
        <time>2014-02-16T10:05:22Z</time>
      </trkpt>
      <trkpt lat="48.0402" lon="-1.26471">
        <ele>91.46</ele>
        <time>2014-02-16T10:05:30Z</time>
      </trkpt>
      <trkpt lat="48.04015" lon="-1.26471">
        <ele>91.46</ele>
        <time>2014-02-16T10:05:31Z</time>
      </trkpt>
      <trkpt lat="48.03931" lon="-1.26465">
        <ele>90.5</ele>
        <time>2014-02-16T10:05:48Z</time>
      </trkpt>
      <trkpt lat="48.03916" lon="-1.26449">
        <ele>90.5</ele>
        <time>2014-02-16T10:05:57Z</time>
      </trkpt>
      <trkpt lat="48.03915" lon="-1.26448">
        <ele>90.5</ele>
        <time>2014-02-16T10:06:13Z</time>
      </trkpt>
      <trkpt lat="48.03915" lon="-1.26447">
        <ele>90.98</ele>
        <time>2014-02-16T10:06:38Z</time>
      </trkpt>
      <trkpt lat="48.03915" lon="-1.26446">
        <ele>90.5</ele>
        <time>2014-02-16T10:07:04Z</time>
      </trkpt>
      <trkpt lat="48.03914" lon="-1.26446">
        <ele>90.98</ele>
        <time>2014-02-16T10:07:28Z</time>
      </trkpt>
      <trkpt lat="48.03914" lon="-1.26447">
        <ele>90.5</ele>
        <time>2014-02-16T10:07:48Z</time>
      </trkpt>
      <trkpt lat="48.03914" lon="-1.26449">
        <ele>90.98</ele>
        <time>2014-02-16T10:07:59Z</time>
      </trkpt>
      <trkpt lat="48.03914" lon="-1.26452">
        <ele>90.98</ele>
        <time>2014-02-16T10:08:14Z</time>
      </trkpt>
      <trkpt lat="48.03913" lon="-1.26454">
        <ele>90.98</ele>
        <time>2014-02-16T10:08:34Z</time>
      </trkpt>
      <trkpt lat="48.03916" lon="-1.26456">
        <ele>90.98</ele>
        <time>2014-02-16T10:08:47Z</time>
      </trkpt>
      <trkpt lat="48.03915" lon="-1.26457">
        <ele>90.98</ele>
        <time>2014-02-16T10:09:06Z</time>
      </trkpt>
      <trkpt lat="48.03917" lon="-1.26458">
        <ele>90.5</ele>
        <time>2014-02-16T10:09:31Z</time>
      </trkpt>
      <trkpt lat="48.03916" lon="-1.2646">
        <ele>90.98</ele>
        <time>2014-02-16T10:09:56Z</time>
      </trkpt>
      <trkpt lat="48.03916" lon="-1.26459">
        <ele>90.5</ele>
        <time>2014-02-16T10:10:09Z</time>
      </trkpt>
      <trkpt lat="48.03915" lon="-1.26459">
        <ele>90.98</ele>
        <time>2014-02-16T10:10:32Z</time>
      </trkpt>
      <trkpt lat="48.03914" lon="-1.26458">
        <ele>91.46</ele>
        <time>2014-02-16T10:10:48Z</time>
      </trkpt>
      <trkpt lat="48.03913" lon="-1.26457">
        <ele>90.98</ele>
        <time>2014-02-16T10:10:53Z</time>
      </trkpt>
      <trkpt lat="48.03901" lon="-1.26456">
        <ele>90.98</ele>
        <time>2014-02-16T10:11:03Z</time>
      </trkpt>
      <trkpt lat="48.03892" lon="-1.26462">
        <ele>90.98</ele>
        <time>2014-02-16T10:11:07Z</time>
      </trkpt>
      <trkpt lat="48.03891" lon="-1.26465">
        <ele>90.5</ele>
        <time>2014-02-16T10:11:08Z</time>
      </trkpt>
      <trkpt lat="48.03879" lon="-1.26479">
        <ele>90.02</ele>
        <time>2014-02-16T10:11:13Z</time>
      </trkpt>
      <trkpt lat="48.03875" lon="-1.2648">
        <ele>90.02</ele>
        <time>2014-02-16T10:11:14Z</time>
      </trkpt>
      <trkpt lat="48.03797" lon="-1.26496">
        <ele>89.06</ele>
        <time>2014-02-16T10:11:30Z</time>
      </trkpt>
      <trkpt lat="48.03722" lon="-1.2652">
        <ele>89.54</ele>
        <time>2014-02-16T10:11:44Z</time>
      </trkpt>
      <trkpt lat="48.03669" lon="-1.26528">
        <ele>89.06</ele>
        <time>2014-02-16T10:11:53Z</time>
      </trkpt>
      <trkpt lat="48.03654" lon="-1.26531">
        <ele>89.06</ele>
        <time>2014-02-16T10:11:56Z</time>
      </trkpt>
      <trkpt lat="48.03649" lon="-1.26532">
        <ele>89.54</ele>
        <time>2014-02-16T10:11:57Z</time>
      </trkpt>
      <trkpt lat="48.03645" lon="-1.26532">
        <ele>89.54</ele>
        <time>2014-02-16T10:11:58Z</time>
      </trkpt>
      <trkpt lat="48.0363" lon="-1.26529">
        <ele>90.02</ele>
        <time>2014-02-16T10:12:03Z</time>
      </trkpt>
      <trkpt lat="48.03629" lon="-1.26525">
        <ele>90.02</ele>
        <time>2014-02-16T10:12:04Z</time>
      </trkpt>
      <trkpt lat="48.03629" lon="-1.26519">
        <ele>90.5</ele>
        <time>2014-02-16T10:12:05Z</time>
      </trkpt>
      <trkpt lat="48.03628" lon="-1.26512">
        <ele>90.5</ele>
        <time>2014-02-16T10:12:06Z</time>
      </trkpt>
      <trkpt lat="48.03628" lon="-1.26504">
        <ele>90.5</ele>
        <time>2014-02-16T10:12:07Z</time>
      </trkpt>
      <trkpt lat="48.0363" lon="-1.26405">
        <ele>88.58</ele>
        <time>2014-02-16T10:12:18Z</time>
      </trkpt>
      <trkpt lat="48.03633" lon="-1.26395">
        <ele>88.58</ele>
        <time>2014-02-16T10:12:19Z</time>
      </trkpt>
      <trkpt lat="48.03636" lon="-1.26385">
        <ele>88.58</ele>
        <time>2014-02-16T10:12:20Z</time>
      </trkpt>
      <trkpt lat="48.03697" lon="-1.2622">
        <ele>85.69</ele>
        <time>2014-02-16T10:12:36Z</time>
      </trkpt>
      <trkpt lat="48.03756" lon="-1.26065">
        <ele>87.14</ele>
        <time>2014-02-16T10:12:52Z</time>
      </trkpt>
      <trkpt lat="48.03802" lon="-1.25887">
        <ele>85.69</ele>
        <time>2014-02-16T10:13:09Z</time>
      </trkpt>
      <trkpt lat="48.03823" lon="-1.25698">
        <ele>84.25</ele>
        <time>2014-02-16T10:13:25Z</time>
      </trkpt>
      <trkpt lat="48.03842" lon="-1.25529">
        <ele>85.21</ele>
        <time>2014-02-16T10:13:41Z</time>
      </trkpt>
      <trkpt lat="48.03859" lon="-1.25372">
        <ele>87.14</ele>
        <time>2014-02-16T10:13:57Z</time>
      </trkpt>
      <trkpt lat="48.03874" lon="-1.25229">
        <ele>89.54</ele>
        <time>2014-02-16T10:14:13Z</time>
      </trkpt>
      <trkpt lat="48.03879" lon="-1.25179">
        <ele>91.46</ele>
        <time>2014-02-16T10:14:19Z</time>
      </trkpt>
      <trkpt lat="48.03887" lon="-1.25132">
        <ele>93.39</ele>
        <time>2014-02-16T10:14:25Z</time>
      </trkpt>
      <trkpt lat="48.03896" lon="-1.25094">
        <ele>94.83</ele>
        <time>2014-02-16T10:14:30Z</time>
      </trkpt>
      <trkpt lat="48.03898" lon="-1.25087">
        <ele>95.31</ele>
        <time>2014-02-16T10:14:31Z</time>
      </trkpt>
      <trkpt lat="48.0391" lon="-1.25057">
        <ele>95.79</ele>
        <time>2014-02-16T10:14:35Z</time>
      </trkpt>
      <trkpt lat="48.03913" lon="-1.25049">
        <ele>96.27</ele>
        <time>2014-02-16T10:14:36Z</time>
      </trkpt>
      <trkpt lat="48.03984" lon="-1.24952">
        <ele>97.23</ele>
        <time>2014-02-16T10:14:51Z</time>
      </trkpt>
      <trkpt lat="48.04083" lon="-1.24885">
        <ele>94.83</ele>
        <time>2014-02-16T10:15:05Z</time>
      </trkpt>
      <trkpt lat="48.04178" lon="-1.24792">
        <ele>93.87</ele>
        <time>2014-02-16T10:15:19Z</time>
      </trkpt>
      <trkpt lat="48.0426" lon="-1.24669">
        <ele>95.31</ele>
        <time>2014-02-16T10:15:35Z</time>
      </trkpt>
      <trkpt lat="48.0434" lon="-1.24548">
        <ele>95.31</ele>
        <time>2014-02-16T10:15:51Z</time>
      </trkpt>
      <trkpt lat="48.04433" lon="-1.24407">
        <ele>96.27</ele>
        <time>2014-02-16T10:16:09Z</time>
      </trkpt>
      <trkpt lat="48.04517" lon="-1.24281">
        <ele>97.71</ele>
        <time>2014-02-16T10:16:26Z</time>
      </trkpt>
      <trkpt lat="48.04599" lon="-1.24158">
        <ele>99.63</ele>
        <time>2014-02-16T10:16:43Z</time>
      </trkpt>
      <trkpt lat="48.04674" lon="-1.24047">
        <ele>102.04</ele>
        <time>2014-02-16T10:16:59Z</time>
      </trkpt>
      <trkpt lat="48.04678" lon="-1.24043">
        <ele>102.04</ele>
        <time>2014-02-16T10:17:00Z</time>
      </trkpt>
      <trkpt lat="48.04684" lon="-1.2404">
        <ele>102.04</ele>
        <time>2014-02-16T10:17:01Z</time>
      </trkpt>
      <trkpt lat="48.0469" lon="-1.2404">
        <ele>102.04</ele>
        <time>2014-02-16T10:17:02Z</time>
      </trkpt>
      <trkpt lat="48.04696" lon="-1.24043">
        <ele>102.04</ele>
        <time>2014-02-16T10:17:03Z</time>
      </trkpt>
      <trkpt lat="48.04702" lon="-1.24046">
        <ele>102.52</ele>
        <time>2014-02-16T10:17:04Z</time>
      </trkpt>
      <trkpt lat="48.04707" lon="-1.24051">
        <ele>102.52</ele>
        <time>2014-02-16T10:17:05Z</time>
      </trkpt>
      <trkpt lat="48.04805" lon="-1.24116">
        <ele>103.48</ele>
        <time>2014-02-16T10:17:21Z</time>
      </trkpt>
      <trkpt lat="48.04908" lon="-1.2418">
        <ele>105.4</ele>
        <time>2014-02-16T10:17:37Z</time>
      </trkpt>
      <trkpt lat="48.05016" lon="-1.24229">
        <ele>104.92</ele>
        <time>2014-02-16T10:17:52Z</time>
      </trkpt>
      <trkpt lat="48.05136" lon="-1.2429">
        <ele>103.48</ele>
        <time>2014-02-16T10:18:08Z</time>
      </trkpt>
      <trkpt lat="48.05223" lon="-1.24392">
        <ele>104.44</ele>
        <time>2014-02-16T10:18:22Z</time>
      </trkpt>
      <trkpt lat="48.05313" lon="-1.2447">
        <ele>106.36</ele>
        <time>2014-02-16T10:18:36Z</time>
      </trkpt>
      <trkpt lat="48.05412" lon="-1.24519">
        <ele>106.84</ele>
        <time>2014-02-16T10:18:50Z</time>
      </trkpt>
      <trkpt lat="48.05506" lon="-1.24564">
        <ele>103.96</ele>
        <time>2014-02-16T10:19:01Z</time>
      </trkpt>
      <trkpt lat="48.05598" lon="-1.246">
        <ele>100.6</ele>
        <time>2014-02-16T10:19:10Z</time>
      </trkpt>
      <trkpt lat="48.05743" lon="-1.24608">
        <ele>100.11</ele>
        <time>2014-02-16T10:19:24Z</time>
      </trkpt>
      <trkpt lat="48.05806" lon="-1.24599">
        <ele>101.08</ele>
        <time>2014-02-16T10:19:31Z</time>
      </trkpt>
      <trkpt lat="48.05815" lon="-1.246">
        <ele>101.56</ele>
        <time>2014-02-16T10:19:32Z</time>
      </trkpt>
      <trkpt lat="48.05823" lon="-1.24601">
        <ele>101.56</ele>
        <time>2014-02-16T10:19:33Z</time>
      </trkpt>
      <trkpt lat="48.05944" lon="-1.24636">
        <ele>101.56</ele>
        <time>2014-02-16T10:19:47Z</time>
      </trkpt>
      <trkpt lat="48.05952" lon="-1.24639">
        <ele>101.56</ele>
        <time>2014-02-16T10:19:48Z</time>
      </trkpt>
      <trkpt lat="48.06079" lon="-1.24678">
        <ele>98.67</ele>
        <time>2014-02-16T10:20:02Z</time>
      </trkpt>
      <trkpt lat="48.06169" lon="-1.24663">
        <ele>99.15</ele>
        <time>2014-02-16T10:20:12Z</time>
      </trkpt>
      <trkpt lat="48.06302" lon="-1.246">
        <ele>100.6</ele>
        <time>2014-02-16T10:20:29Z</time>
      </trkpt>
      <trkpt lat="48.064" lon="-1.24599">
        <ele>101.08</ele>
        <time>2014-02-16T10:20:41Z</time>
      </trkpt>
      <trkpt lat="48.06518" lon="-1.24616">
        <ele>100.6</ele>
        <time>2014-02-16T10:20:55Z</time>
      </trkpt>
      <trkpt lat="48.06668" lon="-1.24633">
        <ele>98.67</ele>
        <time>2014-02-16T10:21:12Z</time>
      </trkpt>
      <trkpt lat="48.06736" lon="-1.24618">
        <ele>97.71</ele>
        <time>2014-02-16T10:21:20Z</time>
      </trkpt>
      <trkpt lat="48.06743" lon="-1.24613">
        <ele>97.71</ele>
        <time>2014-02-16T10:21:21Z</time>
      </trkpt>
      <trkpt lat="48.0675" lon="-1.24607">
        <ele>97.71</ele>
        <time>2014-02-16T10:21:22Z</time>
      </trkpt>
      <trkpt lat="48.06796" lon="-1.24559">
        <ele>97.23</ele>
        <time>2014-02-16T10:21:30Z</time>
      </trkpt>
      <trkpt lat="48.06807" lon="-1.24545">
        <ele>96.75</ele>
        <time>2014-02-16T10:21:34Z</time>
      </trkpt>
      <trkpt lat="48.06811" lon="-1.24541">
        <ele>96.75</ele>
        <time>2014-02-16T10:21:35Z</time>
      </trkpt>
      <trkpt lat="48.06816" lon="-1.24536">
        <ele>96.27</ele>
        <time>2014-02-16T10:21:36Z</time>
      </trkpt>
      <trkpt lat="48.06895" lon="-1.24464">
        <ele>94.35</ele>
        <time>2014-02-16T10:21:48Z</time>
      </trkpt>
      <trkpt lat="48.06997" lon="-1.24364">
        <ele>90.98</ele>
        <time>2014-02-16T10:22:02Z</time>
      </trkpt>
      <trkpt lat="48.0711" lon="-1.24194">
        <ele>90.5</ele>
        <time>2014-02-16T10:22:20Z</time>
      </trkpt>
      <trkpt lat="48.07122" lon="-1.2418">
        <ele>91.46</ele>
        <time>2014-02-16T10:22:22Z</time>
      </trkpt>
      <trkpt lat="48.07146" lon="-1.24157">
        <ele>92.9</ele>
        <time>2014-02-16T10:22:26Z</time>
      </trkpt>
      <trkpt lat="48.07157" lon="-1.24146">
        <ele>93.39</ele>
        <time>2014-02-16T10:22:28Z</time>
      </trkpt>
      <trkpt lat="48.0718" lon="-1.24126">
        <ele>95.31</ele>
        <time>2014-02-16T10:22:32Z</time>
      </trkpt>
      <trkpt lat="48.07186" lon="-1.24121">
        <ele>95.79</ele>
        <time>2014-02-16T10:22:33Z</time>
      </trkpt>
      <trkpt lat="48.07192" lon="-1.24115">
        <ele>95.79</ele>
        <time>2014-02-16T10:22:34Z</time>
      </trkpt>
      <trkpt lat="48.07197" lon="-1.2411">
        <ele>96.27</ele>
        <time>2014-02-16T10:22:35Z</time>
      </trkpt>
      <trkpt lat="48.07203" lon="-1.24105">
        <ele>96.75</ele>
        <time>2014-02-16T10:22:36Z</time>
      </trkpt>
      <trkpt lat="48.07209" lon="-1.24101">
        <ele>96.75</ele>
        <time>2014-02-16T10:22:37Z</time>
      </trkpt>
      <trkpt lat="48.0722" lon="-1.24091">
        <ele>97.71</ele>
        <time>2014-02-16T10:22:39Z</time>
      </trkpt>
      <trkpt lat="48.07232" lon="-1.24082">
        <ele>98.19</ele>
        <time>2014-02-16T10:22:41Z</time>
      </trkpt>
      <trkpt lat="48.07244" lon="-1.24071">
        <ele>98.67</ele>
        <time>2014-02-16T10:22:43Z</time>
      </trkpt>
      <trkpt lat="48.0725" lon="-1.24066">
        <ele>98.67</ele>
        <time>2014-02-16T10:22:44Z</time>
      </trkpt>
      <trkpt lat="48.07339" lon="-1.23984">
        <ele>99.63</ele>
        <time>2014-02-16T10:22:58Z</time>
      </trkpt>
      <trkpt lat="48.07467" lon="-1.23839">
        <ele>98.67</ele>
        <time>2014-02-16T10:23:17Z</time>
      </trkpt>
      <trkpt lat="48.07574" lon="-1.23715">
        <ele>100.11</ele>
        <time>2014-02-16T10:23:34Z</time>
      </trkpt>
      <trkpt lat="48.07683" lon="-1.23588">
        <ele>102.04</ele>
        <time>2014-02-16T10:23:52Z</time>
      </trkpt>
      <trkpt lat="48.07778" lon="-1.23488">
        <ele>104.44</ele>
        <time>2014-02-16T10:24:08Z</time>
      </trkpt>
      <trkpt lat="48.07872" lon="-1.23413">
        <ele>106.84</ele>
        <time>2014-02-16T10:24:23Z</time>
      </trkpt>
      <trkpt lat="48.07903" lon="-1.23388">
        <ele>107.32</ele>
        <time>2014-02-16T10:24:28Z</time>
      </trkpt>
      <trkpt lat="48.07995" lon="-1.2329">
        <ele>105.88</ele>
        <time>2014-02-16T10:24:43Z</time>
      </trkpt>
      <trkpt lat="48.08093" lon="-1.23189">
        <ele>102.52</ele>
        <time>2014-02-16T10:24:56Z</time>
      </trkpt>
      <trkpt lat="48.08148" lon="-1.23143">
        <ele>99.15</ele>
        <time>2014-02-16T10:25:02Z</time>
      </trkpt>
      <trkpt lat="48.08185" lon="-1.23111">
        <ele>97.71</ele>
        <time>2014-02-16T10:25:06Z</time>
      </trkpt>
      <trkpt lat="48.08316" lon="-1.23014">
        <ele>95.79</ele>
        <time>2014-02-16T10:25:20Z</time>
      </trkpt>
      <trkpt lat="48.08428" lon="-1.22979">
        <ele>92.42</ele>
        <time>2014-02-16T10:25:31Z</time>
      </trkpt>
      <trkpt lat="48.0848" lon="-1.22951">
        <ele>89.06</ele>
        <time>2014-02-16T10:25:36Z</time>
      </trkpt>
      <trkpt lat="48.08557" lon="-1.22911">
        <ele>85.21</ele>
        <time>2014-02-16T10:25:43Z</time>
      </trkpt>
      <trkpt lat="48.08603" lon="-1.22888">
        <ele>81.85</ele>
        <time>2014-02-16T10:25:47Z</time>
      </trkpt>
      <trkpt lat="48.08615" lon="-1.22884">
        <ele>80.89</ele>
        <time>2014-02-16T10:25:48Z</time>
      </trkpt>
      <trkpt lat="48.08628" lon="-1.22882">
        <ele>80.41</ele>
        <time>2014-02-16T10:25:49Z</time>
      </trkpt>
      <trkpt lat="48.08641" lon="-1.22883">
        <ele>79.93</ele>
        <time>2014-02-16T10:25:50Z</time>
      </trkpt>
      <trkpt lat="48.08653" lon="-1.22886">
        <ele>79.45</ele>
        <time>2014-02-16T10:25:51Z</time>
      </trkpt>
      <trkpt lat="48.08666" lon="-1.2289">
        <ele>78.48</ele>
        <time>2014-02-16T10:25:52Z</time>
      </trkpt>
      <trkpt lat="48.08702" lon="-1.22904">
        <ele>77.52</ele>
        <time>2014-02-16T10:25:55Z</time>
      </trkpt>
      <trkpt lat="48.08738" lon="-1.22912">
        <ele>75.6</ele>
        <time>2014-02-16T10:25:58Z</time>
      </trkpt>
      <trkpt lat="48.0875" lon="-1.22911">
        <ele>75.6</ele>
        <time>2014-02-16T10:25:59Z</time>
      </trkpt>
      <trkpt lat="48.08762" lon="-1.22909">
        <ele>75.12</ele>
        <time>2014-02-16T10:26:00Z</time>
      </trkpt>
      <trkpt lat="48.08856" lon="-1.22878">
        <ele>71.76</ele>
        <time>2014-02-16T10:26:08Z</time>
      </trkpt>
      <trkpt lat="48.08909" lon="-1.22835">
        <ele>67.91</ele>
        <time>2014-02-16T10:26:13Z</time>
      </trkpt>
      <trkpt lat="48.08946" lon="-1.22787">
        <ele>64.55</ele>
        <time>2014-02-16T10:26:17Z</time>
      </trkpt>
      <trkpt lat="48.08973" lon="-1.22753">
        <ele>62.14</ele>
        <time>2014-02-16T10:26:20Z</time>
      </trkpt>
      <trkpt lat="48.08983" lon="-1.22744">
        <ele>61.66</ele>
        <time>2014-02-16T10:26:21Z</time>
      </trkpt>
      <trkpt lat="48.08993" lon="-1.22737">
        <ele>61.66</ele>
        <time>2014-02-16T10:26:22Z</time>
      </trkpt>
      <trkpt lat="48.09003" lon="-1.2273">
        <ele>61.66</ele>
        <time>2014-02-16T10:26:23Z</time>
      </trkpt>
      <trkpt lat="48.09014" lon="-1.22725">
        <ele>61.66</ele>
        <time>2014-02-16T10:26:24Z</time>
      </trkpt>
      <trkpt lat="48.09024" lon="-1.22721">
        <ele>62.62</ele>
        <time>2014-02-16T10:26:25Z</time>
      </trkpt>
      <trkpt lat="48.09161" lon="-1.22648">
        <ele>61.18</ele>
        <time>2014-02-16T10:26:40Z</time>
      </trkpt>
      <trkpt lat="48.09223" lon="-1.22612">
        <ele>64.55</ele>
        <time>2014-02-16T10:26:48Z</time>
      </trkpt>
      <trkpt lat="48.0923" lon="-1.22608">
        <ele>65.03</ele>
        <time>2014-02-16T10:26:49Z</time>
      </trkpt>
      <trkpt lat="48.09284" lon="-1.22572">
        <ele>68.39</ele>
        <time>2014-02-16T10:26:58Z</time>
      </trkpt>
      <trkpt lat="48.09294" lon="-1.22565">
        <ele>68.87</ele>
        <time>2014-02-16T10:27:00Z</time>
      </trkpt>
      <trkpt lat="48.09299" lon="-1.22561">
        <ele>69.35</ele>
        <time>2014-02-16T10:27:01Z</time>
      </trkpt>
      <trkpt lat="48.09308" lon="-1.22554">
        <ele>69.83</ele>
        <time>2014-02-16T10:27:03Z</time>
      </trkpt>
      <trkpt lat="48.0932" lon="-1.22543">
        <ele>70.79</ele>
        <time>2014-02-16T10:27:06Z</time>
      </trkpt>
      <trkpt lat="48.09349" lon="-1.2251">
        <ele>74.16</ele>
        <time>2014-02-16T10:27:14Z</time>
      </trkpt>
      <trkpt lat="48.09352" lon="-1.22506">
        <ele>74.16</ele>
        <time>2014-02-16T10:27:15Z</time>
      </trkpt>
      <trkpt lat="48.09369" lon="-1.22487">
        <ele>76.08</ele>
        <time>2014-02-16T10:27:20Z</time>
      </trkpt>
      <trkpt lat="48.09382" lon="-1.2247">
        <ele>77.52</ele>
        <time>2014-02-16T10:27:24Z</time>
      </trkpt>
      <trkpt lat="48.09443" lon="-1.22409">
        <ele>80.41</ele>
        <time>2014-02-16T10:27:38Z</time>
      </trkpt>
      <trkpt lat="48.09494" lon="-1.22354">
        <ele>81.37</ele>
        <time>2014-02-16T10:27:49Z</time>
      </trkpt>
      <trkpt lat="48.09499" lon="-1.22349">
        <ele>81.85</ele>
        <time>2014-02-16T10:27:50Z</time>
      </trkpt>
      <trkpt lat="48.0954" lon="-1.22305">
        <ele>84.73</ele>
        <time>2014-02-16T10:28:00Z</time>
      </trkpt>
      <trkpt lat="48.0955" lon="-1.22292">
        <ele>86.18</ele>
        <time>2014-02-16T10:28:03Z</time>
      </trkpt>
      <trkpt lat="48.09554" lon="-1.22288">
        <ele>86.18</ele>
        <time>2014-02-16T10:28:04Z</time>
      </trkpt>
      <trkpt lat="48.09558" lon="-1.22285">
        <ele>86.66</ele>
        <time>2014-02-16T10:28:05Z</time>
      </trkpt>
      <trkpt lat="48.09565" lon="-1.22278">
        <ele>87.14</ele>
        <time>2014-02-16T10:28:07Z</time>
      </trkpt>
      <trkpt lat="48.09569" lon="-1.22274">
        <ele>87.14</ele>
        <time>2014-02-16T10:28:08Z</time>
      </trkpt>
      <trkpt lat="48.09585" lon="-1.22255">
        <ele>89.06</ele>
        <time>2014-02-16T10:28:13Z</time>
      </trkpt>
      <trkpt lat="48.09609" lon="-1.22229">
        <ele>90.98</ele>
        <time>2014-02-16T10:28:20Z</time>
      </trkpt>
      <trkpt lat="48.09613" lon="-1.22227">
        <ele>91.46</ele>
        <time>2014-02-16T10:28:21Z</time>
      </trkpt>
      <trkpt lat="48.09624" lon="-1.22219">
        <ele>92.42</ele>
        <time>2014-02-16T10:28:24Z</time>
      </trkpt>
      <trkpt lat="48.09645" lon="-1.22199">
        <ele>94.35</ele>
        <time>2014-02-16T10:28:30Z</time>
      </trkpt>
      <trkpt lat="48.09649" lon="-1.22197">
        <ele>94.83</ele>
        <time>2014-02-16T10:28:31Z</time>
      </trkpt>
      <trkpt lat="48.09652" lon="-1.22195">
        <ele>94.83</ele>
        <time>2014-02-16T10:28:32Z</time>
      </trkpt>
      <trkpt lat="48.09661" lon="-1.22189">
        <ele>95.79</ele>
        <time>2014-02-16T10:28:34Z</time>
      </trkpt>
      <trkpt lat="48.09696" lon="-1.2216">
        <ele>99.15</ele>
        <time>2014-02-16T10:28:44Z</time>
      </trkpt>
      <trkpt lat="48.09745" lon="-1.22126">
        <ele>100.11</ele>
        <time>2014-02-16T10:28:55Z</time>
      </trkpt>
      <trkpt lat="48.0975" lon="-1.22122">
        <ele>100.11</ele>
        <time>2014-02-16T10:28:56Z</time>
      </trkpt>
      <trkpt lat="48.09789" lon="-1.22093">
        <ele>99.63</ele>
        <time>2014-02-16T10:29:03Z</time>
      </trkpt>
      <trkpt lat="48.09831" lon="-1.22058">
        <ele>102.52</ele>
        <time>2014-02-16T10:29:12Z</time>
      </trkpt>
      <trkpt lat="48.09835" lon="-1.22055">
        <ele>103</ele>
        <time>2014-02-16T10:29:13Z</time>
      </trkpt>
      <trkpt lat="48.0984" lon="-1.22052">
        <ele>103</ele>
        <time>2014-02-16T10:29:14Z</time>
      </trkpt>
      <trkpt lat="48.09848" lon="-1.22046">
        <ele>103.96</ele>
        <time>2014-02-16T10:29:16Z</time>
      </trkpt>
      <trkpt lat="48.09884" lon="-1.22018">
        <ele>107.32</ele>
        <time>2014-02-16T10:29:25Z</time>
      </trkpt>
      <trkpt lat="48.09931" lon="-1.21979">
        <ele>110.21</ele>
        <time>2014-02-16T10:29:37Z</time>
      </trkpt>
      <trkpt lat="48.09943" lon="-1.2197">
        <ele>110.69</ele>
        <time>2014-02-16T10:29:40Z</time>
      </trkpt>
      <trkpt lat="48.09981" lon="-1.2194">
        <ele>113.09</ele>
        <time>2014-02-16T10:29:49Z</time>
      </trkpt>
      <trkpt lat="48.09985" lon="-1.21936">
        <ele>113.09</ele>
        <time>2014-02-16T10:29:50Z</time>
      </trkpt>
      <trkpt lat="48.09989" lon="-1.21933">
        <ele>113.57</ele>
        <time>2014-02-16T10:29:51Z</time>
      </trkpt>
      <trkpt lat="48.10067" lon="-1.2188">
        <ele>115.5</ele>
        <time>2014-02-16T10:30:07Z</time>
      </trkpt>
      <trkpt lat="48.10155" lon="-1.21835">
        <ele>113.57</ele>
        <time>2014-02-16T10:30:20Z</time>
      </trkpt>
      <trkpt lat="48.10214" lon="-1.21804">
        <ele>110.21</ele>
        <time>2014-02-16T10:30:27Z</time>
      </trkpt>
      <trkpt lat="48.10281" lon="-1.21771">
        <ele>107.32</ele>
        <time>2014-02-16T10:30:34Z</time>
      </trkpt>
      <trkpt lat="48.10291" lon="-1.21768">
        <ele>106.36</ele>
        <time>2014-02-16T10:30:35Z</time>
      </trkpt>
      <trkpt lat="48.10302" lon="-1.21766">
        <ele>106.36</ele>
        <time>2014-02-16T10:30:36Z</time>
      </trkpt>
      <trkpt lat="48.10409" lon="-1.21767">
        <ele>104.44</ele>
        <time>2014-02-16T10:30:47Z</time>
      </trkpt>
      <trkpt lat="48.10501" lon="-1.2173">
        <ele>103.96</ele>
        <time>2014-02-16T10:30:58Z</time>
      </trkpt>
      <trkpt lat="48.10583" lon="-1.21642">
        <ele>107.32</ele>
        <time>2014-02-16T10:31:11Z</time>
      </trkpt>
      <trkpt lat="48.10671" lon="-1.21562">
        <ele>108.77</ele>
        <time>2014-02-16T10:31:25Z</time>
      </trkpt>
      <trkpt lat="48.10768" lon="-1.21503">
        <ele>110.69</ele>
        <time>2014-02-16T10:31:39Z</time>
      </trkpt>
      <trkpt lat="48.1086" lon="-1.21458">
        <ele>113.57</ele>
        <time>2014-02-16T10:31:54Z</time>
      </trkpt>
      <trkpt lat="48.10877" lon="-1.21451">
        <ele>114.05</ele>
        <time>2014-02-16T10:31:57Z</time>
      </trkpt>
      <trkpt lat="48.10883" lon="-1.21452">
        <ele>114.05</ele>
        <time>2014-02-16T10:31:58Z</time>
      </trkpt>
      <trkpt lat="48.10888" lon="-1.21456">
        <ele>114.53</ele>
        <time>2014-02-16T10:31:59Z</time>
      </trkpt>
      <trkpt lat="48.10892" lon="-1.21462">
        <ele>114.53</ele>
        <time>2014-02-16T10:32:00Z</time>
      </trkpt>
      <trkpt lat="48.10895" lon="-1.21469">
        <ele>114.53</ele>
        <time>2014-02-16T10:32:01Z</time>
      </trkpt>
      <trkpt lat="48.10896" lon="-1.21478">
        <ele>114.53</ele>
        <time>2014-02-16T10:32:02Z</time>
      </trkpt>
      <trkpt lat="48.10898" lon="-1.21486">
        <ele>114.53</ele>
        <time>2014-02-16T10:32:03Z</time>
      </trkpt>
      <trkpt lat="48.10913" lon="-1.21548">
        <ele>114.05</ele>
        <time>2014-02-16T10:32:10Z</time>
      </trkpt>
      <trkpt lat="48.10925" lon="-1.21574">
        <ele>114.05</ele>
        <time>2014-02-16T10:32:14Z</time>
      </trkpt>
      <trkpt lat="48.10929" lon="-1.21578">
        <ele>113.57</ele>
        <time>2014-02-16T10:32:15Z</time>
      </trkpt>
      <trkpt lat="48.10933" lon="-1.21581">
        <ele>113.57</ele>
        <time>2014-02-16T10:32:16Z</time>
      </trkpt>
      <trkpt lat="48.10938" lon="-1.21584">
        <ele>114.05</ele>
        <time>2014-02-16T10:32:17Z</time>
      </trkpt>
      <trkpt lat="48.10941" lon="-1.21589">
        <ele>114.05</ele>
        <time>2014-02-16T10:32:18Z</time>
      </trkpt>
      <trkpt lat="48.10943" lon="-1.21596">
        <ele>113.57</ele>
        <time>2014-02-16T10:32:19Z</time>
      </trkpt>
      <trkpt lat="48.10942" lon="-1.21603">
        <ele>113.57</ele>
        <time>2014-02-16T10:32:20Z</time>
      </trkpt>
      <trkpt lat="48.10939" lon="-1.21611">
        <ele>113.09</ele>
        <time>2014-02-16T10:32:21Z</time>
      </trkpt>
      <trkpt lat="48.10935" lon="-1.21617">
        <ele>112.61</ele>
        <time>2014-02-16T10:32:22Z</time>
      </trkpt>
      <trkpt lat="48.10929" lon="-1.21623">
        <ele>112.61</ele>
        <time>2014-02-16T10:32:23Z</time>
      </trkpt>
      <trkpt lat="48.10924" lon="-1.21629">
        <ele>112.13</ele>
        <time>2014-02-16T10:32:24Z</time>
      </trkpt>
      <trkpt lat="48.10919" lon="-1.21636">
        <ele>112.13</ele>
        <time>2014-02-16T10:32:25Z</time>
      </trkpt>
      <trkpt lat="48.10861" lon="-1.2172">
        <ele>109.25</ele>
        <time>2014-02-16T10:32:35Z</time>
      </trkpt>
      <trkpt lat="48.10809" lon="-1.21796">
        <ele>105.88</ele>
        <time>2014-02-16T10:32:43Z</time>
      </trkpt>
      <trkpt lat="48.10789" lon="-1.21826">
        <ele>103.96</ele>
        <time>2014-02-16T10:32:46Z</time>
      </trkpt>
      <trkpt lat="48.10723" lon="-1.21928">
        <ele>100.6</ele>
        <time>2014-02-16T10:32:56Z</time>
      </trkpt>
      <trkpt lat="48.10634" lon="-1.22056">
        <ele>98.67</ele>
        <time>2014-02-16T10:33:10Z</time>
      </trkpt>
      <trkpt lat="48.10529" lon="-1.22122">
        <ele>95.79</ele>
        <time>2014-02-16T10:33:23Z</time>
      </trkpt>
      <trkpt lat="48.1038" lon="-1.222">
        <ele>92.9</ele>
        <time>2014-02-16T10:33:42Z</time>
      </trkpt>
      <trkpt lat="48.10285" lon="-1.22251">
        <ele>91.46</ele>
        <time>2014-02-16T10:33:55Z</time>
      </trkpt>
      <trkpt lat="48.10163" lon="-1.22319">
        <ele>89.54</ele>
        <time>2014-02-16T10:34:11Z</time>
      </trkpt>
      <trkpt lat="48.10055" lon="-1.22393">
        <ele>87.14</ele>
        <time>2014-02-16T10:34:25Z</time>
      </trkpt>
      <trkpt lat="48.09979" lon="-1.22462">
        <ele>83.77</ele>
        <time>2014-02-16T10:34:35Z</time>
      </trkpt>
      <trkpt lat="48.0995" lon="-1.22486">
        <ele>82.33</ele>
        <time>2014-02-16T10:34:39Z</time>
      </trkpt>
      <trkpt lat="48.09876" lon="-1.22536">
        <ele>79.45</ele>
        <time>2014-02-16T10:34:49Z</time>
      </trkpt>
      <trkpt lat="48.0978" lon="-1.22567">
        <ele>76.08</ele>
        <time>2014-02-16T10:35:01Z</time>
      </trkpt>
      <trkpt lat="48.09676" lon="-1.22572">
        <ele>75.12</ele>
        <time>2014-02-16T10:35:15Z</time>
      </trkpt>
      <trkpt lat="48.0961" lon="-1.22572">
        <ele>75.6</ele>
        <time>2014-02-16T10:35:26Z</time>
      </trkpt>
      <trkpt lat="48.09591" lon="-1.22613">
        <ele>77.52</ele>
        <time>2014-02-16T10:35:33Z</time>
      </trkpt>
      <trkpt lat="48.09592" lon="-1.22631">
        <ele>77.04</ele>
        <time>2014-02-16T10:35:35Z</time>
      </trkpt>
      <trkpt lat="48.0959" lon="-1.22675">
        <ele>75.6</ele>
        <time>2014-02-16T10:35:39Z</time>
      </trkpt>
      <trkpt lat="48.09586" lon="-1.22698">
        <ele>74.64</ele>
        <time>2014-02-16T10:35:41Z</time>
      </trkpt>
      <trkpt lat="48.09583" lon="-1.2271">
        <ele>73.68</ele>
        <time>2014-02-16T10:35:42Z</time>
      </trkpt>
      <trkpt lat="48.09575" lon="-1.22733">
        <ele>72.24</ele>
        <time>2014-02-16T10:35:44Z</time>
      </trkpt>
      <trkpt lat="48.0957" lon="-1.22744">
        <ele>71.76</ele>
        <time>2014-02-16T10:35:45Z</time>
      </trkpt>
      <trkpt lat="48.09528" lon="-1.22809">
        <ele>68.87</ele>
        <time>2014-02-16T10:35:52Z</time>
      </trkpt>
      <trkpt lat="48.09436" lon="-1.22942">
        <ele>65.51</ele>
        <time>2014-02-16T10:36:08Z</time>
      </trkpt>
      <trkpt lat="48.09349" lon="-1.2307">
        <ele>62.14</ele>
        <time>2014-02-16T10:36:23Z</time>
      </trkpt>
      <trkpt lat="48.09262" lon="-1.23197">
        <ele>63.1</ele>
        <time>2014-02-16T10:36:39Z</time>
      </trkpt>
      <trkpt lat="48.0918" lon="-1.23315">
        <ele>62.14</ele>
        <time>2014-02-16T10:36:55Z</time>
      </trkpt>
      <trkpt lat="48.09105" lon="-1.23423">
        <ele>64.07</ele>
        <time>2014-02-16T10:37:12Z</time>
      </trkpt>
      <trkpt lat="48.09053" lon="-1.23493">
        <ele>66.95</ele>
        <time>2014-02-16T10:37:24Z</time>
      </trkpt>
      <trkpt lat="48.08994" lon="-1.23585">
        <ele>70.31</ele>
        <time>2014-02-16T10:37:40Z</time>
      </trkpt>
      <trkpt lat="48.08943" lon="-1.23675">
        <ele>73.2</ele>
        <time>2014-02-16T10:37:56Z</time>
      </trkpt>
      <trkpt lat="48.08915" lon="-1.23726">
        <ele>74.64</ele>
        <time>2014-02-16T10:38:05Z</time>
      </trkpt>
      <trkpt lat="48.08886" lon="-1.23812">
        <ele>78</ele>
        <time>2014-02-16T10:38:18Z</time>
      </trkpt>
      <trkpt lat="48.08869" lon="-1.23918">
        <ele>80.89</ele>
        <time>2014-02-16T10:38:33Z</time>
      </trkpt>
      <trkpt lat="48.08862" lon="-1.2403">
        <ele>84.25</ele>
        <time>2014-02-16T10:38:49Z</time>
      </trkpt>
      <trkpt lat="48.08855" lon="-1.24079">
        <ele>85.69</ele>
        <time>2014-02-16T10:38:56Z</time>
      </trkpt>
      <trkpt lat="48.08848" lon="-1.24105">
        <ele>86.66</ele>
        <time>2014-02-16T10:39:00Z</time>
      </trkpt>
      <trkpt lat="48.08808" lon="-1.24206">
        <ele>89.06</ele>
        <time>2014-02-16T10:39:17Z</time>
      </trkpt>
      <trkpt lat="48.08767" lon="-1.24305">
        <ele>91.46</ele>
        <time>2014-02-16T10:39:34Z</time>
      </trkpt>
      <trkpt lat="48.08753" lon="-1.24339">
        <ele>92.9</ele>
        <time>2014-02-16T10:39:40Z</time>
      </trkpt>
      <trkpt lat="48.08745" lon="-1.24354">
        <ele>92.9</ele>
        <time>2014-02-16T10:39:43Z</time>
      </trkpt>
      <trkpt lat="48.08744" lon="-1.2436">
        <ele>93.39</ele>
        <time>2014-02-16T10:39:44Z</time>
      </trkpt>
      <trkpt lat="48.08742" lon="-1.24365">
        <ele>93.87</ele>
        <time>2014-02-16T10:39:45Z</time>
      </trkpt>
      <trkpt lat="48.0874" lon="-1.24371">
        <ele>93.87</ele>
        <time>2014-02-16T10:39:46Z</time>
      </trkpt>
      <trkpt lat="48.08738" lon="-1.24376">
        <ele>93.87</ele>
        <time>2014-02-16T10:39:47Z</time>
      </trkpt>
      <trkpt lat="48.08735" lon="-1.24381">
        <ele>93.87</ele>
        <time>2014-02-16T10:39:48Z</time>
      </trkpt>
      <trkpt lat="48.08733" lon="-1.24385">
        <ele>94.35</ele>
        <time>2014-02-16T10:39:49Z</time>
      </trkpt>
      <trkpt lat="48.08728" lon="-1.24395">
        <ele>94.35</ele>
        <time>2014-02-16T10:39:51Z</time>
      </trkpt>
      <trkpt lat="48.08726" lon="-1.244">
        <ele>94.83</ele>
        <time>2014-02-16T10:39:52Z</time>
      </trkpt>
      <trkpt lat="48.08724" lon="-1.24406">
        <ele>94.83</ele>
        <time>2014-02-16T10:39:53Z</time>
      </trkpt>
      <trkpt lat="48.08722" lon="-1.24412">
        <ele>94.83</ele>
        <time>2014-02-16T10:39:54Z</time>
      </trkpt>
      <trkpt lat="48.08721" lon="-1.24417">
        <ele>94.83</ele>
        <time>2014-02-16T10:39:55Z</time>
      </trkpt>
      <trkpt lat="48.08718" lon="-1.24423">
        <ele>95.31</ele>
        <time>2014-02-16T10:39:56Z</time>
      </trkpt>
      <trkpt lat="48.08716" lon="-1.24429">
        <ele>95.31</ele>
        <time>2014-02-16T10:39:57Z</time>
      </trkpt>
      <trkpt lat="48.08714" lon="-1.24434">
        <ele>95.79</ele>
        <time>2014-02-16T10:39:58Z</time>
      </trkpt>
      <trkpt lat="48.08711" lon="-1.24439">
        <ele>95.79</ele>
        <time>2014-02-16T10:39:59Z</time>
      </trkpt>
      <trkpt lat="48.08704" lon="-1.24455">
        <ele>96.27</ele>
        <time>2014-02-16T10:40:02Z</time>
      </trkpt>
      <trkpt lat="48.08664" lon="-1.24554">
        <ele>100.11</ele>
        <time>2014-02-16T10:40:19Z</time>
      </trkpt>
      <trkpt lat="48.08624" lon="-1.24656">
        <ele>102.52</ele>
        <time>2014-02-16T10:40:37Z</time>
      </trkpt>
      <trkpt lat="48.08614" lon="-1.24678">
        <ele>103.96</ele>
        <time>2014-02-16T10:40:41Z</time>
      </trkpt>
      <trkpt lat="48.08611" lon="-1.24683">
        <ele>103.96</ele>
        <time>2014-02-16T10:40:42Z</time>
      </trkpt>
      <trkpt lat="48.08572" lon="-1.24777">
        <ele>106.84</ele>
        <time>2014-02-16T10:40:58Z</time>
      </trkpt>
      <trkpt lat="48.08539" lon="-1.24858">
        <ele>108.77</ele>
        <time>2014-02-16T10:41:11Z</time>
      </trkpt>
      <trkpt lat="48.08536" lon="-1.24864">
        <ele>109.25</ele>
        <time>2014-02-16T10:41:12Z</time>
      </trkpt>
      <trkpt lat="48.08529" lon="-1.24882">
        <ele>109.73</ele>
        <time>2014-02-16T10:41:15Z</time>
      </trkpt>
      <trkpt lat="48.08483" lon="-1.24994">
        <ele>110.21</ele>
        <time>2014-02-16T10:41:33Z</time>
      </trkpt>
      <trkpt lat="48.08431" lon="-1.25102">
        <ele>110.21</ele>
        <time>2014-02-16T10:41:49Z</time>
      </trkpt>
      <trkpt lat="48.08369" lon="-1.25223">
        <ele>108.29</ele>
        <time>2014-02-16T10:42:04Z</time>
      </trkpt>
      <trkpt lat="48.08305" lon="-1.25351">
        <ele>105.4</ele>
        <time>2014-02-16T10:42:19Z</time>
      </trkpt>
      <trkpt lat="48.08245" lon="-1.25467">
        <ele>102.04</ele>
        <time>2014-02-16T10:42:32Z</time>
      </trkpt>
      <trkpt lat="48.0818" lon="-1.25594">
        <ele>98.67</ele>
        <time>2014-02-16T10:42:46Z</time>
      </trkpt>
      <trkpt lat="48.08112" lon="-1.25729">
        <ele>98.19</ele>
        <time>2014-02-16T10:43:03Z</time>
      </trkpt>
      <trkpt lat="48.08056" lon="-1.25839">
        <ele>98.19</ele>
        <time>2014-02-16T10:43:17Z</time>
      </trkpt>
      <trkpt lat="48.07992" lon="-1.25966">
        <ele>97.71</ele>
        <time>2014-02-16T10:43:33Z</time>
      </trkpt>
      <trkpt lat="48.07938" lon="-1.26073">
        <ele>96.75</ele>
        <time>2014-02-16T10:43:47Z</time>
      </trkpt>
      <trkpt lat="48.07903" lon="-1.26125">
        <ele>97.23</ele>
        <time>2014-02-16T10:43:55Z</time>
      </trkpt>
      <trkpt lat="48.079" lon="-1.26133">
        <ele>97.23</ele>
        <time>2014-02-16T10:43:56Z</time>
      </trkpt>
      <trkpt lat="48.07899" lon="-1.26142">
        <ele>97.23</ele>
        <time>2014-02-16T10:43:57Z</time>
      </trkpt>
      <trkpt lat="48.07898" lon="-1.26151">
        <ele>97.23</ele>
        <time>2014-02-16T10:43:58Z</time>
      </trkpt>
      <trkpt lat="48.07896" lon="-1.2616">
        <ele>96.75</ele>
        <time>2014-02-16T10:43:59Z</time>
      </trkpt>
      <trkpt lat="48.07893" lon="-1.26169">
        <ele>96.75</ele>
        <time>2014-02-16T10:44:00Z</time>
      </trkpt>
      <trkpt lat="48.07889" lon="-1.26176">
        <ele>96.75</ele>
        <time>2014-02-16T10:44:01Z</time>
      </trkpt>
      <trkpt lat="48.07883" lon="-1.26182">
        <ele>96.75</ele>
        <time>2014-02-16T10:44:02Z</time>
      </trkpt>
      <trkpt lat="48.07878" lon="-1.26186">
        <ele>96.75</ele>
        <time>2014-02-16T10:44:03Z</time>
      </trkpt>
      <trkpt lat="48.07872" lon="-1.26191">
        <ele>97.23</ele>
        <time>2014-02-16T10:44:04Z</time>
      </trkpt>
      <trkpt lat="48.07868" lon="-1.26197">
        <ele>96.75</ele>
        <time>2014-02-16T10:44:05Z</time>
      </trkpt>
      <trkpt lat="48.07864" lon="-1.26205">
        <ele>97.23</ele>
        <time>2014-02-16T10:44:06Z</time>
      </trkpt>
      <trkpt lat="48.07861" lon="-1.26214">
        <ele>97.23</ele>
        <time>2014-02-16T10:44:07Z</time>
      </trkpt>
      <trkpt lat="48.07812" lon="-1.2633">
        <ele>96.27</ele>
        <time>2014-02-16T10:44:21Z</time>
      </trkpt>
      <trkpt lat="48.07743" lon="-1.26457">
        <ele>95.31</ele>
        <time>2014-02-16T10:44:37Z</time>
      </trkpt>
      <trkpt lat="48.0768" lon="-1.2658">
        <ele>92.42</ele>
        <time>2014-02-16T10:44:51Z</time>
      </trkpt>
      <trkpt lat="48.07675" lon="-1.2659">
        <ele>92.42</ele>
        <time>2014-02-16T10:44:52Z</time>
      </trkpt>
      <trkpt lat="48.07626" lon="-1.26687">
        <ele>89.54</ele>
        <time>2014-02-16T10:45:02Z</time>
      </trkpt>
      <trkpt lat="48.07581" lon="-1.26776">
        <ele>86.18</ele>
        <time>2014-02-16T10:45:11Z</time>
      </trkpt>
      <trkpt lat="48.07546" lon="-1.26846">
        <ele>83.29</ele>
        <time>2014-02-16T10:45:18Z</time>
      </trkpt>
      <trkpt lat="48.07537" lon="-1.26865">
        <ele>81.85</ele>
        <time>2014-02-16T10:45:20Z</time>
      </trkpt>
      <trkpt lat="48.07484" lon="-1.2697">
        <ele>78.97</ele>
        <time>2014-02-16T10:45:31Z</time>
      </trkpt>
      <trkpt lat="48.07416" lon="-1.27126">
        <ele>78.48</ele>
        <time>2014-02-16T10:45:47Z</time>
      </trkpt>
      <trkpt lat="48.07368" lon="-1.27252">
        <ele>80.89</ele>
        <time>2014-02-16T10:46:02Z</time>
      </trkpt>
      <trkpt lat="48.07362" lon="-1.27268">
        <ele>81.85</ele>
        <time>2014-02-16T10:46:04Z</time>
      </trkpt>
      <trkpt lat="48.07343" lon="-1.2732">
        <ele>82.81</ele>
        <time>2014-02-16T10:46:11Z</time>
      </trkpt>
      <trkpt lat="48.07339" lon="-1.27326">
        <ele>82.81</ele>
        <time>2014-02-16T10:46:12Z</time>
      </trkpt>
      <trkpt lat="48.07334" lon="-1.2733">
        <ele>83.29</ele>
        <time>2014-02-16T10:46:13Z</time>
      </trkpt>
      <trkpt lat="48.07328" lon="-1.27333">
        <ele>82.81</ele>
        <time>2014-02-16T10:46:14Z</time>
      </trkpt>
      <trkpt lat="48.07323" lon="-1.27334">
        <ele>83.29</ele>
        <time>2014-02-16T10:46:15Z</time>
      </trkpt>
      <trkpt lat="48.07317" lon="-1.27334">
        <ele>82.81</ele>
        <time>2014-02-16T10:46:16Z</time>
      </trkpt>
      <trkpt lat="48.07229" lon="-1.27349">
        <ele>83.77</ele>
        <time>2014-02-16T10:46:31Z</time>
      </trkpt>
      <trkpt lat="48.07166" lon="-1.27362">
        <ele>84.25</ele>
        <time>2014-02-16T10:46:43Z</time>
      </trkpt>
      <trkpt lat="48.07106" lon="-1.27373">
        <ele>86.18</ele>
        <time>2014-02-16T10:46:56Z</time>
      </trkpt>
      <trkpt lat="48.07099" lon="-1.27373">
        <ele>85.69</ele>
        <time>2014-02-16T10:47:04Z</time>
      </trkpt>
      <trkpt lat="48.07083" lon="-1.27371">
        <ele>86.18</ele>
        <time>2014-02-16T10:47:08Z</time>
      </trkpt>
      <trkpt lat="48.07068" lon="-1.27369">
        <ele>85.69</ele>
        <time>2014-02-16T10:47:11Z</time>
      </trkpt>
      <trkpt lat="48.07058" lon="-1.27368">
        <ele>86.66</ele>
        <time>2014-02-16T10:47:13Z</time>
      </trkpt>
      <trkpt lat="48.07047" lon="-1.27366">
        <ele>86.66</ele>
        <time>2014-02-16T10:47:15Z</time>
      </trkpt>
      <trkpt lat="48.06964" lon="-1.27378">
        <ele>87.62</ele>
        <time>2014-02-16T10:47:30Z</time>
      </trkpt>
      <trkpt lat="48.06877" lon="-1.27397">
        <ele>88.58</ele>
        <time>2014-02-16T10:47:46Z</time>
      </trkpt>
      <trkpt lat="48.06791" lon="-1.27416">
        <ele>90.5</ele>
        <time>2014-02-16T10:48:02Z</time>
      </trkpt>
      <trkpt lat="48.06711" lon="-1.27408">
        <ele>90.5</ele>
        <time>2014-02-16T10:48:17Z</time>
      </trkpt>
      <trkpt lat="48.06658" lon="-1.27424">
        <ele>92.42</ele>
        <time>2014-02-16T10:48:28Z</time>
      </trkpt>
      <trkpt lat="48.06653" lon="-1.27425">
        <ele>91.46</ele>
        <time>2014-02-16T10:48:29Z</time>
      </trkpt>
      <trkpt lat="48.06648" lon="-1.27427">
        <ele>91.46</ele>
        <time>2014-02-16T10:48:30Z</time>
      </trkpt>
      <trkpt lat="48.06625" lon="-1.27436">
        <ele>92.42</ele>
        <time>2014-02-16T10:48:35Z</time>
      </trkpt>
      <trkpt lat="48.06596" lon="-1.27443">
        <ele>93.39</ele>
        <time>2014-02-16T10:48:41Z</time>
      </trkpt>
      <trkpt lat="48.06592" lon="-1.27444">
        <ele>93.39</ele>
        <time>2014-02-16T10:48:42Z</time>
      </trkpt>
      <trkpt lat="48.06587" lon="-1.27444">
        <ele>93.87</ele>
        <time>2014-02-16T10:48:43Z</time>
      </trkpt>
      <trkpt lat="48.06582" lon="-1.27445">
        <ele>93.87</ele>
        <time>2014-02-16T10:48:44Z</time>
      </trkpt>
      <trkpt lat="48.06577" lon="-1.27446">
        <ele>93.39</ele>
        <time>2014-02-16T10:48:45Z</time>
      </trkpt>
      <trkpt lat="48.06572" lon="-1.27447">
        <ele>93.87</ele>
        <time>2014-02-16T10:48:46Z</time>
      </trkpt>
      <trkpt lat="48.06482" lon="-1.27462">
        <ele>95.31</ele>
        <time>2014-02-16T10:49:04Z</time>
      </trkpt>
      <trkpt lat="48.06414" lon="-1.2751">
        <ele>96.27</ele>
        <time>2014-02-16T10:49:19Z</time>
      </trkpt>
      <trkpt lat="48.06392" lon="-1.27524">
        <ele>96.27</ele>
        <time>2014-02-16T10:49:24Z</time>
      </trkpt>
      <trkpt lat="48.06317" lon="-1.27569">
        <ele>97.23</ele>
        <time>2014-02-16T10:49:40Z</time>
      </trkpt>
      <trkpt lat="48.06242" lon="-1.2761">
        <ele>97.23</ele>
        <time>2014-02-16T10:49:55Z</time>
      </trkpt>
      <trkpt lat="48.0616" lon="-1.27666">
        <ele>97.23</ele>
        <time>2014-02-16T10:50:12Z</time>
      </trkpt>
      <trkpt lat="48.06076" lon="-1.27714">
        <ele>97.23</ele>
        <time>2014-02-16T10:50:29Z</time>
      </trkpt>
      <trkpt lat="48.05989" lon="-1.27752">
        <ele>95.79</ele>
        <time>2014-02-16T10:50:46Z</time>
      </trkpt>
      <trkpt lat="48.05921" lon="-1.2778">
        <ele>96.75</ele>
        <time>2014-02-16T10:51:00Z</time>
      </trkpt>
      <trkpt lat="48.05904" lon="-1.27797">
        <ele>96.75</ele>
        <time>2014-02-16T10:51:04Z</time>
      </trkpt>
      <trkpt lat="48.05862" lon="-1.27845">
        <ele>97.23</ele>
        <time>2014-02-16T10:51:14Z</time>
      </trkpt>
      <trkpt lat="48.05857" lon="-1.2785">
        <ele>97.23</ele>
        <time>2014-02-16T10:51:15Z</time>
      </trkpt>
      <trkpt lat="48.05792" lon="-1.27938">
        <ele>96.75</ele>
        <time>2014-02-16T10:51:31Z</time>
      </trkpt>
      <trkpt lat="48.05774" lon="-1.27958">
        <ele>96.27</ele>
        <time>2014-02-16T10:51:35Z</time>
      </trkpt>
      <trkpt lat="48.05696" lon="-1.28014">
        <ele>94.83</ele>
        <time>2014-02-16T10:51:50Z</time>
      </trkpt>
      <trkpt lat="48.05645" lon="-1.28048">
        <ele>92.42</ele>
        <time>2014-02-16T10:51:59Z</time>
      </trkpt>
      <trkpt lat="48.0556" lon="-1.2809">
        <ele>92.42</ele>
        <time>2014-02-16T10:52:15Z</time>
      </trkpt>
      <trkpt lat="48.05484" lon="-1.28109">
        <ele>93.87</ele>
        <time>2014-02-16T10:52:30Z</time>
      </trkpt>
      <trkpt lat="48.05474" lon="-1.28112">
        <ele>93.87</ele>
        <time>2014-02-16T10:52:32Z</time>
      </trkpt>
      <trkpt lat="48.05469" lon="-1.28115">
        <ele>93.87</ele>
        <time>2014-02-16T10:52:33Z</time>
      </trkpt>
      <trkpt lat="48.05465" lon="-1.28118">
        <ele>93.87</ele>
        <time>2014-02-16T10:52:34Z</time>
      </trkpt>
      <trkpt lat="48.05452" lon="-1.2813">
        <ele>93.87</ele>
        <time>2014-02-16T10:52:37Z</time>
      </trkpt>
      <trkpt lat="48.05397" lon="-1.28218">
        <ele>91.46</ele>
        <time>2014-02-16T10:52:52Z</time>
      </trkpt>
      <trkpt lat="48.05336" lon="-1.28328">
        <ele>89.06</ele>
        <time>2014-02-16T10:53:07Z</time>
      </trkpt>
      <trkpt lat="48.05261" lon="-1.2845">
        <ele>87.14</ele>
        <time>2014-02-16T10:53:22Z</time>
      </trkpt>
      <trkpt lat="48.05183" lon="-1.28572">
        <ele>86.18</ele>
        <time>2014-02-16T10:53:39Z</time>
      </trkpt>
      <trkpt lat="48.05124" lon="-1.28663">
        <ele>86.66</ele>
        <time>2014-02-16T10:53:54Z</time>
      </trkpt>
      <trkpt lat="48.05116" lon="-1.28672">
        <ele>86.66</ele>
        <time>2014-02-16T10:53:56Z</time>
      </trkpt>
      <trkpt lat="48.05111" lon="-1.28675">
        <ele>86.66</ele>
        <time>2014-02-16T10:53:57Z</time>
      </trkpt>
      <trkpt lat="48.05074" lon="-1.28697">
        <ele>86.66</ele>
        <time>2014-02-16T10:54:05Z</time>
      </trkpt>
      <trkpt lat="48.05069" lon="-1.28698">
        <ele>87.14</ele>
        <time>2014-02-16T10:54:06Z</time>
      </trkpt>
      <trkpt lat="48.04976" lon="-1.28711">
        <ele>86.18</ele>
        <time>2014-02-16T10:54:22Z</time>
      </trkpt>
      <trkpt lat="48.04922" lon="-1.28719">
        <ele>86.66</ele>
        <time>2014-02-16T10:54:32Z</time>
      </trkpt>
      <trkpt lat="48.04835" lon="-1.28731">
        <ele>88.1</ele>
        <time>2014-02-16T10:54:49Z</time>
      </trkpt>
      <trkpt lat="48.04758" lon="-1.28736">
        <ele>90.02</ele>
        <time>2014-02-16T10:55:05Z</time>
      </trkpt>
      <trkpt lat="48.04753" lon="-1.28737">
        <ele>90.02</ele>
        <time>2014-02-16T10:55:06Z</time>
      </trkpt>
      <trkpt lat="48.04749" lon="-1.28737">
        <ele>90.5</ele>
        <time>2014-02-16T10:55:07Z</time>
      </trkpt>
      <trkpt lat="48.04744" lon="-1.28738">
        <ele>90.5</ele>
        <time>2014-02-16T10:55:08Z</time>
      </trkpt>
      <trkpt lat="48.0474" lon="-1.28737">
        <ele>90.98</ele>
        <time>2014-02-16T10:55:09Z</time>
      </trkpt>
      <trkpt lat="48.04735" lon="-1.28737">
        <ele>90.98</ele>
        <time>2014-02-16T10:55:10Z</time>
      </trkpt>
      <trkpt lat="48.04731" lon="-1.28735">
        <ele>90.98</ele>
        <time>2014-02-16T10:55:11Z</time>
      </trkpt>
      <trkpt lat="48.04726" lon="-1.28734">
        <ele>91.46</ele>
        <time>2014-02-16T10:55:12Z</time>
      </trkpt>
      <trkpt lat="48.04717" lon="-1.28732">
        <ele>91.94</ele>
        <time>2014-02-16T10:55:14Z</time>
      </trkpt>
      <trkpt lat="48.04712" lon="-1.28731">
        <ele>91.94</ele>
        <time>2014-02-16T10:55:15Z</time>
      </trkpt>
      <trkpt lat="48.04707" lon="-1.28731">
        <ele>91.94</ele>
        <time>2014-02-16T10:55:16Z</time>
      </trkpt>
      <trkpt lat="48.04702" lon="-1.2873">
        <ele>91.94</ele>
        <time>2014-02-16T10:55:17Z</time>
      </trkpt>
      <trkpt lat="48.04698" lon="-1.28729">
        <ele>92.42</ele>
        <time>2014-02-16T10:55:18Z</time>
      </trkpt>
      <trkpt lat="48.04693" lon="-1.28728">
        <ele>92.9</ele>
        <time>2014-02-16T10:55:19Z</time>
      </trkpt>
      <trkpt lat="48.04684" lon="-1.28724">
        <ele>92.9</ele>
        <time>2014-02-16T10:55:21Z</time>
      </trkpt>
      <trkpt lat="48.04598" lon="-1.28703">
        <ele>94.83</ele>
        <time>2014-02-16T10:55:39Z</time>
      </trkpt>
      <trkpt lat="48.04584" lon="-1.28701">
        <ele>94.83</ele>
        <time>2014-02-16T10:55:42Z</time>
      </trkpt>
      <trkpt lat="48.04518" lon="-1.28735">
        <ele>96.27</ele>
        <time>2014-02-16T10:55:58Z</time>
      </trkpt>
      <trkpt lat="48.04444" lon="-1.28768">
        <ele>97.71</ele>
        <time>2014-02-16T10:56:15Z</time>
      </trkpt>
      <trkpt lat="48.04384" lon="-1.28796">
        <ele>98.67</ele>
        <time>2014-02-16T10:56:30Z</time>
      </trkpt>
      <trkpt lat="48.04344" lon="-1.28801">
        <ele>99.63</ele>
        <time>2014-02-16T10:56:40Z</time>
      </trkpt>
      <trkpt lat="48.04261" lon="-1.28824">
        <ele>99.63</ele>
        <time>2014-02-16T10:56:58Z</time>
      </trkpt>
      <trkpt lat="48.0418" lon="-1.28885">
        <ele>98.19</ele>
        <time>2014-02-16T10:57:17Z</time>
      </trkpt>
      <trkpt lat="48.04142" lon="-1.28925">
        <ele>97.71</ele>
        <time>2014-02-16T10:57:27Z</time>
      </trkpt>
      <trkpt lat="48.04082" lon="-1.29014">
        <ele>96.75</ele>
        <time>2014-02-16T10:57:43Z</time>
      </trkpt>
      <trkpt lat="48.04021" lon="-1.29088">
        <ele>95.79</ele>
        <time>2014-02-16T10:57:58Z</time>
      </trkpt>
      <trkpt lat="48.03952" lon="-1.29157">
        <ele>95.31</ele>
        <time>2014-02-16T10:58:14Z</time>
      </trkpt>
      <trkpt lat="48.03947" lon="-1.29162">
        <ele>95.31</ele>
        <time>2014-02-16T10:58:15Z</time>
      </trkpt>
      <trkpt lat="48.03938" lon="-1.29169">
        <ele>95.31</ele>
        <time>2014-02-16T10:58:17Z</time>
      </trkpt>
      <trkpt lat="48.03933" lon="-1.29172">
        <ele>95.31</ele>
        <time>2014-02-16T10:58:18Z</time>
      </trkpt>
      <trkpt lat="48.03917" lon="-1.29177">
        <ele>94.83</ele>
        <time>2014-02-16T10:58:21Z</time>
      </trkpt>
      <trkpt lat="48.03832" lon="-1.29176">
        <ele>93.39</ele>
        <time>2014-02-16T10:58:36Z</time>
      </trkpt>
      <trkpt lat="48.03739" lon="-1.29183">
        <ele>91.94</ele>
        <time>2014-02-16T10:58:52Z</time>
      </trkpt>
      <trkpt lat="48.03646" lon="-1.29193">
        <ele>90.98</ele>
        <time>2014-02-16T10:59:08Z</time>
      </trkpt>
      <trkpt lat="48.03563" lon="-1.29202">
        <ele>90.02</ele>
        <time>2014-02-16T10:59:22Z</time>
      </trkpt>
      <trkpt lat="48.03457" lon="-1.29199">
        <ele>89.06</ele>
        <time>2014-02-16T10:59:39Z</time>
      </trkpt>
      <trkpt lat="48.03363" lon="-1.29182">
        <ele>88.1</ele>
        <time>2014-02-16T10:59:55Z</time>
      </trkpt>
      <trkpt lat="48.03276" lon="-1.29163">
        <ele>87.62</ele>
        <time>2014-02-16T11:00:10Z</time>
      </trkpt>
      <trkpt lat="48.0323" lon="-1.2914">
        <ele>84.25</ele>
        <time>2014-02-16T11:00:17Z</time>
      </trkpt>
      <trkpt lat="48.03216" lon="-1.29132">
        <ele>83.77</ele>
        <time>2014-02-16T11:00:19Z</time>
      </trkpt>
      <trkpt lat="48.03138" lon="-1.29087">
        <ele>83.29</ele>
        <time>2014-02-16T11:00:31Z</time>
      </trkpt>
      <trkpt lat="48.03059" lon="-1.29061">
        <ele>83.77</ele>
        <time>2014-02-16T11:00:46Z</time>
      </trkpt>
      <trkpt lat="48.02989" lon="-1.29003">
        <ele>81.85</ele>
        <time>2014-02-16T11:00:59Z</time>
      </trkpt>
      <trkpt lat="48.0292" lon="-1.28962">
        <ele>80.41</ele>
        <time>2014-02-16T11:01:11Z</time>
      </trkpt>
      <trkpt lat="48.02909" lon="-1.2896">
        <ele>80.41</ele>
        <time>2014-02-16T11:01:13Z</time>
      </trkpt>
      <trkpt lat="48.02889" lon="-1.28956">
        <ele>81.85</ele>
        <time>2014-02-16T11:01:17Z</time>
      </trkpt>
      <trkpt lat="48.0288" lon="-1.28954">
        <ele>81.85</ele>
        <time>2014-02-16T11:01:19Z</time>
      </trkpt>
      <trkpt lat="48.02867" lon="-1.28952">
        <ele>82.81</ele>
        <time>2014-02-16T11:01:22Z</time>
      </trkpt>
      <trkpt lat="48.02859" lon="-1.28949">
        <ele>83.29</ele>
        <time>2014-02-16T11:01:24Z</time>
      </trkpt>
      <trkpt lat="48.02841" lon="-1.28945">
        <ele>84.73</ele>
        <time>2014-02-16T11:01:28Z</time>
      </trkpt>
      <trkpt lat="48.02833" lon="-1.28942">
        <ele>85.21</ele>
        <time>2014-02-16T11:01:30Z</time>
      </trkpt>
      <trkpt lat="48.02828" lon="-1.28942">
        <ele>85.21</ele>
        <time>2014-02-16T11:01:31Z</time>
      </trkpt>
      <trkpt lat="48.02819" lon="-1.28941">
        <ele>85.69</ele>
        <time>2014-02-16T11:01:33Z</time>
      </trkpt>
      <trkpt lat="48.02811" lon="-1.28937">
        <ele>86.18</ele>
        <time>2014-02-16T11:01:35Z</time>
      </trkpt>
      <trkpt lat="48.02806" lon="-1.28935">
        <ele>86.18</ele>
        <time>2014-02-16T11:01:36Z</time>
      </trkpt>
      <trkpt lat="48.02802" lon="-1.28934">
        <ele>86.66</ele>
        <time>2014-02-16T11:01:37Z</time>
      </trkpt>
      <trkpt lat="48.02797" lon="-1.28933">
        <ele>87.14</ele>
        <time>2014-02-16T11:01:38Z</time>
      </trkpt>
      <trkpt lat="48.02792" lon="-1.28931">
        <ele>87.14</ele>
        <time>2014-02-16T11:01:39Z</time>
      </trkpt>
      <trkpt lat="48.02787" lon="-1.28929">
        <ele>87.14</ele>
        <time>2014-02-16T11:01:40Z</time>
      </trkpt>
      <trkpt lat="48.02783" lon="-1.28928">
        <ele>87.14</ele>
        <time>2014-02-16T11:01:41Z</time>
      </trkpt>
      <trkpt lat="48.02707" lon="-1.28902">
        <ele>85.69</ele>
        <time>2014-02-16T11:01:54Z</time>
      </trkpt>
      <trkpt lat="48.0264" lon="-1.28876">
        <ele>84.73</ele>
        <time>2014-02-16T11:02:05Z</time>
      </trkpt>
      <trkpt lat="48.02593" lon="-1.28836">
        <ele>83.29</ele>
        <time>2014-02-16T11:02:13Z</time>
      </trkpt>
      <trkpt lat="48.02587" lon="-1.28833">
        <ele>83.29</ele>
        <time>2014-02-16T11:02:14Z</time>
      </trkpt>
      <trkpt lat="48.0258" lon="-1.28831">
        <ele>82.81</ele>
        <time>2014-02-16T11:02:15Z</time>
      </trkpt>
      <trkpt lat="48.02573" lon="-1.28829">
        <ele>82.81</ele>
        <time>2014-02-16T11:02:16Z</time>
      </trkpt>
      <trkpt lat="48.02567" lon="-1.28828">
        <ele>82.81</ele>
        <time>2014-02-16T11:02:17Z</time>
      </trkpt>
      <trkpt lat="48.02561" lon="-1.28828">
        <ele>82.81</ele>
        <time>2014-02-16T11:02:18Z</time>
      </trkpt>
      <trkpt lat="48.02507" lon="-1.28837">
        <ele>80.89</ele>
        <time>2014-02-16T11:02:27Z</time>
      </trkpt>
      <trkpt lat="48.02501" lon="-1.28841">
        <ele>80.41</ele>
        <time>2014-02-16T11:02:28Z</time>
      </trkpt>
      <trkpt lat="48.02497" lon="-1.28845">
        <ele>81.37</ele>
        <time>2014-02-16T11:02:29Z</time>
      </trkpt>
      <trkpt lat="48.02492" lon="-1.2885">
        <ele>80.41</ele>
        <time>2014-02-16T11:02:30Z</time>
      </trkpt>
      <trkpt lat="48.02488" lon="-1.28856">
        <ele>80.41</ele>
        <time>2014-02-16T11:02:31Z</time>
      </trkpt>
      <trkpt lat="48.02485" lon="-1.28863">
        <ele>80.89</ele>
        <time>2014-02-16T11:02:32Z</time>
      </trkpt>
      <trkpt lat="48.02482" lon="-1.2887">
        <ele>80.89</ele>
        <time>2014-02-16T11:02:33Z</time>
      </trkpt>
      <trkpt lat="48.02479" lon="-1.28878">
        <ele>80.89</ele>
        <time>2014-02-16T11:02:34Z</time>
      </trkpt>
      <trkpt lat="48.02476" lon="-1.28885">
        <ele>80.41</ele>
        <time>2014-02-16T11:02:35Z</time>
      </trkpt>
      <trkpt lat="48.02465" lon="-1.28906">
        <ele>80.41</ele>
        <time>2014-02-16T11:02:38Z</time>
      </trkpt>
      <trkpt lat="48.02405" lon="-1.2897">
        <ele>77.04</ele>
        <time>2014-02-16T11:02:49Z</time>
      </trkpt>
      <trkpt lat="48.02343" lon="-1.29024">
        <ele>74.16</ele>
        <time>2014-02-16T11:02:59Z</time>
      </trkpt>
      <trkpt lat="48.02268" lon="-1.29088">
        <ele>72.24</ele>
        <time>2014-02-16T11:03:13Z</time>
      </trkpt>
      <trkpt lat="48.02234" lon="-1.29106">
        <ele>71.76</ele>
        <time>2014-02-16T11:03:19Z</time>
      </trkpt>
      <trkpt lat="48.02228" lon="-1.29106">
        <ele>71.76</ele>
        <time>2014-02-16T11:03:20Z</time>
      </trkpt>
      <trkpt lat="48.02222" lon="-1.29107">
        <ele>71.76</ele>
        <time>2014-02-16T11:03:21Z</time>
      </trkpt>
      <trkpt lat="48.02209" lon="-1.29106">
        <ele>71.76</ele>
        <time>2014-02-16T11:03:23Z</time>
      </trkpt>
      <trkpt lat="48.02113" lon="-1.2907">
        <ele>70.79</ele>
        <time>2014-02-16T11:03:39Z</time>
      </trkpt>
      <trkpt lat="48.02025" lon="-1.29068">
        <ele>70.31</ele>
        <time>2014-02-16T11:03:54Z</time>
      </trkpt>
      <trkpt lat="48.01921" lon="-1.29077">
        <ele>69.83</ele>
        <time>2014-02-16T11:04:12Z</time>
      </trkpt>
      <trkpt lat="48.0188" lon="-1.2908">
        <ele>69.83</ele>
        <time>2014-02-16T11:04:20Z</time>
      </trkpt>
      <trkpt lat="48.01802" lon="-1.29098">
        <ele>70.31</ele>
        <time>2014-02-16T11:04:35Z</time>
      </trkpt>
      <trkpt lat="48.01727" lon="-1.29117">
        <ele>72.24</ele>
        <time>2014-02-16T11:04:51Z</time>
      </trkpt>
      <trkpt lat="48.01722" lon="-1.29118">
        <ele>72.24</ele>
        <time>2014-02-16T11:04:52Z</time>
      </trkpt>
      <trkpt lat="48.01708" lon="-1.29121">
        <ele>72.24</ele>
        <time>2014-02-16T11:04:55Z</time>
      </trkpt>
      <trkpt lat="48.01705" lon="-1.29123">
        <ele>72.24</ele>
        <time>2014-02-16T11:04:56Z</time>
      </trkpt>
      <trkpt lat="48.01662" lon="-1.29134">
        <ele>74.64</ele>
        <time>2014-02-16T11:05:07Z</time>
      </trkpt>
      <trkpt lat="48.01621" lon="-1.29137">
        <ele>77.52</ele>
        <time>2014-02-16T11:05:18Z</time>
      </trkpt>
      <trkpt lat="48.01583" lon="-1.29141">
        <ele>79.93</ele>
        <time>2014-02-16T11:05:28Z</time>
      </trkpt>
      <trkpt lat="48.01534" lon="-1.29143">
        <ele>80.89</ele>
        <time>2014-02-16T11:05:40Z</time>
      </trkpt>
      <trkpt lat="48.01449" lon="-1.29148">
        <ele>78.97</ele>
        <time>2014-02-16T11:05:56Z</time>
      </trkpt>
      <trkpt lat="48.01438" lon="-1.29148">
        <ele>78.48</ele>
        <time>2014-02-16T11:05:58Z</time>
      </trkpt>
      <trkpt lat="48.01378" lon="-1.29153">
        <ele>77.52</ele>
        <time>2014-02-16T11:06:09Z</time>
      </trkpt>
      <trkpt lat="48.01372" lon="-1.29152">
        <ele>77.52</ele>
        <time>2014-02-16T11:06:10Z</time>
      </trkpt>
      <trkpt lat="48.01367" lon="-1.29151">
        <ele>77.52</ele>
        <time>2014-02-16T11:06:11Z</time>
      </trkpt>
      <trkpt lat="48.01356" lon="-1.2915">
        <ele>78</ele>
        <time>2014-02-16T11:06:13Z</time>
      </trkpt>
      <trkpt lat="48.0135" lon="-1.29148">
        <ele>77.52</ele>
        <time>2014-02-16T11:06:14Z</time>
      </trkpt>
      <trkpt lat="48.01272" lon="-1.29119">
        <ele>76.56</ele>
        <time>2014-02-16T11:06:28Z</time>
      </trkpt>
      <trkpt lat="48.01219" lon="-1.29113">
        <ele>75.12</ele>
        <time>2014-02-16T11:06:38Z</time>
      </trkpt>
      <trkpt lat="48.01215" lon="-1.29108">
        <ele>75.12</ele>
        <time>2014-02-16T11:06:39Z</time>
      </trkpt>
      <trkpt lat="48.01213" lon="-1.29101">
        <ele>74.64</ele>
        <time>2014-02-16T11:06:40Z</time>
      </trkpt>
      <trkpt lat="48.01213" lon="-1.29092">
        <ele>74.64</ele>
        <time>2014-02-16T11:06:41Z</time>
      </trkpt>
      <trkpt lat="48.01213" lon="-1.29084">
        <ele>74.64</ele>
        <time>2014-02-16T11:06:42Z</time>
      </trkpt>
      <trkpt lat="48.01214" lon="-1.29075">
        <ele>74.64</ele>
        <time>2014-02-16T11:06:43Z</time>
      </trkpt>
      <trkpt lat="48.01215" lon="-1.29066">
        <ele>74.16</ele>
        <time>2014-02-16T11:06:44Z</time>
      </trkpt>
      <trkpt lat="48.01215" lon="-1.29057">
        <ele>74.16</ele>
        <time>2014-02-16T11:06:45Z</time>
      </trkpt>
      <trkpt lat="48.01222" lon="-1.28914">
        <ele>71.27</ele>
        <time>2014-02-16T11:07:00Z</time>
      </trkpt>
      <trkpt lat="48.01228" lon="-1.28747">
        <ele>68.39</ele>
        <time>2014-02-16T11:07:17Z</time>
      </trkpt>
      <trkpt lat="48.01227" lon="-1.28738">
        <ele>68.39</ele>
        <time>2014-02-16T11:07:18Z</time>
      </trkpt>
      <trkpt lat="48.01228" lon="-1.28729">
        <ele>68.39</ele>
        <time>2014-02-16T11:07:19Z</time>
      </trkpt>
      <trkpt lat="48.01231" lon="-1.28722">
        <ele>67.91</ele>
        <time>2014-02-16T11:07:20Z</time>
      </trkpt>
      <trkpt lat="48.01236" lon="-1.28716">
        <ele>67.91</ele>
        <time>2014-02-16T11:07:21Z</time>
      </trkpt>
      <trkpt lat="48.01242" lon="-1.28714">
        <ele>67.91</ele>
        <time>2014-02-16T11:07:22Z</time>
      </trkpt>
      <trkpt lat="48.01248" lon="-1.28714">
        <ele>67.91</ele>
        <time>2014-02-16T11:07:23Z</time>
      </trkpt>
      <trkpt lat="48.01254" lon="-1.28714">
        <ele>67.91</ele>
        <time>2014-02-16T11:07:24Z</time>
      </trkpt>
      <trkpt lat="48.01266" lon="-1.28712">
        <ele>67.91</ele>
        <time>2014-02-16T11:07:26Z</time>
      </trkpt>
      <trkpt lat="48.01272" lon="-1.28711">
        <ele>67.91</ele>
        <time>2014-02-16T11:07:27Z</time>
      </trkpt>
      <trkpt lat="48.01289" lon="-1.28706">
        <ele>68.87</ele>
        <time>2014-02-16T11:07:30Z</time>
      </trkpt>
      <trkpt lat="48.01295" lon="-1.28707">
        <ele>68.87</ele>
        <time>2014-02-16T11:07:31Z</time>
      </trkpt>
      <trkpt lat="48.013" lon="-1.28712">
        <ele>69.35</ele>
        <time>2014-02-16T11:07:32Z</time>
      </trkpt>
      <trkpt lat="48.01304" lon="-1.28718">
        <ele>69.83</ele>
        <time>2014-02-16T11:07:33Z</time>
      </trkpt>
      <trkpt lat="48.01308" lon="-1.28724">
        <ele>69.35</ele>
        <time>2014-02-16T11:07:34Z</time>
      </trkpt>
      <trkpt lat="48.01311" lon="-1.28731">
        <ele>69.83</ele>
        <time>2014-02-16T11:07:35Z</time>
      </trkpt>
      <trkpt lat="48.01313" lon="-1.28738">
        <ele>70.31</ele>
        <time>2014-02-16T11:07:36Z</time>
      </trkpt>
      <trkpt lat="48.01318" lon="-1.28753">
        <ele>70.31</ele>
        <time>2014-02-16T11:07:38Z</time>
      </trkpt>
      <trkpt lat="48.0132" lon="-1.2876">
        <ele>70.79</ele>
        <time>2014-02-16T11:07:39Z</time>
      </trkpt>
      <trkpt lat="48.01323" lon="-1.28767">
        <ele>70.79</ele>
        <time>2014-02-16T11:07:40Z</time>
      </trkpt>
      <trkpt lat="48.01327" lon="-1.28772">
        <ele>70.79</ele>
        <time>2014-02-16T11:07:41Z</time>
      </trkpt>
      <trkpt lat="48.01331" lon="-1.28775">
        <ele>71.27</ele>
        <time>2014-02-16T11:07:42Z</time>
      </trkpt>
      <trkpt lat="48.01336" lon="-1.28774">
        <ele>71.27</ele>
        <time>2014-02-16T11:07:43Z</time>
      </trkpt>
      <trkpt lat="48.01341" lon="-1.28773">
        <ele>71.76</ele>
        <time>2014-02-16T11:07:44Z</time>
      </trkpt>
      <trkpt lat="48.01346" lon="-1.28771">
        <ele>71.76</ele>
        <time>2014-02-16T11:07:45Z</time>
      </trkpt>
      <trkpt lat="48.01351" lon="-1.28768">
        <ele>71.76</ele>
        <time>2014-02-16T11:07:46Z</time>
      </trkpt>
      <trkpt lat="48.01397" lon="-1.28755">
        <ele>73.68</ele>
        <time>2014-02-16T11:07:59Z</time>
      </trkpt>
      <trkpt lat="48.01401" lon="-1.28755">
        <ele>74.16</ele>
        <time>2014-02-16T11:08:12Z</time>
      </trkpt>
    </trkseg>
  </trk>
</gpx>